[[{"header":{"parameterUnit":"m.s-1","parameterCategory":1,"la1":30.6,"la2":28.766,"lo1":-90.7593,"lo2":-88.6598,"dy":0.0162,"dx":0.0183,"nx":116,"ny":114,"refTime":"2024-03-12T12:00:00:Z","depth":0,"parameterNumber":2,"parameterNumberName":"U-component_of_WINDS"},"data":[0.0,0.0,0.0,0.0,0.0,0.0,0.0,0.0,0.0,0.0,0.0,0.0,0.0,0.0,0.0,0.0,0.0,0.0,0.0,0.0,0.0,0.0,0.0,0.0,0.0,0.0,0.0,0.0,0.0,0.0,0.0,0.0,0.0,0.0,0.0,0.0,0.0,0.0,0.0,0.0,0.0,0.0,0.0,0.0,0.0,0.0,0.0,0.0,0.0,0.0,0.0,0.0,0.0,0.0,0.0,0.0,0.0,0.0,0.0,0.0,0.0,0.0,0.0,0.0,0.0,0.0,0.0,0.0,0.0,0.0,0.0,0.0,0.0,0.0,0.0,0.0,0.0,0.0,0.0,0.0,0.0,0.0,0.0,0.0,0.0,0.0,0.0,0.0,0.0,0.0,0.0,0.0,0.0,0.0,0.0,0.0,0.0,0.0,0.0,0.0,0.0,0.0,0.0,0.0,0.0,0.0,0.0,0.0,0.0,0.0,0.0,0.0,0.0,0.0,0.0,0.0,0.0,0.0,0.0,0.0,0.0,0.0,0.0,0.0,0.0,0.0,0.0,0.0,0.0,0.0,0.0,0.0,0.0,0.0,0.0,0.0,0.0,0.0,0.0,0.0,0.0,0.0,0.0,0.0,0.0,0.0,0.0,0.0,0.0,0.0,0.0,0.0,0.0,0.0,0.0,0.0,0.0,0.0,0.0,0.0,0.0,0.0,0.0,0.0,0.0,0.0,0.0,0.0,0.0,0.0,0.0,0.0,0.0,0.0,0.0,0.0,0.0,0.0,0.0,0.0,0.0,0.0,0.0,0.0,0.0,0.0,0.0,0.0,0.0,0.0,0.0,0.0,0.0,0.0,0.0,0.0,0.0,0.0,0.0,0.0,0.0,0.0,0.0,0.0,0.0,0.0,0.0,0.0,0.0,0.0,0.0,0.0,0.0,0.0,0.0,0.0,0.0,0.0,0.0,0.0,0.0,0.0,0.0,0.0,0.0,0.0,0.0,0.0,0.0,0.0,0.0,0.0,0.0,0.0,0.0,0.0,0.0,0.0,0.0,0.0,0.0,0.0,0.0,0.0,0.0,0.0,0.0,0.0,0.0,0.0,0.0,0.0,0.0,0.0,0.0,0.0,0.0,0.0,0.0,0.0,0.0,0.0,0.0,0.0,0.0,0.0,0.0,0.0,0.0,0.0,0.0,0.0,0.0,0.0,0.0,0.0,0.0,0.0,0.0,0.0,0.0,0.0,0.0,0.0,0.0,0.0,0.0,0.0,0.0,0.0,0.0,0.0,0.0,0.0,0.0,0.0,0.0,0.0,0.0,0.0,0.0,0.0,0.0,0.0,0.0,0.0,0.0,0.0,0.0,0.0,0.0,0.0,0.0,0.0,0.0,0.0,0.0,0.0,0.0,0.0,0.0,0.0,0.0,0.0,0.0,0.0,0.0,0.0,0.0,0.0,0.0,0.0,0.0,0.0,0.0,0.0,0.0,0.0,0.0,0.0,0.0,0.0,0.0,0.0,0.0,0.0,0.0,0.0,0.0,0.0,0.0,0.0,0.0,0.0,0.0,0.0,0.0,0.0,0.0,0.0,0.0,0.0,0.0,0.0,0.0,0.0,0.0,0.0,0.0,0.0,0.0,0.0,0.0,0.0,0.0,0.0,0.0,0.0,0.0,0.0,0.0,0.0,0.0,0.0,0.0,0.0,0.0,0.0,0.0,0.0,0.0,0.0,0.0,0.0,0.0,0.0,0.0,0.0,0.0,0.0,0.0,0.0,0.0,0.0,0.0,0.0,0.0,0.0,0.0,0.0,0.0,0.0,0.0,0.0,0.0,0.0,0.0,0.0,0.0,0.0,0.0,0.0,0.0,0.0,0.0,0.0,0.0,0.0,0.0,0.0,0.0,0.0,0.0,0.0,0.0,0.0,0.0,0.0,0.0,0.0,0.0,0.0,0.0,0.0,0.0,0.0,0.0,0.0,0.0,0.0,0.0,0.0,0.0,0.0,0.0,0.0,0.0,0.0,0.0,0.0,0.0,0.0,0.0,0.0,0.0,0.0,0.0,0.0,0.0,0.0,0.0,0.0,0.0,0.0,0.0,0.0,0.0,0.0,0.0,0.0,0.0,0.0,0.0,0.0,0.0,0.0,0.0,0.0,0.0,0.0,0.0,0.0,0.0,0.0,0.0,0.0,0.0,0.0,0.0,0.0,0.0,0.0,0.0,0.0,0.0,0.0,0.0,0.0,0.0,0.0,0.0,0.0,0.0,0.0,0.0,0.0,0.0,0.0,0.0,0.0,0.0,0.0,0.0,0.0,0.0,0.0,0.0,0.0,0.0,0.0,0.0,0.0,0.0,0.0,0.0,0.0,0.0,0.0,0.0,0.0,0.0,0.0,0.0,0.0,0.0,0.0,0.0,0.0,0.0,0.0,0.0,0.0,0.0,0.0,0.0,0.0,0.0,0.0,0.0,0.0,0.0,0.0,0.0,0.0,0.0,0.0,0.0,0.0,0.0,0.0,0.0,0.0,0.0,0.0,0.0,0.0,0.0,0.0,0.0,0.0,0.0,0.0,0.0,0.0,0.0,0.0,0.0,0.0,0.0,0.0,0.0,0.0,0.0,0.0,0.0,0.0,0.0,0.0,0.0,0.0,0.0,0.0,0.0,0.0,0.0,0.0,0.0,0.0,0.0,0.0,0.0,0.0,0.0,0.0,0.0,0.0,0.0,0.0,0.0,0.0,0.0,0.0,0.0,0.0,0.0,0.0,0.0,0.0,0.0,0.0,0.0,0.0,0.0,0.0,0.0,0.0,0.0,0.0,0.0,0.0,0.0,0.0,0.0,0.0,0.0,0.0,0.0,0.0,0.0,0.0,0.0,0.0,0.0,0.0,0.0,0.0,0.0,0.0,0.0,0.0,0.0,0.0,0.0,0.0,0.0,0.0,0.0,0.0,0.0,0.0,0.0,0.0,0.0,0.0,0.0,0.0,0.0,0.0,0.0,0.0,0.0,0.0,0.0,0.0,0.0,0.0,0.0,0.0,0.0,0.0,0.0,0.0,0.0,0.0,0.0,0.0,0.0,0.0,0.0,0.0,0.0,0.0,0.0,0.0,0.0,0.0,0.0,0.0,0.0,0.0,0.0,0.0,0.0,0.0,0.0,0.0,0.0,0.0,0.0,0.0,0.0,0.0,0.0,0.0,0.0,0.0,0.0,0.0,0.0,0.0,0.0,0.0,0.0,0.0,0.0,0.0,0.0,0.0,0.0,0.0,0.0,0.0,0.0,0.0,0.0,0.0,0.0,0.0,0.0,0.0,0.0,0.0,0.0,0.0,0.0,0.0,0.0,0.0,0.0,0.0,0.0,0.0,0.0,0.0,0.0,0.0,0.0,0.0,0.0,0.0,0.0,0.0,0.0,0.0,0.0,0.0,0.0,0.0,0.0,0.0,0.0,0.0,0.0,0.0,0.0,0.0,0.0,0.0,0.0,0.0,0.0,0.0,0.0,0.0,0.0,0.0,0.0,0.0,0.0,0.0,0.0,0.0,0.0,0.0,0.0,0.0,0.0,0.0,0.0,0.0,0.0,0.0,0.0,0.0,0.0,0.0,0.0,0.0,0.0,0.0,0.0,0.0,0.0,0.0,0.0,0.0,0.0,0.0,0.0,0.0,0.0,0.0,0.0,0.0,0.0,0.0,0.0,0.0,0.0,0.0,0.0,0.0,0.0,0.0,0.0,0.0,0.0,0.0,0.0,0.0,0.0,0.0,0.0,0.0,0.0,0.0,0.0,0.0,0.0,0.0,0.0,0.0,0.0,0.0,0.0,0.0,0.0,0.0,0.0,0.0,0.0,0.0,0.0,0.0,0.0,0.0,0.0,0.0,0.0,0.0,0.0,0.0,0.0,0.0,0.0,0.0,0.0,0.0,0.0,0.0,0.0,0.0,0.0,0.0,0.0,0.0,0.0,0.0,0.0,0.0,0.0,0.0,0.0,0.0,0.0,0.0,0.0,0.0,0.0,0.0,0.0,0.0,0.0,0.0,0.0,0.0,0.0,0.0,0.0,0.0,0.0,0.0,0.0,0.0,0.0,0.0,0.0,0.0,0.0,0.0,0.0,0.0,0.0,0.0,0.0,0.0,0.0,0.0,0.0,0.0,0.0,0.0,0.0,0.0,0.0,0.0,0.0,0.0,0.0,0.0,0.0,0.0,0.0,0.0,0.0,0.0,0.0,0.0,0.0,0.0,0.0,0.0,0.0,0.0,0.0,0.0,0.0,0.0,0.0,0.0,0.0,0.0,0.0,0.0,0.0,0.0,0.0,0.0,0.0,0.0,0.0,0.0,0.0,0.0,0.0,0.0,0.0,0.0,0.0,0.0,0.0,0.0,0.0,0.0,0.0,0.0,0.0,0.0,0.0,0.0,0.0,0.0,0.0,0.0,0.0,0.0,0.0,0.0,0.0,0.0,0.0,0.0,0.0,0.0,0.0,0.0,0.0,0.0,0.0,0.0,0.0,0.0,0.0,0.0,0.0,0.0,0.0,0.0,0.0,0.0,0.0,0.0,0.0,0.0,0.0,0.0,0.0,0.0,0.0,0.0,0.0,0.0,0.0,0.0,0.0,0.0,0.0,0.0,0.0,0.0,0.0,0.0,0.0,0.0,0.0,0.0,0.0,0.0,0.0,0.0,0.0,0.0,0.0,0.0,0.0,0.0,0.0,0.0,0.0,0.0,0.0,0.0,0.0,0.0,0.0,0.0,0.0,0.0,0.0,0.0,0.0,0.0,0.0,0.0,0.0,0.0,0.0,0.0,0.0,0.0,0.0,0.0,0.0,0.0,0.0,0.0,0.0,0.0,0.0,0.0,0.0,0.0,0.0,0.0,0.0,0.0,0.0,0.0,0.0,0.0,0.0,0.0,0.0,0.0,0.0,0.0,0.0,0.0,0.0,0.0,0.0,0.0,0.0,0.0,0.0,0.0,0.0,0.0,0.0,0.0,0.0,0.0,0.0,0.0,0.0,0.0,0.0,0.0,0.0,0.0,0.0,0.0,0.0,0.0,0.0,0.0,0.0,0.0,0.0,0.0,0.0,0.0,0.0,0.0,0.0,0.0,0.0,0.0,0.0,0.0,0.0,0.0,0.0,0.0,0.0,0.0,0.0,0.0,0.0,0.0,0.0,0.0,0.0,0.0,0.0,0.0,0.0,0.0,0.0,0.0,0.0,0.0,0.0,0.0,0.0,0.0,0.0,0.0,0.0,0.0,0.0,0.0,0.0,0.0,0.0,0.0,0.0,0.0,0.0,0.0,0.0,0.0,0.0,0.0,0.0,0.0,0.0,0.0,0.0,0.0,0.0,0.0,0.0,0.0,0.0,0.0,0.0,0.0,0.0,0.0,0.0,0.0,0.0,0.0,0.0,0.0,0.0,0.0,0.0,0.0,0.0,0.0,0.0,0.0,0.0,0.0,0.0,0.0,0.0,0.0,0.0,0.0,0.0,0.0,0.0,0.0,0.0,0.0,0.0,0.0,0.0,0.0,0.0,0.0,0.0,0.0,0.0,0.0,0.0,0.0,0.0,0.0,0.0,0.0,0.0,0.0,0.0,0.0,0.0,0.0,0.0,0.0,0.0,0.0,0.0,0.0,0.0,0.0,0.0,0.0,0.0,0.0,0.0,0.0,0.0,0.0,0.0,0.0,0.0,0.0,0.0,0.0,0.0,0.0,0.0,0.0,0.0,0.0,0.0,0.0,0.0,0.0,0.0,0.0,0.0,0.0,0.0,0.0,0.0,0.0,0.0,0.0,0.0,0.0,0.0,0.0,0.0,0.0,0.0,0.0,0.0,0.0,0.0,0.0,0.0,0.0,0.0,0.0,0.0,0.0,0.0,0.0,0.0,0.0,0.0,0.0,0.0,0.0,0.0,0.0,0.0,0.0,0.0,0.0,0.0,0.0,0.0,0.0,0.0,0.0,0.0,0.0,0.0,0.0,0.0,0.0,0.0,0.0,0.0,0.0,0.0,0.0,0.0,0.0,0.0,0.0,0.0,0.0,0.0,0.0,0.0,0.0,0.0,0.0,0.0,0.0,0.0,0.0,0.0,0.0,1.679,0.0,0.0,0.0,0.0,0.0,0.0,0.0,0.0,0.0,0.0,0.0,0.0,0.0,0.0,0.0,0.0,0.0,0.0,0.0,0.0,0.0,0.0,0.0,0.0,0.0,0.0,0.0,0.3306,0.3787,0.4403,0.5532,0.662,0.7566,0.8706,0.9946,1.1265,1.2648,1.4423,1.662,1.8895,2.1023,2.2966,2.4046,2.5173,2.6286,0.0,0.0,0.0,0.0,0.0,0.0,0.0,0.0,0.0,0.0,0.0,0.0,0.0,0.0,0.0,0.0,0.0,0.0,0.0,0.0,0.0,0.0,0.0,0.0,0.0,0.0,0.0,0.0,0.0,0.0,0.0,0.0,0.0,0.0,0.0,0.0,0.0,0.0,0.0,0.0,0.0,0.0,0.0,0.0,0.0,0.0,0.0,0.0,0.0,0.0,0.0,0.0,0.0,0.0,0.0,0.0,0.0,0.0,0.0,0.0,0.0,0.0,0.0,0.0,0.0,0.0,0.0,0.0,0.0,0.0,0.0,1.6867,0.0,0.0,0.0,0.0,0.0,0.0,0.0,0.0,0.0,0.0,0.0,0.0,0.0,0.0,0.0,0.0,0.0,0.0,0.0,0.0,0.0,0.0,0.0,0.1133,0.2198,0.3157,0.3744,0.4313,0.4913,0.5941,0.6922,0.7799,0.9305,1.0615,1.1633,1.3653,1.5678,1.766,2.0689,2.2944,2.4468,2.5017,2.5756,0.0,0.0,0.0,0.0,0.0,0.0,0.0,0.0,0.0,0.0,0.0,0.0,0.0,0.0,0.0,0.0,0.0,0.0,0.0,0.0,0.0,0.0,0.0,0.0,0.0,0.0,0.0,0.0,0.0,0.0,0.0,0.0,0.0,0.0,0.0,0.0,0.0,0.0,0.0,0.0,0.0,0.0,0.0,0.0,0.0,0.0,0.0,0.0,0.0,0.0,0.0,0.0,0.0,0.0,0.0,0.0,0.0,0.0,0.0,0.0,0.0,0.0,0.0,0.0,0.0,1.0382,1.0272,1.0636,1.6041,1.844,1.8335,1.8447,1.8495,1.8518,0.0,0.0,0.0,0.0,0.0,0.0,0.0,0.0,0.0,0.0,0.0,0.0,0.0,0.0,0.0,0.0,0.0,0.0,0.0,0.0,0.0,0.0,0.2335,0.295,0.3725,0.4085,0.4728,0.5843,0.6855,0.7812,0.8689,1.0219,1.1421,1.2256,1.3859,1.5503,1.7113,1.9613,2.1753,2.3478,2.3463,2.4531,2.6545,0.0,0.0,0.0,0.0,0.0,0.0,0.0,0.0,0.0,0.0,0.0,0.0,0.0,0.0,0.0,0.0,0.0,0.0,0.0,0.0,0.0,0.0,0.0,0.0,0.0,0.0,0.0,0.0,0.0,0.0,0.0,0.0,0.0,0.0,0.0,0.0,0.0,0.0,0.0,0.0,0.0,0.0,0.0,0.0,1.0089,1.1205,0.0,0.0,0.0,0.0,0.0,0.0,0.0,0.0,0.0,0.0,0.0,0.0,0.0,1.2889,1.3699,1.4414,1.2918,0.9344,1.2987,1.5395,1.6724,1.9844,2.1406,2.1636,2.1406,0.0,2.1275,2.1304,0.0,0.0,0.0,0.0,0.0,0.0,0.0,0.0,0.0,0.0,0.0,0.0,0.0,0.0,0.0,0.0,0.0,0.0,0.0,0.0,0.0,0.3249,0.3744,0.4245,0.4464,0.5046,0.614,0.7048,0.7939,0.8812,1.0833,1.2091,1.2387,1.4438,1.6187,1.7614,1.8876,2.0061,2.1238,2.2327,2.3344,2.4296,2.5536,2.6358,2.6812,2.644,0.0,0.0,0.0,0.0,0.0,0.0,0.0,0.0,0.0,0.0,0.0,0.0,0.0,0.0,0.0,0.0,0.0,0.0,0.0,0.0,0.0,0.0,0.0,0.0,0.0,0.0,0.0,0.0,0.0,0.0,0.0,0.0,0.0,0.0,0.0,0.0,0.0,0.0,0.0,0.921,1.0606,1.2009,1.2534,1.3666,0.0,0.0,0.0,0.0,0.0,0.0,0.0,0.0,0.0,1.8854,1.7042,1.6043,1.5915,1.5702,1.5242,1.4586,1.6484,1.7683,1.8305,2.1046,2.2304,2.231,2.2287,2.3177,2.4439,2.2765,2.1542,2.0746,0.0,0.0,0.0,0.0,1.8554,1.8371,0.0,0.0,0.0,0.0,0.0,0.0,0.0,0.0,0.0,0.0,0.0,0.0,0.3711,0.4058,0.4392,0.4644,0.4782,0.5265,0.6203,0.7052,0.789,0.876,1.0989,1.2288,1.2464,1.4621,1.6254,1.7333,1.7557,1.8081,1.8861,2.047,2.142,2.1873,2.3095,2.4437,2.5738,2.5661,2.4714,0.0,0.0,0.0,0.0,0.0,0.0,0.0,0.0,0.0,0.0,0.0,0.0,0.0,0.0,0.0,0.0,0.0,0.0,0.0,0.0,0.0,0.0,0.0,0.0,0.0,0.0,0.0,0.0,0.0,0.0,0.0,0.0,0.0,0.0,0.0,0.0,0.0,0.0,0.9399,1.0612,1.2189,1.2613,1.3781,0.0,0.0,0.0,0.0,0.0,0.0,2.3686,2.3915,2.3162,2.1332,1.9838,1.8858,1.8416,1.7429,1.7782,1.9416,1.9471,1.9609,1.9916,2.1906,2.2685,2.2515,2.2712,2.4391,2.6768,2.4522,2.3271,2.273,2.1967,2.1648,2.1623,2.1403,2.0965,2.0511,0.0,0.0,0.0,0.0,0.0,0.0,0.0,0.0,0.0,0.0,0.0,0.4212,0.4765,0.4782,0.4805,0.4881,0.494,0.5336,0.6144,0.7022,0.7886,0.8754,1.0443,1.1782,1.2665,1.4061,1.4942,1.5264,1.5209,1.5716,1.6758,1.7243,1.8336,1.9958,2.0561,2.2283,2.4774,2.4635,2.365,2.218,0.0,0.0,0.0,0.0,0.0,0.0,0.0,0.0,0.0,0.0,0.0,0.0,0.0,0.0,0.0,0.0,0.0,0.0,0.0,0.0,0.0,0.0,0.0,0.0,0.0,0.0,0.0,0.0,0.0,0.0,0.0,0.0,0.0,0.0,0.0,0.0,0.0,0.0,0.0,1.1362,1.2204,0.0,0.0,0.0,0.0,2.2707,2.2951,2.3676,2.5379,2.4715,2.4179,2.391,2.2105,2.1415,2.1942,2.1003,2.0622,2.0814,2.1189,2.2128,2.3518,2.3206,2.3052,2.307,2.3052,2.4831,2.7624,2.7217,2.5478,2.3052,2.2764,2.2643,2.272,2.3443,2.3604,2.3346,0.0,0.0,0.0,0.0,0.0,0.0,0.0,0.0,0.3465,0.3779,0.4041,0.4336,0.473,0.4786,0.4823,0.4886,0.493,0.5307,0.621,0.7079,0.771,0.8021,0.9642,1.0621,1.0828,1.211,1.251,1.1957,1.2615,1.3104,1.3474,1.4842,1.5814,1.6491,1.7513,1.8748,2.013,2.1269,2.1163,2.0167,1.9596,1.8356,0.0,0.0,0.0,0.0,0.0,0.0,0.0,0.0,0.0,0.0,0.0,0.0,0.0,0.0,0.0,0.0,0.0,0.0,0.0,0.0,0.0,0.0,0.0,0.0,0.0,0.0,0.0,0.0,0.0,0.0,0.0,0.0,0.0,0.0,0.0,0.0,0.0,1.2774,1.2825,0.0,1.701,1.7663,1.9325,2.2785,2.3013,2.3737,2.5446,2.5234,2.4772,2.4113,2.341,2.2836,2.2395,2.2482,2.2734,2.3154,2.3308,2.3565,2.3917,2.3667,2.3486,2.3484,2.5488,2.6996,2.7996,2.7689,2.6982,2.6041,2.5761,2.5661,2.5562,2.4718,2.4441,2.4426,0.0,0.0,0.0,0.0,0.0,0.0,0.0,0.0,0.3661,0.3837,0.4023,0.4229,0.45,0.4583,0.47,0.4853,0.4908,0.5193,0.5784,0.6656,0.7161,0.7162,0.8781,0.946,0.894,0.9948,1.0034,0.9123,0.9784,1.0256,1.0577,1.2131,1.296,1.3217,1.434,1.5072,1.5593,1.6972,1.7753,1.8099,1.746,1.6443,1.5112,0.0,0.0,0.0,0.0,0.0,0.0,0.0,0.0,0.0,0.0,0.0,0.0,0.0,0.0,0.0,0.0,0.0,0.0,0.0,0.0,0.0,0.0,0.0,0.0,0.0,0.0,0.0,0.0,0.0,0.0,0.0,0.0,0.0,0.0,0.0,1.1047,1.3472,1.3111,1.3926,1.7119,1.7866,1.9486,2.2714,2.2959,2.3702,2.542,2.549,2.5182,2.455,2.4745,2.4506,2.3828,2.4482,2.4919,2.5103,2.5206,2.4875,2.4172,2.4077,2.4517,2.5456,2.7482,2.8291,2.8182,2.795,2.7789,2.7672,2.739,2.7218,2.6952,2.58,2.5424,2.548,0.0,0.0,0.0,0.0,0.0,0.0,0.0,0.3839,0.3802,0.3796,0.3803,0.3897,0.4163,0.425,0.4434,0.4755,0.4905,0.4959,0.4914,0.5784,0.6308,0.6293,0.7907,0.8281,0.7135,0.7705,0.766,0.6906,0.6788,0.7227,0.8197,0.9068,0.9744,1.0296,1.1024,1.1403,1.1542,1.1951,1.3594,1.5878,1.5884,1.4558,1.2335,0.0,0.0,0.0,0.0,0.0,0.0,0.0,0.0,0.0,0.0,0.0,0.0,0.0,0.0,0.0,0.0,0.0,0.0,0.0,0.0,0.0,0.0,0.0,0.0,0.0,0.0,0.0,0.0,0.0,0.0,0.0,0.0,0.0,1.1308,1.0724,1.1065,1.3291,1.3034,1.3806,1.6663,1.7958,1.9803,2.2678,2.289,2.3651,2.5387,2.5448,2.5443,2.5437,2.6147,2.65,2.6454,2.711,2.7161,2.6585,2.6859,2.6154,2.4648,2.4648,2.6244,2.8994,2.8737,2.8458,2.8209,2.8209,2.8078,2.7841,2.7456,2.7072,2.6725,2.6725,2.6725,2.6657,0.0,0.0,0.0,0.0,0.0,0.0,0.0,0.3894,0.3743,0.3789,0.3675,0.3706,0.4013,0.4115,0.4269,0.4561,0.4697,0.4855,0.5036,0.5887,0.6359,0.63,0.6659,0.0,0.5128,0.5974,0.5938,0.4893,0.5051,0.5293,0.5629,0.6301,0.6761,0.7036,0.7906,0.8663,0.9244,0.8851,0.9568,1.1078,1.2621,1.2445,1.1103,0.0,0.0,0.0,0.0,0.0,0.0,0.0,0.0,0.0,0.0,0.0,0.0,0.0,0.0,0.0,0.0,0.0,0.0,0.0,0.0,0.0,0.0,0.0,0.0,0.0,0.0,0.0,0.0,0.0,0.0,0.0,0.0,1.126,1.1644,1.1282,1.191,1.4373,1.4507,1.5353,1.7761,1.852,1.9985,2.2634,2.2871,2.3636,2.5332,2.6,2.6348,2.6339,2.7113,2.7486,2.7424,2.8178,2.8439,2.8164,2.8749,2.8688,2.8129,2.8241,2.8632,2.928,2.9017,2.8737,2.8458,2.8291,2.949,3.1227,2.8627,2.7386,2.7154,2.7154,2.7657,2.8264,0.0,0.0,0.0,0.0,0.0,0.0,0.0,0.4019,0.3855,0.3736,0.352,0.3434,0.3608,0.3803,0.4026,0.4274,0.4259,0.4462,0.498,0.5331,0.0,0.0,0.0,0.4741,0.3702,0.4243,0.3984,0.2847,0.2963,0.3224,0.3602,0.387,0.4173,0.4562,0.5221,0.5779,0.6259,0.6159,0.6467,0.7102,0.8419,0.8978,0.8963,0.8266,0.7018,0.5555,0.4788,0.3491,0.2071,0.1568,0.0,0.0,0.0,0.0,0.0,0.0,0.0,0.0,0.0,0.0,0.0,0.0,0.0,0.0,0.0,0.0,0.0,0.0,0.0,0.0,0.0,0.0,0.0,0.0,1.1427,1.208,1.2457,1.2147,1.2689,1.4804,1.6327,1.7702,1.9038,1.9367,2.0422,2.262,2.2846,2.3601,2.5348,2.6265,2.6746,2.6738,2.7879,2.8463,2.8434,2.9235,2.9583,2.9513,2.9808,2.9902,2.9787,2.979,2.9645,0.0,2.924,2.9017,2.8846,2.9927,3.1469,0.0,0.0,0.0,0.0,0.0,2.9431,2.977,0.0,0.0,0.0,0.0,0.0,0.0,0.0,0.4177,0.4015,0.3507,0.3181,0.3027,0.3071,0.3401,0.3709,0.3927,0.3662,0.3787,0.4529,0.0,0.0,0.4441,0.4123,0.3532,0.2667,0.2634,0.2062,0.0907,0.083,0.1175,0.1908,0.1739,0.1971,0.2548,0.286,0.3013,0.3105,0.3821,0.4072,0.3972,0.4023,0.4974,0.6279,0.5647,0.4735,0.3634,0.2454,0.1733,0.119,0.026,0.0,0.0,0.0,0.0,0.0,0.0,0.0,0.0,0.0,0.0,0.0,0.0,0.0,0.0,0.0,0.0,0.0,0.0,0.0,0.0,0.0,0.0,0.0,0.0,1.2277,1.2964,1.3585,1.3287,1.3558,1.5106,1.7914,1.9849,2.0178,2.0331,2.1078,2.2686,2.2893,2.3752,2.5553,0.0,0.0,0.0,0.0,2.9373,2.9458,3.0086,3.044,3.0511,3.0333,3.0228,3.0232,3.0019,2.9754,2.945,2.945,2.9508,2.9793,3.2384,3.3393,3.2985,2.9573,2.8062,2.8159,3.0563,3.1346,3.1004,0.0,0.0,0.0,0.0,0.0,0.0,0.0,0.4334,0.3781,0.2628,0.2093,0.21,0.2785,0.3026,0.3277,0.3643,0.3084,0.2671,0.2561,0.0,0.3256,0.3465,0.351,0.2928,0.1703,0.1615,0.0981,-0.0267,-0.0392,-0.026,0.0107,0.0172,0.025,0.0344,0.0882,0.131,0.1618,0.1777,0.2131,0.2538,0.2023,0.2743,0.4043,0.3273,0.2243,0.1144,0.0564,-0.0481,-0.1649,-0.206,-0.2184,-0.2103,-0.1811,0.0,0.0,0.0,0.0,0.0,0.0,0.0,0.0,0.0,0.0,0.0,0.0,0.0,0.0,0.0,0.0,0.0,0.0,0.0,0.0,1.2378,1.3189,1.3986,1.4691,1.4741,1.5306,1.6915,1.7254,1.8128,2.0096,2.1116,2.1987,2.2813,2.3538,2.4696,2.6444,2.7433,0.0,2.8965,2.9288,2.9763,3.0414,2.9932,2.9992,3.0581,0.0,0.0,3.0343,3.0142,2.9975,2.9787,2.9787,3.1089,3.321,3.3576,3.3444,3.2894,3.1888,3.1459,3.1393,3.1295,3.123,3.1157,0.0,0.0,0.0,0.0,0.0,0.0,0.0,0.4353,0.3958,0.3022,0.1999,0.1515,0.1956,0.2657,0.3235,0.3568,0.3012,0.2058,0.0,0.1141,0.1517,0.154,0.1317,0.076,-0.018,-0.017,-0.0641,-0.1652,-0.1716,-0.1567,-0.1202,-0.1272,-0.1267,-0.1179,-0.0707,-0.0366,-0.0138,0.0023,0.0114,0.0125,-0.0182,0.0054,0.0646,0.1082,0.0668,-0.0235,-0.0868,-0.174,-0.2672,-0.3099,-0.3301,-0.3321,-0.319,-0.2575,-0.1669,0.0,0.0,0.0,0.0,0.0,0.0,0.0,0.0,0.0,0.0,0.0,0.0,0.0,0.0,0.9952,1.0119,0.0,1.2087,1.2614,1.3773,1.4729,1.5135,1.5199,1.5701,1.7041,1.7191,1.8037,2.0141,2.0875,2.1501,2.2249,2.3101,2.4172,2.5532,2.6848,2.7942,2.8825,2.885,2.945,3.0696,2.9893,2.9893,3.0708,3.0619,3.056,3.05,3.0912,3.0729,3.0129,3.1616,3.2983,3.4173,3.3895,3.3559,3.3104,3.2852,3.2608,3.2319,3.1726,3.15,3.1462,0.0,0.0,0.0,0.0,0.0,0.0,0.0,0.4222,0.4146,0.304,0.1934,0.1239,0.1239,0.2412,0.3199,0.3216,0.2751,0.0,0.0,-0.0646,-0.0331,-0.0425,-0.0865,-0.1397,-0.2015,-0.1865,-0.2168,-0.2996,-0.2953,-0.2722,-0.233,-0.2527,-0.2533,-0.2381,-0.2041,-0.1829,-0.1695,-0.1386,-0.1542,-0.1996,-0.1952,-0.2144,-0.2336,-0.1057,-0.0838,-0.1328,-0.2245,-0.2789,-0.317,-0.3688,-0.4007,-0.4203,-0.422,-0.3838,-0.312,-0.1723,-0.1055,0.0,0.0,0.0,0.0,0.0,0.0,0.0,0.0,0.0,0.4834,0.5234,0.7698,0.9944,1.0494,1.1392,1.2242,1.2854,1.4222,1.5222,1.5274,1.5255,1.562,1.6714,1.7346,1.8325,1.9918,2.0274,2.0802,2.1731,2.2697,2.3727,2.4822,2.617,2.7302,2.8164,2.8034,2.8682,3.0224,2.959,2.97,3.0567,3.0661,3.0671,3.0649,3.166,3.1782,3.136,3.3658,3.4473,3.4173,3.3947,3.3671,3.3422,3.3196,3.2852,3.2457,3.2054,3.1873,3.1746,0.0,0.0,0.0,0.0,0.0,0.0,0.0,0.0,0.3906,0.0816,0.0973,0.1372,0.1372,0.2473,0.2829,0.191,0.0,0.0,-0.2333,-0.1975,-0.1655,-0.1608,-0.1504,-0.1897,-0.2849,-0.2566,-0.294,-0.404,-0.3855,-0.3672,-0.3516,-0.3427,-0.34,-0.3421,-0.3087,-0.2756,-0.2458,-0.2246,-0.2227,-0.2349,-0.2404,-0.2697,-0.3115,-0.3291,-0.3065,-0.2804,-0.3853,-0.4186,-0.4168,-0.4345,-0.4628,-0.4863,-0.4678,-0.4385,-0.3827,-0.2479,0.0,-0.0328,0.1046,0.2283,0.3273,0.3598,0.5094,0.6555,0.0,0.0,0.7749,0.8141,0.9027,1.0259,1.2089,1.252,1.2884,1.3711,1.4651,1.5265,1.5231,1.525,1.5704,1.685,1.7407,1.8011,1.8808,1.9862,2.0957,2.2064,2.3397,2.4883,2.6523,2.6806,2.73,2.8169,2.7459,2.7535,2.8566,2.8474,2.8865,2.9734,3.0396,3.07,3.073,3.1729,3.3184,3.4908,3.4831,3.4561,3.4197,3.4049,3.3815,3.3549,3.3238,3.3011,3.2787,3.2457,3.2107,3.18,0.0,0.0,0.0,0.0,0.0,0.0,0.0,0.0,0.0,0.0195,0.0346,0.0987,0.2035,0.2669,0.3052,0.3107,0.0,0.0,-0.3727,-0.345,-0.3268,-0.3476,-0.3516,-0.3739,-0.4146,-0.3992,-0.4116,-0.4548,-0.4427,-0.4314,-0.4218,-0.4129,-0.4079,-0.4047,-0.38,-0.3514,-0.3217,-0.2867,-0.2905,-0.3201,-0.2946,-0.306,-0.3441,-0.4077,-0.3802,-0.3254,-0.4552,-0.4892,0.0,0.0,-0.503,-0.485,-0.465,-0.4483,-0.4078,-0.2532,-0.1766,0.0,0.1323,0.3251,0.462,0.0,0.5363,0.6248,0.6845,0.7408,0.7941,0.8374,0.9071,1.0217,1.2268,1.2666,1.2997,0.0,1.434,1.476,1.5202,1.5327,1.5523,1.6002,1.6237,1.6953,1.8496,1.9737,2.0617,2.1065,2.2142,2.3302,2.4514,2.5084,2.6001,2.7348,2.6573,2.6805,2.817,2.7752,2.824,2.9609,2.9877,3.0267,3.0792,3.2167,3.3409,3.4518,3.4735,3.4312,3.3543,3.3464,3.3271,3.3038,3.2783,3.2829,3.2983,3.2558,3.2284,3.2143,0.0,0.0,0.0,0.0,0.0,0.0,0.0,0.0,0.0,0.0,0.0,0.05,0.1806,0.227,0.2918,0.0,0.0,0.0,0.0,-0.4507,-0.4447,-0.4766,-0.4948,0.0,-0.5001,-0.4978,-0.4933,-0.4886,-0.4842,-0.4781,-0.4735,-0.4669,-0.4615,-0.4552,-0.4358,-0.4102,-0.3811,-0.3403,-0.3418,-0.3678,-0.3248,-0.321,-0.3471,-0.4015,-0.3829,-0.3466,-0.4805,-0.5002,0.0,0.0,-0.4915,-0.4489,-0.4341,-0.4262,-0.3885,-0.215,-0.125,-0.0312,0.2014,0.3819,0.5049,0.5049,0.5098,0.5377,0.6301,0.7012,0.7621,0.8187,0.8932,0.9984,1.154,1.215,1.27,1.3474,1.369,1.4023,1.4849,1.5004,1.5124,1.5377,1.5404,1.6108,1.7933,1.9425,2.0276,2.0261,2.1094,2.1975,2.284,2.3535,2.4578,2.6062,2.555,2.5957,2.7412,2.714,2.7741,2.9236,2.9422,2.9955,3.0852,3.222,3.2997,3.3288,3.3963,3.3619,3.2618,3.2716,3.2618,3.2428,3.2206,3.2418,3.2816,3.2355,3.2281,3.2371,0.0,0.0,0.0,0.0,0.0,0.0,0.0,0.0,0.0,0.0,0.0,0.0,0.0,0.0,0.0,0.0,0.0,0.0,0.0,-0.4901,-0.4842,-0.4979,-0.5066,-0.5069,-0.5002,-0.5069,-0.5084,-0.5091,-0.5091,-0.5092,-0.5078,-0.5014,-0.4993,-0.4976,-0.4775,-0.449,-0.417,-0.3899,-0.3666,-0.3482,-0.3138,-0.3078,-0.3202,-0.3093,-0.3227,-0.3629,-0.4644,0.0,0.0,0.0,-0.4067,-0.3818,-0.3744,-0.3636,0.0,-0.1294,0.064,0.2332,0.3062,0.0,0.3875,0.3924,0.4097,0.4463,0.5349,0.6359,0.7346,0.8131,0.8932,0.9583,0.9835,1.089,1.1939,1.2541,1.2757,1.3137,1.4011,1.4136,1.4449,1.5302,1.539,1.5789,0.0,1.8769,2.0039,2.0095,2.0913,2.1809,2.2759,2.2893,2.3385,2.4358,2.4352,2.4793,2.5769,2.6598,2.7457,2.8357,2.9127,2.9965,3.0827,3.1598,3.1922,3.189,3.257,3.2282,3.1381,3.1902,3.2004,3.1786,3.1464,3.1737,3.2281,3.1852,3.2004,3.2388,0.0,0.0,0.0,0.0,0.0,0.0,0.0,0.0,0.0,0.0,0.0,0.0,0.0,0.0,0.0,0.0,0.0,0.0,0.0,-0.4913,-0.4865,-0.499,-0.4986,-0.4983,-0.4991,-0.5016,-0.5058,-0.5099,-0.5097,-0.5097,-0.5097,-0.5037,-0.5,-0.4993,-0.4923,-0.4617,-0.4102,-0.3712,-0.3266,-0.2793,-0.2279,-0.2128,-0.22,-0.2263,-0.2172,-0.2114,0.0,0.0,0.0,0.0,-0.3188,-0.2607,-0.2221,-0.1954,-0.1363,0.0742,0.218,0.3249,0.3969,0.4309,0.4354,0.3937,0.4325,0.4952,0.5558,0.5741,0.5507,0.457,0.5554,0.6941,0.8126,0.9018,1.0075,1.1617,1.1905,1.2246,1.3119,1.3743,1.4413,1.529,1.539,0.0,0.0,0.0,0.0,1.8411,1.927,2.0178,2.1022,2.1185,2.2175,2.4234,2.4302,2.4749,2.5683,2.5993,2.6574,2.7446,2.8884,3.0306,3.1675,3.1863,3.1933,3.1909,3.2574,3.2327,3.1432,3.1466,3.1392,3.1182,3.0968,3.088,3.0878,3.1247,3.133,3.1395,0.0,0.0,0.0,0.0,0.0,0.0,0.0,0.0,0.0,0.0,0.0,0.0,0.0,0.0,0.0,0.0,0.0,0.0,0.0,0.0,-0.481,-0.4816,-0.4801,-0.4791,-0.4792,-0.4841,-0.488,-0.4915,-0.5018,-0.5056,-0.5025,-0.4987,-0.4956,-0.4923,-0.4935,-0.4495,-0.3715,-0.3225,-0.2633,-0.1993,-0.1525,-0.1262,-0.1126,-0.1076,-0.0828,0.0,0.0,0.0,0.0,-0.2128,-0.1863,-0.1163,-0.0717,-0.0029,0.0915,0.2314,0.3385,0.4185,0.4572,0.4631,0.4515,0.4191,0.4426,0.4407,0.3234,0.3206,0.3285,0.2851,0.3821,0.5176,0.6584,0.7619,0.8734,1.0182,1.0714,1.1373,1.2629,1.3274,1.4076,1.5253,1.5383,1.5331,0.0,0.0,0.0,1.7572,1.8703,1.9658,2.0212,2.0346,2.1468,2.3802,2.3863,2.446,2.5694,2.5707,2.613,2.7022,2.8457,2.9693,3.0755,3.0998,3.1078,3.108,3.1465,3.1293,3.0683,3.0196,2.9893,2.9723,2.9852,2.9688,2.954,3.0479,3.0698,3.0649,0.0,0.0,0.0,0.0,0.0,0.0,0.0,0.0,0.0,0.0,0.0,0.0,0.0,0.0,0.0,0.0,0.0,0.0,0.0,0.0,0.0,-0.4526,-0.4563,-0.4523,-0.441,-0.4539,-0.4565,-0.4498,-0.4833,-0.4976,-0.4898,-0.4906,-0.486,-0.4814,-0.4784,-0.4094,-0.2873,-0.2424,-0.1798,-0.1104,-0.0906,-0.0502,0.0,0.0382,0.0,0.0,0.0,0.0,0.0,0.0,-0.0122,0.049,0.0829,0.2115,0.3493,0.3448,0.4301,0.5185,0.4882,0.4486,0.4208,0.4483,0.4155,0.274,-0.1204,-0.0847,0.0864,0.2824,0.3647,0.4282,0.0,0.0,0.7861,0.8352,0.924,1.0545,1.2463,1.2775,1.3412,0.0,0.0,0.0,0.0,0.0,0.0,1.7699,0.0,2.0185,2.0241,2.0308,2.1181,2.2976,2.3072,2.3913,2.562,2.5679,2.6143,2.7012,2.7832,2.8258,2.8327,2.9082,2.9435,2.9435,2.9376,2.929,2.9159,2.8213,2.7723,2.7663,2.8175,2.8276,2.8297,2.9625,3.005,3.0124,0.0,0.0,0.0,0.0,0.0,0.0,0.0,0.0,0.0,0.0,0.0,0.0,0.0,0.0,0.0,0.0,0.0,0.0,0.0,0.0,0.0,0.0,0.0,0.0,0.0,0.0,0.0,0.0,0.0,-0.4989,-0.4977,-0.4925,-0.4893,0.0,-0.4724,-0.3051,-0.0377,-0.0943,-0.0778,-0.0131,0.0,0.0501,0.0792,0.0,0.0,0.0,0.0,0.0,0.0,0.0,0.0,0.0,0.3764,0.4425,0.4763,0.53,0.5582,0.5611,0.5087,0.4183,0.3238,0.2672,0.1631,0.0196,-0.1789,-0.1582,-0.0577,0.0736,0.1911,0.2839,0.0,0.0,0.0,0.7419,0.8613,0.0,1.161,1.2301,0.0,1.422,0.0,1.5457,1.6208,1.7265,0.0,0.0,1.92,1.9464,1.9487,1.9536,2.0364,2.2079,2.2767,2.3637,2.4715,2.5388,2.6142,2.6991,2.7225,2.7675,2.8301,2.8511,2.8583,2.8522,2.8505,2.8462,2.8392,2.8086,2.7903,2.7822,2.7854,2.7751,2.7643,2.8539,2.8759,2.8719,0.0,0.0,0.0,0.0,0.0,0.0,0.0,0.0,0.0,0.0,0.0,0.0,0.0,0.0,0.0,0.0,0.0,0.0,0.0,0.0,0.0,0.0,0.0,0.0,0.0,0.0,0.0,0.0,0.0,0.0,0.0,-0.3814,-0.3429,-0.276,-0.2821,-0.1537,0.0681,0.0,0.0,0.0,0.0,0.0,0.0,0.0,0.0,0.0,0.0,0.0,0.0,0.0,0.0,0.4095,0.5176,0.5525,0.5597,0.6091,0.0,0.5934,0.5223,0.409,0.2773,0.1397,0.0255,-0.0882,-0.2182,-0.1862,-0.108,-0.0373,0.0774,0.0,0.2387,0.4,0.0,0.0,0.0,0.0,1.1256,1.1978,1.2838,0.0,1.4854,0.0,1.5924,1.7151,1.8097,0.0,1.9373,1.9798,1.9762,1.9824,2.0488,2.1793,2.2311,2.3161,2.4388,2.5254,2.5947,2.6423,2.6424,2.6699,2.7163,2.7551,2.7705,2.7665,0.0,2.7644,2.7551,2.7122,2.6907,2.6869,2.708,2.6847,2.6515,2.76,2.7893,2.7848,0.0,0.0,0.0,0.0,0.0,0.0,0.0,0.0,0.0,0.0,0.0,0.0,0.0,0.0,0.0,0.0,0.0,0.0,0.0,0.0,0.0,0.0,0.0,0.0,0.0,0.0,0.0,0.0,0.0,0.0,0.0,0.0,0.0,0.0,0.0,0.0,0.0,0.0,0.0,0.0,0.0,0.0,0.0,0.0,0.0,0.0,0.0,0.0,0.0,0.0,0.5675,0.5312,0.5651,0.5802,0.5898,0.6073,0.6087,0.5835,0.4999,0.3828,0.2365,0.053,-0.0355,-0.112,-0.23,-0.1736,-0.0911,-0.0719,0.0,0.1219,0.1953,0.32,0.4336,0.5048,0.0,0.8324,1.1094,1.1645,1.2595,1.4809,1.5075,1.5159,1.5339,1.6793,1.7804,1.8039,1.9517,2.0442,2.0492,2.0566,2.0995,2.1851,2.1884,2.2699,2.4378,2.516,2.5593,2.5699,2.5703,2.5703,2.5722,2.6483,2.6833,2.6832,0.0,0.0,2.6677,2.5916,2.5565,2.557,2.6129,2.589,2.5384,2.6816,2.7277,2.7282,0.0,0.0,0.0,0.0,0.0,0.0,0.0,0.0,0.0,0.0,-0.0984,0.1103,0.0,0.0,0.0,0.0,0.0,0.0,0.0,0.0,0.0,0.0,0.0,0.0,0.0,0.0,0.0,0.0,0.0,0.0,0.0,0.0,0.0,0.0,0.0,0.0,0.0,0.0,0.0,0.0,0.0,0.0,0.0,0.0,0.0,0.0,0.0,0.0,0.0,0.0,0.5275,0.5093,0.5799,0.5647,0.5174,0.5214,0.4905,0.4355,0.3377,0.2227,0.1068,0.0227,-0.0667,-0.1461,-0.1786,-0.1093,0.0,0.0,0.0519,0.1093,0.1395,0.2377,0.3417,0.4255,0.0,0.0,0.0,0.0,1.2093,0.0,0.0,0.0,0.0,0.0,0.0,0.0,0.0,1.9759,2.0465,2.0566,2.097,2.1787,2.1813,2.265,2.4378,2.4553,2.4985,2.5691,2.5702,2.5693,2.5712,2.5858,2.5935,2.5925,2.5935,0.0,2.5896,2.574,2.5643,2.5582,2.5645,2.55,2.5399,2.6278,2.6587,2.665,0.0,0.0,0.0,0.0,0.0,0.0,0.0,-0.0086,-0.1949,-0.3585,-0.1923,-0.0562,-0.0502,-0.0993,-0.1649,0.0,0.0,0.0,0.0,0.0,0.0,0.0,0.0,0.0,0.0,0.0,0.0,0.0,0.0,0.0,0.0,0.0,0.0,0.0,0.0,0.0,0.0,0.0,0.0,0.0,0.0,0.0,0.0,0.0,0.0,0.0,0.0,0.0,0.0,0.0,0.5384,0.4967,0.5274,0.4967,0.4479,0.4568,0.4153,0.3582,0.3215,0.1989,0.0736,0.0483,-0.0704,-0.1938,-0.2382,0.0,0.0,0.0,0.1082,0.1217,0.1731,0.2173,0.0,0.3695,0.4738,0.0,0.0,0.0,0.0,0.0,0.0,0.0,0.0,0.0,0.0,0.0,0.0,2.0013,2.0489,2.0566,2.0788,2.1165,2.1622,2.225,2.309,2.3958,2.4606,2.5038,2.5482,2.5705,2.5698,2.5694,2.5699,2.57,2.5703,0.0,2.5699,2.5705,2.5655,2.561,2.557,2.5483,2.5432,2.5765,2.6135,2.655,0.0,0.0,0.0,0.0,0.0,0.0,0.0,-0.0862,-0.2612,-0.3037,-0.2807,-0.2329,-0.1625,-0.1169,-0.1036,0.0,0.0,0.0,0.0,0.0,0.0,0.0,0.0,0.0,0.0,0.0,0.0,0.0,0.0,0.0,0.0,0.0,0.0,0.0,0.0,0.0,0.0,0.0,0.0,0.0,0.0,0.0,0.0,0.0,0.0,0.0,0.0,0.0,0.0,0.0,0.519,0.4603,0.4313,0.3993,0.3706,0.3506,0.3132,0.2773,0.2761,0.175,0.0622,0.0351,-0.0872,-0.2081,-0.2441,-0.1335,0.0,0.1636,0.1563,0.1478,0.2286,0.0,0.2668,0.0,0.4604,0.5988,0.0,0.0,0.0,0.0,0.0,0.0,0.0,0.0,0.0,0.0,0.0,0.0,2.0499,2.0547,2.0593,2.0609,2.1253,2.169,2.1905,2.3201,2.4043,2.4408,2.4892,2.5332,2.569,2.5505,2.5519,2.5703,2.5703,0.0,0.0,2.5697,2.5661,2.559,2.5396,2.5284,2.5212,2.4954,2.5387,2.6073,0.0,0.0,0.0,0.0,0.0,0.0,0.0,-0.0687,-0.2684,-0.4463,-0.3465,-0.2361,-0.1754,-0.1265,-0.0884,0.0,0.0,0.0,0.0,0.0,0.0,0.0,0.0,0.0,0.0,0.0,0.0,0.0,0.0,0.0,0.0,0.0,0.0,0.0,0.0,0.0,0.0,0.0,0.0,0.0,0.0,0.0,0.0,0.0,0.0,0.0,0.0,0.0,0.0,0.0,0.0,0.3681,0.2876,0.2755,0.2672,0.1388,0.0,0.0,0.0583,0.052,0.0291,-0.1061,-0.1528,-0.1406,-0.0503,0.0,0.0839,0.1371,0.1567,0.1921,0.2761,0.3064,0.3461,0.0,0.0,0.6245,0.0,0.0,0.0,0.0,0.0,0.0,0.0,0.0,0.0,0.0,0.0,0.0,2.0492,2.0508,2.0539,2.0591,2.0614,2.1035,2.1894,2.2046,2.289,2.4399,2.3683,2.4167,2.5673,2.4874,2.4944,2.5698,2.5703,0.0,0.0,2.5702,2.5699,2.5605,2.4757,2.4417,2.4316,2.345,2.3683,2.4419,0.0,0.0,0.0,0.0,0.0,0.0,0.0673,-0.0422,-0.1887,-0.4453,-0.414,-0.3422,-0.2742,-0.1987,-0.1135,-0.0107,0.0,0.0,0.0,0.0,0.0,0.0,0.0,0.0,0.0,0.0,0.0,0.0,0.0,0.0,0.0,0.0,0.0,0.0,0.0,0.0,0.0,0.0,0.0,0.0,0.0,0.0,0.0,0.0,0.0,0.0,0.0,0.0,0.0,0.0,0.0,0.0,0.3483,0.2754,0.0,0.0,0.0727,0.0314,0.0344,-0.0189,-0.072,-0.066,-0.0646,-0.0363,0.0605,0.0,0.1344,0.2204,0.2135,0.232,0.3616,0.3492,0.3588,0.0,0.0,0.0,0.8114,0.0,0.0,0.0,0.0,0.0,0.0,0.0,0.0,0.0,0.0,0.0,2.0379,2.0474,2.0507,2.0546,2.0558,2.0749,2.1112,2.1641,2.2206,2.2849,2.3021,2.3458,2.4144,2.4325,2.4583,2.4944,2.5463,0.0,0.0,2.5702,2.5391,2.4878,2.4512,2.4365,2.4316,2.3892,2.4294,2.5038,0.0,0.0,0.0,0.0,0.0,0.271,0.0187,-0.0524,-0.169,-0.4238,-0.4399,-0.3998,-0.3322,-0.23,-0.1177,0.002,0.0841,0.0,0.0,0.0,0.0,0.0,0.0,0.0,0.0,0.0,0.0,0.0,0.0,0.0,0.0,0.0,0.0,0.0,0.0,0.0,0.0,0.0,0.0,0.0,0.0,0.0,0.0,0.0,0.0,0.0,0.0,0.0,0.0,0.0,0.0,0.0,0.0,0.0,0.0,0.0,0.0195,-0.0873,-0.0295,-0.0808,-0.1373,-0.061,-0.0314,0.009,0.0,0.0,0.1924,0.2826,0.2695,0.2877,0.4287,0.4156,0.4205,0.0,0.0,0.6681,0.7886,0.0,0.0,0.0,0.0,0.0,0.0,0.0,0.0,0.0,0.0,0.0,0.0,2.0289,2.0484,2.0494,2.0566,2.0601,2.0601,2.1209,2.1616,2.1835,2.218,2.2596,2.3104,2.3461,2.3779,2.4052,0.0,0.0,0.0,2.5597,2.519,2.4394,2.4392,2.4245,2.4018,2.3949,2.4499,2.5249,0.0,0.0,0.0,0.0,0.0,0.0,0.0081,-0.116,-0.2473,-0.4091,-0.4074,-0.369,-0.3157,-0.1914,-0.0888,-0.0339,0.0688,0.0,0.0,0.0,0.0,0.0,0.0,0.0,0.0,0.0,0.0,0.0,0.0,0.0,0.0,0.0,0.0,0.0,0.0,0.0,0.0,0.0,0.0,0.0,0.0,0.0,0.0,0.0,0.0,0.0,0.0,0.0,0.0,0.0,0.0,0.0,0.0,0.0,0.0,0.0,-0.0752,-0.2507,-0.1776,-0.1481,-0.1385,-0.1387,-0.1032,-0.0314,0.0,0.1966,0.2592,0.2941,0.3111,0.3535,0.4691,0.5209,0.565,0.6191,0.0,0.0,0.7524,0.0,0.0,0.0,0.0,0.0,0.0,0.0,0.0,0.0,0.0,0.0,0.0,1.993,2.0434,2.0506,2.0564,2.0605,2.0601,2.0605,2.1049,2.1883,2.0965,2.1427,2.3074,2.223,2.2308,0.0,0.0,0.0,0.0,2.5334,2.5183,2.4405,2.4401,2.3861,2.3104,2.3105,2.3668,2.4419,0.0,0.0,0.0,0.0,0.0,0.0,0.0,-0.0475,-0.1604,-0.3453,-0.3297,-0.2986,-0.2899,-0.1652,-0.0738,-0.0526,0.0521,0.0,0.0,0.0,0.0,0.0,0.0,0.0,0.0,0.0,0.0,0.3528,0.4204,0.0,0.0,0.0,0.0,0.0,0.0,0.0,0.0,0.0,0.0,0.0,0.0,0.0,0.0,0.0,0.0,0.0,0.0,0.0,0.0,0.0,0.0,0.0,0.0,0.0,0.0,0.316,0.101,-0.1381,-0.3746,-0.3207,-0.1839,-0.1478,-0.0195,0.109,0.138,0.1867,0.2406,0.3011,0.3329,0.3796,0.4908,0.5272,0.5823,0.7054,0.7404,0.0,0.0,0.0,0.0,0.0,0.0,0.0,0.0,0.0,0.0,0.0,0.0,0.0,0.0,1.9908,2.0434,2.05,2.0525,2.0559,2.0604,2.0596,2.0747,2.1004,2.0707,2.0859,2.1403,2.1676,0.0,0.0,0.0,0.0,0.0,2.4699,2.4298,2.351,2.351,2.2984,2.2207,2.2218,2.277,2.3592,0.0,0.0,0.0,0.0,0.0,0.0,0.0,-0.0216,-0.1259,-0.285,-0.2529,-0.2237,-0.2476,-0.1178,-0.035,-0.0516,0.0379,0.0,0.0,0.0,0.0,0.0,0.0,0.0,0.0,0.3176,0.3585,0.3039,0.3852,0.4398,0.4679,0.4665,0.0,0.0,0.0,0.0,0.0,0.0,0.0,0.0,0.0,0.0,0.2355,0.0,0.0,0.0,0.0,0.0,0.0,0.0,0.0,0.0,0.0,0.0,0.0,0.0,0.2402,0.0079,0.0,-0.2851,-0.1367,-0.1257,0.0315,0.1713,0.1504,0.0,0.2672,0.3203,0.3707,0.4304,0.5203,0.5517,0.5991,0.7107,0.7383,0.0,0.0,0.0,0.0,0.0,0.0,0.0,0.0,0.0,0.0,0.0,0.0,0.0,0.0,1.9188,1.9906,1.9966,2.0321,2.0523,2.0555,2.0586,2.0603,2.0593,2.0568,2.0564,2.0579,2.1087,0.0,0.0,0.0,0.0,0.0,2.3781,2.3593,2.3135,2.3455,2.3062,2.2322,2.2667,2.2927,2.3187,0.0,0.0,0.0,0.0,0.0,0.0,0.0,-0.031,-0.1374,-0.2302,-0.183,-0.1516,-0.1842,-0.0483,0.0242,-0.0268,0.0,0.0,0.0,0.0,0.0,0.0,0.0,0.0,0.0,0.3435,0.3491,0.2573,0.3439,0.4024,0.4316,0.4086,0.43,0.4865,0.0,0.0,0.0,0.0,0.0,0.0,0.2411,0.2669,0.0,0.0,0.0,0.0,0.0,0.0,0.0,0.0,0.0,0.0,0.0,0.0,0.0,0.0,0.0,0.0,0.0,-0.0812,-0.0142,-0.0652,0.0561,0.1775,0.1584,0.0,0.0,0.3513,0.4172,0.4928,0.5596,0.5868,0.6149,0.6626,0.0,0.0,0.0,0.0,0.0,0.0,0.0,0.0,0.0,0.0,0.0,0.0,0.0,0.0,0.0,1.7922,1.893,1.8996,1.9858,2.0366,2.0501,2.0441,2.0445,2.0515,2.0447,2.0402,2.0414,2.047,0.0,0.0,0.0,0.0,0.0,2.2699,2.3032,2.316,2.3929,2.3712,2.3108,2.3855,2.3614,2.2925,0.0,0.0,0.0,0.0,0.0,0.0,0.0,0.0,0.0,0.0,-0.1533,-0.1197,-0.0684,0.0265,0.0764,0.0,0.0,0.0,0.0,0.0,0.0,0.0,0.0,0.0,0.0,0.2283,0.2374,0.2291,0.2457,0.2564,0.2597,0.2725,0.309,0.3669,0.4503,0.3476,0.1086,0.0,0.0,0.0,0.2191,0.2362,0.0,0.0,0.0,0.0,0.3329,0.3777,0.0,0.0,0.0,0.0,0.0,0.0,0.0,0.0,0.3571,0.2461,0.1277,0.0,0.0054,0.0389,0.1399,0.2325,0.0,0.0,0.0,0.0,0.0,0.5097,0.5624,0.5908,0.6447,0.7571,0.0,0.0,0.0,0.0,0.0,0.0,0.0,0.0,0.0,0.0,0.0,0.0,0.0,0.0,0.0,1.7103,1.7824,1.7941,1.8274,1.9104,2.0494,1.9244,1.8941,1.9606,1.96,1.9578,1.96,2.0224,0.0,0.0,0.0,0.0,2.1914,2.2045,2.2502,2.3049,2.2594,2.2286,2.2053,2.159,2.1282,2.1211,0.0,0.0,0.0,0.0,0.0,0.0,0.0,0.0,0.0,0.0,0.0,-0.1114,-0.0368,0.0347,0.0,0.0,0.0,0.0,0.0,0.0,0.0,0.0,0.0,0.0,0.0941,0.1536,0.1528,0.0867,0.1292,0.1584,0.1733,0.1966,0.2463,0.321,0.4383,0.392,0.2153,0.0631,0.0709,0.1877,0.2521,0.0,0.0,0.0,0.0,0.0,0.307,0.3604,0.0,0.4336,0.4829,0.5477,0.0,0.0,0.0,0.0,0.3921,0.3191,0.2771,0.1844,0.1017,0.1088,0.2044,0.2932,0.292,0.0,0.0,0.0,0.0,0.0,0.5908,0.6046,0.0,0.0,0.0,0.0,0.0,0.0,0.0,0.0,0.0,0.0,0.0,0.0,0.0,0.0,0.0,0.0,0.0,1.6163,1.6819,1.6954,1.7066,1.7808,1.9247,1.8384,1.8208,1.8703,1.8707,1.8704,1.8712,1.9146,1.96,0.0,0.0,0.0,2.1308,2.1226,2.1956,2.3043,2.2559,2.2343,2.228,2.1828,2.1148,2.0538,0.0,0.0,0.0,0.0,0.0,0.0,0.0,0.0,0.0,0.0,0.0,0.0,0.0,0.0,0.0,0.0,0.0,0.0,0.0,0.0,0.0,0.0,0.0,-0.0061,-0.0478,0.0655,0.0577,-0.0805,-0.0009,0.0563,0.0905,0.1187,0.1939,0.3101,0.4086,0.4608,0.4531,0.1839,0.0826,0.118,0.309,0.0,0.0,0.0,0.0,0.0,0.0,0.0,0.0,0.4357,0.4719,0.523,0.5634,0.0,0.0,0.0,0.0,0.0,0.37,0.3059,0.2359,0.1885,0.2653,0.346,0.299,0.0,0.0,0.0,0.0,0.0,0.0,0.0,0.0,0.0,0.0,0.0,0.0,0.0,0.0,0.0,0.0,0.0,0.0,0.0,0.0,0.0,0.0,0.0,0.0,1.5191,1.5787,1.5941,1.6029,1.6497,1.7365,1.7466,1.7602,1.7796,1.7793,1.7861,1.7988,1.8122,1.8659,0.0,0.0,0.0,2.0605,2.054,2.146,2.2881,2.2682,2.2698,2.2785,2.2652,2.1662,2.0434,0.0,0.0,0.0,0.0,0.0,0.0,0.0,0.0,0.0,0.0,0.0,0.0,0.0,0.0,0.0,0.0,0.0,0.0,0.0,0.0,0.0,0.0,-0.1935,-0.2234,-0.1819,-0.1442,-0.1262,-0.1295,-0.1428,-0.1453,-0.1382,-0.0728,0.0751,0.285,0.2853,0.3247,0.389,0.3888,0.3161,0.211,0.3556,0.0,0.0,0.0,0.0,0.0,0.0,0.0,0.0,0.3695,0.4307,0.4997,0.4726,0.0,0.0,0.0,0.0,0.0,0.406,0.3834,0.3592,0.34,0.3434,0.3573,0.0,0.0,0.0,0.0,0.0,0.0,0.0,0.0,0.0,0.0,0.0,0.0,0.0,0.0,0.0,0.0,0.0,0.0,0.0,0.0,0.0,0.0,0.0,0.0,0.0,1.4172,1.4502,1.4762,1.4945,1.5169,1.5434,1.5603,1.6064,1.6809,1.6817,1.7209,1.7932,1.8679,1.9497,0.0,0.0,2.0485,2.0604,2.059,2.114,2.1929,2.1189,2.1298,2.1818,2.1069,2.0632,2.0501,0.0,0.0,0.0,0.0,0.0,0.0,0.0,0.0,0.0,0.0,0.0,0.0,0.0,0.0,0.0,0.0,0.0,0.0,0.0,0.0,0.0,-0.3157,-0.3614,-0.3471,-0.2659,-0.2404,-0.2442,-0.2755,-0.2645,-0.2551,-0.2408,-0.0831,0.0322,0.1125,0.2378,0.3098,0.3387,0.3681,0.3225,0.2404,0.0,0.0,0.0,0.0,0.0,0.0,0.0,0.0,0.0,0.0,0.4166,0.4909,0.476,0.0,0.0,0.0,0.0,0.0,0.4412,0.4319,0.4298,0.4213,0.4056,0.0,0.0,0.0,0.0,0.0,0.0,0.0,0.0,0.0,0.0,0.0,0.0,0.0,0.0,0.0,0.0,0.0,0.0,0.0,0.0,0.0,0.0,0.0,0.0,0.0,0.0,0.0,1.3495,1.3687,1.4336,1.4757,1.4883,1.5068,1.5383,1.584,1.5829,1.6312,1.721,1.7602,1.852,1.9807,0.0,2.0168,2.0605,2.0559,2.1033,2.1756,2.1321,2.1367,2.1579,2.0687,2.0377,2.0452,0.0,0.0,0.0,0.0,0.0,0.0,0.0,0.0,0.0,0.0,0.0,0.0,0.0,0.0,0.0,0.0,0.0,0.0,0.0,0.0,-0.3801,-0.4622,-0.4719,-0.4449,-0.3802,-0.338,-0.3546,-0.4314,-0.3889,-0.3474,-0.3071,-0.1257,-0.0231,0.0165,0.1793,0.277,0.3203,0.3235,0.2942,0.2521,0.0,0.0,0.0,0.0,0.0,0.0,0.0,0.0,0.0,0.0,0.0,0.0,0.0,0.0,0.0,0.5346,0.5259,0.5247,0.4792,0.4777,0.485,0.4768,0.0,0.0,0.0,0.0,0.0,0.0,0.0,0.0,0.0,0.0,0.0,0.0,0.0,0.0,0.0,0.0,0.0,0.0,0.0,0.0,0.0,0.0,0.0,0.0,0.0,0.0,0.0,0.0,1.2573,1.2927,1.3771,1.4399,1.4729,1.4857,1.5018,1.5185,1.5182,1.5681,1.6575,1.6794,1.7734,1.9218,1.947,1.9846,2.0311,2.0465,2.0781,2.1204,2.1336,2.1385,2.1281,2.0553,2.0308,2.0359,0.0,0.0,0.0,0.0,0.0,0.0,0.0,0.0,0.0,0.0,0.0,0.0,0.0,0.0,0.0,0.0,0.0,0.0,0.0,0.0,-0.4141,-0.4766,-0.5085,-0.5424,-0.579,-0.498,-0.4892,-0.5571,-0.523,-0.461,-0.3716,-0.3317,-0.145,0.1507,0.0635,0.1443,0.3485,0.3674,0.3254,0.2585,0.3656,0.0,0.0,0.0,0.0,0.0,0.0,0.0,0.0,0.0,0.0,0.0,0.0,0.0,0.6547,0.5726,0.5414,0.5389,0.5272,0.5241,0.5246,0.5271,0.0,0.0,0.0,0.0,0.0,0.0,0.0,0.0,0.0,0.0,0.0,0.0,0.0,0.0,0.0,0.0,0.0,0.0,0.0,0.0,0.0,0.0,0.0,0.0,0.0,0.0,0.0,0.0,0.0,1.278,1.2999,1.3566,1.4504,1.466,1.4839,1.5106,1.517,1.5664,1.654,1.7408,1.8325,1.925,2.0065,2.0031,1.9469,2.0264,2.0121,1.9458,2.0204,2.046,2.0388,2.0269,2.0215,2.0231,0.0,0.0,0.0,0.0,0.0,0.0,0.0,0.0,0.0,0.0,0.0,0.0,0.0,0.0,0.0,0.0,0.0,0.0,0.0,0.0,-0.5402,-0.6138,-0.6206,-0.6399,-0.6749,-0.6429,-0.641,-0.6748,-0.579,-0.4594,-0.3154,-0.1969,-0.0515,0.1106,0.1713,0.2488,0.334,0.3611,0.3399,0.2952,0.3806,0.4171,0.0,0.0,0.0,0.0,0.0,0.0,0.0,0.0,0.5194,0.6155,0.5797,0.6182,0.665,0.6276,0.6117,0.6086,0.615,0.6173,0.6167,0.6081,0.0,0.0,0.0,0.0,0.0,0.0,0.0,0.0,0.0,0.0,0.0,0.0,0.0,0.0,0.0,0.0,0.0,0.0,0.0,0.0,0.0,0.0,0.0,0.0,0.0,0.0,0.0,0.0,0.0,1.0977,1.213,1.3015,1.355,1.4191,1.4631,1.4839,1.5007,1.5581,1.6513,1.6914,1.7562,1.8403,1.879,1.9075,1.9334,1.966,1.9887,2.0032,2.0254,2.0321,2.0299,2.0262,2.0265,2.0273,0.0,0.0,0.0,0.0,0.0,0.0,0.0,0.0,0.0,0.0,0.0,0.0,0.0,0.0,0.0,0.0,0.0,0.0,0.0,-0.5346,-0.6085,-0.6862,-0.7043,-0.7349,-0.7817,-0.7831,-0.764,-0.7278,-0.6233,-0.4874,-0.3227,-0.1333,-0.0118,0.0551,0.2212,0.2989,0.3096,0.3456,0.3474,0.3311,0.3973,0.424,0.0,0.0,0.0,0.0,0.0,0.0,0.0,0.0,0.5592,0.6324,0.6212,0.6563,0.7032,0.7017,0.6907,0.6824,0.7107,0.721,0.721,0.0,0.0,0.0,0.0,0.0,0.0,0.0,0.0,0.0,0.0,0.0,0.0,0.0,0.0,0.0,0.0,0.0,0.0,0.0,0.0,0.0,0.0,0.0,0.0,0.0,0.0,0.0,0.0,0.0,0.0,0.0,1.1079,1.2122,1.2872,1.3582,1.4176,1.4608,1.4811,1.5312,1.608,1.6408,1.6914,1.7509,1.7823,1.8154,1.8513,1.9076,1.9768,2.0452,2.034,2.026,2.0219,2.0233,2.0225,2.0208,0.0,0.0,0.0,0.0,0.0,0.0,0.0,0.0,0.0,0.0,0.0,0.0,0.0,0.0,0.0,0.0,0.0,0.0,0.0,-0.5306,-0.5949,-0.6681,-0.7418,-0.8231,-0.916,-0.9171,-0.8462,-0.6999,-0.6597,-0.5668,-0.4229,-0.2034,-0.0642,0.0079,0.1685,0.2556,0.284,0.3238,0.3481,0.3647,0.4119,0.4347,0.4463,0.0,0.0,0.0,0.0,0.0,0.0,0.0,0.6073,0.7046,0.6653,0.7065,0.7733,0.7875,0.7675,0.7545,0.8079,0.835,0.844,0.0,0.0,0.0,0.0,0.0,0.0,0.0,0.0,0.0,0.0,0.0,0.0,0.0,0.0,0.0,0.0,0.0,0.0,0.0,0.0,0.0,0.0,0.0,0.0,0.0,0.0,0.0,0.0,0.0,0.0,0.0,0.9788,1.0758,1.256,1.2857,1.3455,1.4379,1.459,1.483,1.5138,1.606,1.6517,1.6642,1.7493,1.7421,1.683,1.8571,1.9734,2.0388,2.0321,2.0175,2.0011,2.0079,2.0069,2.0011,0.0,0.0,0.0,0.0,0.0,0.0,0.0,0.0,0.0,0.0,0.0,0.0,0.0,0.0,0.0,0.0,0.0,0.0,-0.5199,-0.5908,-0.6588,-0.7241,-0.784,-0.8075,-0.7939,-0.743,-0.7088,-0.6924,-0.6478,-0.5209,-0.3138,-0.1586,-0.0275,0.0819,0.0,0.2796,0.3243,0.3652,0.384,0.3912,0.4231,0.4603,0.4969,0.0,0.0,0.0,0.0,0.0,0.0,0.0,0.0,0.0,0.7653,0.8187,0.8866,0.8822,0.8942,0.9131,0.9298,0.9372,0.0,0.0,0.0,0.0,0.0,0.0,0.0,0.0,0.0,0.0,0.0,0.0,0.0,0.0,0.0,0.0,0.0,0.0,0.0,0.0,0.0,0.0,0.0,0.0,0.0,0.0,0.0,0.0,0.0,0.0,0.0,0.0,0.9151,0.9894,1.0621,1.2013,1.2692,1.2648,1.3377,1.4148,1.4981,1.5338,1.5587,1.5694,1.6002,1.6349,1.6835,1.8525,1.9662,2.0328,2.0258,2.0178,2.0134,2.0164,2.0164,2.0134,0.0,0.0,0.0,0.0,0.0,0.0,0.0,0.0,0.0,0.0,-0.4929,-0.498,0.0,0.0,0.0,-0.4482,-0.4426,0.0,-0.5214,-0.5909,-0.657,-0.7158,-0.7698,-0.7717,-0.7135,-0.6742,-0.6358,-0.6028,-0.5749,-0.4556,-0.2517,-0.1453,-0.044,0.0555,0.0,0.2546,0.3045,0.3749,0.4128,0.4307,0.456,0.4913,0.5303,0.0,0.0,0.0,0.0,0.0,0.0,0.0,0.0,0.0,0.8277,0.0,0.0,0.9734,0.9972,1.0246,1.0459,0.0,0.0,0.0,0.0,0.0,0.0,0.0,0.0,0.0,0.0,0.0,0.0,0.0,0.0,0.0,0.0,0.0,0.0,0.0,0.0,0.0,0.0,0.0,0.0,0.0,0.0,0.0,0.0,0.0,0.0,0.0,0.0,0.0,0.8508,0.9133,0.9683,1.095,1.1631,1.175,1.2404,1.327,1.4314,1.4511,1.483,1.5279,1.5365,1.5887,1.6775,1.7789,1.8852,1.9819,1.975,1.989,2.0164,2.0192,2.0173,2.0164,0.0,0.0,0.2864,0.2345,0.0,0.0,0.0,0.0,0.0,-0.4673,-0.4855,-0.4913,0.0,0.0,0.0,-0.433,-0.4137,-0.4308,-0.4961,-0.5526,-0.6088,-0.6691,-0.7157,-0.7171,-0.6657,-0.6663,-0.6019,-0.465,-0.4632,-0.3814,-0.2243,0.0,-0.0848,-0.0224,0.0,0.2059,0.2539,0.3634,0.4333,0.4717,0.4998,0.5259,0.5538,0.6227,0.0,0.0,0.0,0.0,0.0,0.0,0.0,0.0,0.8765,0.9446,1.0343,1.0654,1.0886,1.111,1.153,0.0,0.0,0.0,0.0,0.0,0.0,0.0,0.0,0.0,0.0,0.0,0.0,0.0,0.0,0.0,0.0,0.0,0.0,0.0,0.0,0.0,0.0,0.0,0.0,0.0,0.0,0.0,0.0,0.0,0.0,0.0,0.0,0.7665,0.7926,0.8499,0.937,0.9782,1.0416,1.1276,1.1555,1.2233,1.328,1.3649,1.4322,1.5217,1.5346,1.5897,1.6696,1.67,1.7606,1.8979,1.8989,1.9415,2.0022,2.0144,2.0174,2.0127,0.0,0.0,0.3019,0.2074,0.0,0.0,0.0,0.0,-0.4055,-0.4762,-0.4668,-0.4498,-0.4441,-0.4195,0.0,-0.3723,-0.3606,-0.3986,-0.5002,-0.5161,-0.5687,-0.6807,-0.6815,-0.661,-0.6245,-0.5376,-0.4707,-0.424,-0.4118,-0.3352,0.0,0.0,0.0,0.058,0.0,0.2348,0.3078,0.3847,0.4313,0.4585,0.5059,0.554,0.6039,0.6872,0.7398,0.0,0.0,0.0,0.0,0.0,0.0,0.0,1.0218,1.0919,1.1682,1.1826,1.2204,1.2516,0.0,1.1909,0.0,0.0,0.0,0.0,0.0,0.0,0.0,0.0,0.0,0.0,0.0,0.0,0.0,0.0,0.0,0.0,0.0,0.0,0.0,0.0,0.0,0.0,0.0,0.0,0.0,0.0,0.0,0.0,0.6512,0.6752,0.708,0.7453,0.7783,0.8115,0.8472,0.9389,0.9773,0.0,1.0355,1.1293,1.2419,1.3311,1.4294,1.5274,1.5369,1.5886,1.6695,1.6632,1.7202,1.8144,1.8756,1.9104,1.9311,1.9961,2.0222,2.0244,0.0,0.0,0.0,0.0,0.0,0.0,0.0,0.0,-0.235,-0.35,-0.3511,-0.3483,-0.3708,-0.3541,0.0,0.0,-0.301,-0.3375,-0.4315,-0.4411,-0.4854,-0.5801,-0.5805,-0.5515,-0.4911,-0.4077,-0.3426,-0.2994,-0.2414,0.0,0.0,0.0,0.0,0.1084,0.0,0.2882,0.3672,0.4354,0.4876,0.5317,0.5773,0.6244,0.6698,0.7335,0.7804,0.828,0.9608,0.0,0.0,0.0,0.0,0.0,0.0,0.0,1.2671,1.2683,1.2933,1.3113,0.0,0.0,0.0,0.0,0.0,0.0,0.0,0.0,0.0,0.0,0.0,0.0,0.0,0.0,0.0,0.0,0.0,0.0,0.0,0.0,0.0,0.0,0.0,0.0,0.0,0.0,0.0,0.0,0.0,0.5966,0.6242,0.6549,0.6885,0.7298,0.7635,0.7899,0.8094,0.8786,0.9068,0.8957,0.9515,1.0643,1.2248,1.3705,1.4706,1.5309,1.537,1.5653,1.612,1.6492,1.7128,1.7931,1.8765,1.9312,1.9671,2.0094,2.0277,2.0285,0.0,0.0,0.0,0.0,0.0,0.0,0.0,0.0,0.0,-0.166,-0.1833,-0.2057,-0.2595,-0.2639,-0.2555,0.0,0.0,0.0,-0.33,-0.3533,-0.3841,-0.4302,-0.4451,-0.4151,-0.3351,-0.2832,-0.2262,-0.1604,0.0,0.0,0.0,0.0,0.0,0.1652,0.0,0.3522,0.4356,0.5034,0.5664,0.6244,0.6671,0.7021,0.7354,0.7958,0.8295,0.8627,1.0144,1.0702,1.0873,1.1907,0.0,0.0,0.0,0.0,1.3458,1.3534,1.3579,1.3595,0.0,0.0,0.0,0.0,0.0,0.0,0.0,0.0,0.0,0.0,0.0,0.0,0.0,0.0,0.0,0.0,0.0,0.0,0.0,0.0,0.0,0.0,0.0,0.0,0.0,0.0,0.0,0.0,0.0,0.5232,0.5986,0.6341,0.6718,0.7171,0.7499,0.7768,0.7986,0.8249,0.8504,0.8773,0.9168,1.0384,1.2314,1.408,1.5039,1.529,1.5369,1.5405,1.5454,1.6185,1.687,1.7573,1.8582,1.9364,1.9926,2.0218,2.0314,2.0308,0.0,0.0,0.0,0.0,0.0,0.0,0.0,0.0,0.0,0.0,0.0028,-0.0249,-0.0794,-0.1243,-0.1479,-0.1392,-0.1375,-0.1638,-0.2257,0.0,0.0,-0.2797,-0.2981,-0.2805,-0.2231,-0.185,-0.1406,0.0,0.0,0.0,0.0,0.0,0.0,0.2886,0.0,0.0,0.5183,0.5847,0.6314,0.6683,0.7252,0.7542,0.7798,0.0,0.0,0.0,0.0,0.0,0.0,1.2087,1.2124,0.0,0.0,0.0,1.4176,1.4761,1.4911,1.4807,0.0,0.0,0.0,0.0,0.0,0.0,0.0,0.0,0.0,0.0,0.0,0.0,0.0,0.0,0.0,0.0,0.0,0.0,0.0,0.0,0.0,0.0,0.0,0.0,0.0,0.0,0.0,0.0,0.4305,0.4884,0.5616,0.5975,0.6463,0.7091,0.7376,0.765,0.7914,0.818,0.8431,0.8636,0.9827,1.1011,1.216,1.3407,1.4455,1.5303,1.5369,1.5404,1.5403,1.5532,1.5644,1.5896,1.7515,1.8184,1.841,1.9856,2.0399,2.0386,0.0,0.0,0.0,0.0,0.0,0.0,0.0,0.0,0.0,0.0,0.0,0.0334,0.0138,-0.0264,-0.0504,-0.0472,-0.0471,-0.0686,-0.1171,-0.1573,-0.1698,-0.1555,-0.1634,-0.1506,-0.1108,-0.0632,-0.0236,0.0,0.0,0.0,0.0,0.2156,0.2668,0.0,0.0,0.0,0.0,0.0,0.698,0.7635,0.8229,0.8719,0.0,0.0,0.0,0.0,0.0,0.0,0.0,0.0,1.3551,1.4059,1.4113,0.0,0.0,0.0,0.0,0.0,1.2914,0.0,0.0,0.0,0.0,0.0,0.0,0.0,0.0,0.0,0.0,0.0,0.0,0.0,0.0,0.0,0.0,0.0,0.0,0.0,0.0,0.0,0.0,0.0,0.0,0.0,0.0,0.0,0.3999,0.4618,0.5392,0.5822,0.6306,0.6852,0.7125,0.7422,0.7724,0.7999,0.8325,0.8724,0.985,1.0713,1.137,1.3006,1.429,1.5251,1.5346,1.539,1.5448,1.5935,1.613,1.6247,1.7511,1.8264,1.8717,1.9461,2.0013,2.0404,0.0,0.0,0.0,0.0,0.0,0.0,0.0,0.0,0.0,0.0,0.0,0.082,0.0807,0.0,0.0,0.0,0.0496,0.0353,-0.0044,-0.0224,-0.0291,-0.0263,-0.0114,0.0046,0.0175,0.0715,0.0,0.0,0.0,0.0,0.2379,0.3053,0.3578,0.0,0.4684,0.0,0.0,0.0,0.0,0.0,0.0,1.0034,0.0,0.0,0.0,0.0,0.0,0.0,0.0,0.0,0.0,0.0,0.0,0.0,0.0,0.0,0.0,0.0,0.0,0.0,0.0,0.0,0.0,0.0,0.0,0.0,0.0,0.0,0.0,0.0,0.0,0.0,0.0,0.0,0.0,0.0,0.0,0.0,0.0,0.0,0.0,0.0,0.0,0.0,0.0,0.0,0.3626,0.4248,0.5011,0.5545,0.6034,0.648,0.6769,0.7077,0.7362,0.7724,0.8149,0.8636,0.9412,1.0076,1.0638,1.2237,1.3614,1.4788,1.5193,1.5373,1.5446,1.6092,1.6366,1.6464,1.7324,1.8178,1.8911,1.914,1.974,2.0433,0.0,0.0,0.0,0.0,0.0,0.0,0.0,0.0,0.0,0.0,0.0,0.1641,0.1389,0.1575,0.1641,0.1446,0.1595,0.1535,0.1143,0.1214,0.1249,0.1198,0.1805,0.0,0.1792,0.2177,0.0,0.0,0.0,0.0,0.2614,0.3455,0.4274,0.5035,0.5452,0.6277,0.7392,0.0,0.0,0.0,1.0564,1.1239,0.0,0.0,0.0,0.0,0.0,0.0,0.0,0.0,0.0,0.0,0.0,0.0,0.0,0.0,0.0,0.0,0.0,0.0,0.0,0.0,0.0,0.0,0.0,0.0,0.0,0.0,0.0,0.0,0.0,0.0,0.0,0.0,0.0,0.0,0.0,0.0,0.0,0.0,0.0,0.0,0.0,0.0,0.0,0.0,0.3129,0.3709,0.4312,0.4972,0.5509,0.5918,0.6259,0.6541,0.6752,0.7334,0.7796,0.8142,0.851,0.9217,1.0244,1.0731,1.1932,1.3649,1.4815,1.5338,1.5402,1.5444,1.5475,1.5559,1.6423,1.7305,1.8161,1.8994,1.9797,2.0494,0.0,0.0,0.0,0.0,0.0,0.0,0.0,0.0,0.0,0.0,0.0,0.0,0.0,0.244,0.2383,0.2221,0.2156,0.1997,0.1727,0.1763,0.1968,0.238,0.2699,0.3068,0.3504,0.0,0.0,0.0,0.0,0.3596,0.3445,0.4276,0.5068,0.5821,0.6149,0.7131,0.8619,0.9406,0.0,0.0,1.2005,1.2811,0.0,0.0,0.0,0.0,0.0,0.0,0.0,0.0,0.0,0.0,0.0,0.0,0.0,0.0,0.0,0.0,0.0,0.0,0.0,0.0,0.0,0.0,0.0,0.0,0.0,0.0,0.0,0.0,0.0,0.0,0.0,0.0,0.0,0.0,0.0,0.0,0.0,0.0,0.0,0.0,0.0,0.0,0.0,0.0,0.0,0.3494,0.4131,0.4718,0.5242,0.5697,0.5939,0.6317,0.6822,0.7128,0.7516,0.7966,0.8142,0.8578,0.9287,1.0685,1.1763,1.2629,1.432,1.5146,1.5334,1.5371,1.5399,1.5431,1.5734,1.6404,1.7265,1.8136,1.9007,1.9799,0.0,0.0,0.0,0.0,0.0,0.0,0.0,0.0,0.0,0.0,0.0,0.0,0.0,0.0,0.3171,0.3017,0.2788,0.2594,0.2507,0.2539,0.2822,0.3384,0.3747,0.4159,0.4656,0.0,0.0,0.0,0.0,0.0,0.0,0.5154,0.589,0.6601,0.7142,0.8148,0.0,0.0,0.0,1.2473,0.0,1.3993,1.4943,0.0,0.0,0.0,0.0,0.0,0.0,0.0,0.0,0.0,0.0,0.0,0.0,0.0,0.0,0.0,0.0,0.0,0.0,0.0,0.0,0.0,0.0,0.0,0.0,0.0,0.0,0.0,0.0,0.0,0.0,0.0,0.0,0.0,0.0,0.0,0.0,0.0,0.0,0.0,0.0,0.0,0.0,0.0,0.0,0.0,0.364,0.4232,0.4806,0.5309,0.5563,0.5957,0.649,0.6702,0.7048,0.7531,0.7781,0.81,0.853,1.0343,1.1434,1.1994,1.3687,1.4754,1.5279,1.533,1.5377,1.5405,1.5395,1.6108,1.7207,1.779,1.8742,1.9814,0.0,0.0,0.0,0.0,0.0,0.0,0.0,0.0,0.0,0.0,0.0,0.0,0.0,0.0,0.0,0.3821,0.3519,0.339,0.3513,0.3646,0.3865,0.4211,0.498,0.5384,0.5267,0.0,0.0,0.0,0.0,0.0,0.0,0.0,0.6716,0.742,0.8574,0.9365,1.0005,0.0,1.2318,1.2967,0.0,1.4827,1.5721,0.0,0.0,0.0,1.7314,1.7302,0.0,1.7665,0.0,0.0,0.0,0.0,0.0,0.0,0.0,0.0,0.0,0.0,0.0,0.0,0.0,0.0,0.0,0.0,0.0,0.0,0.0,0.0,0.0,0.0,0.0,0.0,0.0,0.0,0.0,0.0,0.0,0.0,0.0,0.0,0.0,0.0,0.0,0.0,0.1942,0.2435,0.2757,0.35,0.4163,0.4767,0.5117,0.5415,0.5686,0.6022,0.6394,0.6807,0.741,0.7796,0.8049,0.9612,1.0813,1.1772,1.2993,1.4171,1.5201,1.5274,1.5336,1.5403,1.5407,1.6434,1.7928,1.7949,1.9022,2.0482,0.0,0.0,0.0,0.0,0.0,0.0,0.0,0.0,0.0,0.0,0.0,0.0,0.0,0.0,0.0,0.4092,0.3961,0.3886,0.3934,0.387,0.4131,0.4752,0.5456,0.6075,0.6643,0.0,0.0,0.0,0.0,0.0,0.0,0.0,0.0,0.0,1.0177,1.1283,1.2304,1.2848,0.0,0.0,1.5173,1.5975,0.0,0.0,0.0,0.0,0.0,1.7725,1.7615,0.0,1.7504,1.763,0.0,0.0,0.0,0.0,0.0,0.0,1.0199,0.0,0.0,0.0,0.0,0.0,-0.0486,-0.0956,0.0,0.0,0.0,0.0,0.0,0.0,0.0,0.0,0.0,0.0,0.0,0.0,0.0,0.0,0.0,0.0,0.0,0.0,0.0,0.0,0.1373,0.1998,0.2276,0.3277,0.4032,0.4489,0.4844,0.5166,0.548,0.587,0.623,0.6579,0.7098,0.7487,0.7856,0.9921,1.1135,1.1665,1.3555,1.4593,1.4997,1.5202,1.5349,1.5392,1.5407,1.5692,1.6207,1.6834,1.7363,1.7929,0.0,0.0,0.0,0.0,0.0,0.0,0.0,0.0,0.0,0.0,0.0,0.0,0.0,0.0,0.0,0.4231,0.4164,0.4187,0.4383,0.4294,0.4607,0.5418,0.5994,0.6649,0.7416,0.0,0.0,0.0,0.0,0.0,0.0,0.0,0.0,0.0,1.1747,0.0,0.0,0.0,0.0,0.0,1.5821,0.0,0.0,1.7433,1.767,0.0,0.0,0.0,1.8331,1.8097,1.819,0.0,0.0,0.0,0.0,0.0,0.0,0.0,0.0,0.0,0.0,0.0,0.0,0.0,0.0201,-0.0446,-0.0981,0.0,0.0,0.0,0.0,0.0,0.0,0.0,0.0,0.0,0.0,0.0,0.0,0.0,0.0,0.0,0.0,-0.0537,-0.006,0.0146,0.0996,0.1741,0.2311,0.3135,0.3772,0.4142,0.4466,0.4805,0.5146,0.5518,0.5888,0.6248,0.6822,0.7225,0.7574,0.9964,1.1178,1.1503,1.367,1.4719,1.4908,1.5118,1.5268,1.5368,1.5392,1.5621,1.6021,1.6634,1.7163,1.7651,0.0,0.0,0.9034,0.8346,0.7472,0.0,0.0,0.0,0.0,0.0,0.0,0.0,0.0,0.0,0.0,0.0,0.4223,0.4348,0.4828,0.4782,0.5157,0.6017,0.6488,0.7025,0.7727,0.0,0.0,0.0,0.0,0.0,0.0,0.0,0.0,0.0,1.3202,1.411,0.0,0.0,0.0,1.5936,1.6041,1.6695,0.0,0.0,1.7913,1.8621,1.894,1.9097,1.9097,1.9097,1.9216,0.0,0.0,0.0,0.0,0.0,1.3129,0.0,0.0,0.0,0.0,0.0,0.0,0.0,0.0975,0.0306,-0.0306,0.0,0.0,0.0,0.0,0.0,0.0,0.0,0.0,0.0,0.0,0.0,0.0,0.0,0.0,0.0,-0.1707,-0.1233,-0.0717,-0.0154,0.0632,0.1529,0.2533,0.2988,0.3381,0.3717,0.4035,0.4374,0.4724,0.5059,0.5415,0.5808,0.6485,0.6907,0.7221,0.9661,1.0924,1.1257,1.3412,1.4528,1.4871,1.5023,1.5177,1.5319,1.5365,1.5872,1.6585,1.6823,1.7545,1.836,1.0002,0.9518,0.8915,0.8974,0.8482,0.0,0.0,0.0,0.0,0.0,0.0,0.0,0.0,0.0,0.0,0.0,0.0,0.4749,0.511,0.511,0.5289,0.5773,0.642,0.698,0.7372,0.8213,0.0,0.0,0.0,0.0,0.0,0.0,0.0,0.0,1.4387,1.5157,0.0,0.0,0.0,1.6185,1.6456,0.0,1.7401,1.7368,1.777,1.8414,1.8944,1.9048,1.8939,1.8939,1.894,1.8742,0.0,0.0,0.0,0.0,0.0,0.0,0.0,0.0,0.0,0.0,0.0,0.0,0.2419,0.1857,0.1258,0.0,0.0,0.0,0.0,0.0,0.0,0.0,0.0,0.0,0.0,0.0,0.0,0.0,0.0,0.0,-0.2636,-0.2145,-0.1768,-0.1537,-0.0219,0.0928,0.1775,0.2399,0.2891,0.3217,0.345,0.3779,0.4232,0.4507,0.4864,0.5262,0.5891,0.6369,0.6781,0.8576,0.9922,1.097,1.2597,1.3791,1.4602,1.4835,1.5088,1.5311,1.5365,1.5493,1.5655,1.5719,1.588,1.6052,1.0751,1.0143,0.9276,0.8907,0.0,0.0,0.0,0.0,0.0,0.0,0.0,0.0,0.0,0.0,0.0,0.0,0.0,0.0,0.0,0.0,0.5571,0.6109,0.6743,0.7281,0.7833,0.866,0.9513,0.0,0.0,0.0,0.0,0.0,0.0,0.0,0.0,0.0,0.0,0.0,1.6992,1.649,1.6518,0.0,1.6609,1.7259,1.7775,1.8265,1.916,1.9471,1.9555,1.9743,1.9465,0.0,0.0,1.7641,1.6609,0.0,1.4538,1.3476,0.0,0.0,0.0,0.7708,0.0,0.0,0.0,0.2965,0.2217,0.0952,0.0,0.0,0.0,0.0,0.0,0.0,0.0,0.0,0.0,0.0,0.0,0.0,0.0,0.0,-0.3335,-0.2951,-0.2458,-0.1896,-0.0724,0.0232,0.0917,0.1724,0.2358,0.2778,0.312,0.35,0.3888,0.4163,0.4507,0.4912,0.5505,0.5988,0.6416,0.8131,0.9309,1.009,1.1533,1.2775,1.38,1.3877,1.4428,1.5251,1.5319,1.5354,1.5342,1.5354,1.537,1.5401,1.1014,1.0528,0.9774,0.8909,0.0,0.0,0.0,0.0,0.0,0.0,0.0,0.0,0.0,0.0,0.0,0.0,0.0,0.0,0.0,0.0,0.5773,0.6507,0.7006,0.7569,0.825,0.9067,0.9897,0.0,0.0,0.0,0.0,0.0,0.0,0.0,0.0,0.0,0.0,0.0,0.0,1.609,0.0,1.6018,1.6098,1.7217,1.7802,1.827,1.9404,2.0009,2.0281,2.0475,2.007,1.9506,1.9306,1.8222,0.0,0.0,0.0,0.0,0.0,0.0,0.0,0.0,0.0,0.6556,0.0,0.0,0.0,0.0,0.0,0.0,0.0,0.0,0.0,0.0,0.0,0.0,0.0,0.0,0.0,0.0,0.0,0.0,0.0,-0.3705,-0.3155,-0.2227,-0.1353,-0.0619,-0.0076,0.0947,0.1738,0.2228,0.2725,0.3135,0.3508,0.3792,0.413,0.4527,0.5107,0.5606,0.6053,0.7645,0.8636,0.9196,1.0645,1.1961,1.3073,1.3198,1.4001,1.517,1.526,1.5293,1.5306,1.5303,1.5351,1.5394,1.0427,1.0297,1.0083,0.9793,0.0,0.0,0.0,0.0,0.0,0.0,0.0,0.0,0.0,0.0,0.0,0.0,0.0,0.0,0.4757,0.0,0.0,0.6222,0.6765,0.7287,0.7753,0.8972,0.9933,1.0707,0.0,0.0,0.0,0.0,0.0,0.0,1.7089,0.0,0.0,0.0,1.6136,0.0,1.475,1.587,0.0,1.7174,1.7791,1.8685,1.9375,2.0074,2.054,0.0,2.002,1.9792,0.0,1.7864,1.7009,0.0,0.0,0.0,0.0,0.0,0.0,0.0,0.8748,0.0,0.0,0.0,0.418,0.27,0.0,0.0,0.0,0.0,0.0,0.0,0.0,0.0,0.0,0.0,0.0,0.0,0.0,0.0,0.0,-0.4526,-0.4055,-0.3511,-0.2619,-0.1853,-0.1327,0.0048,0.0972,0.1328,0.1865,0.235,0.2805,0.3132,0.3514,0.3917,0.4398,0.4991,0.5678,0.6425,0.7524,0.8942,1.0511,1.186,1.3007,1.4072,1.4698,1.5031,1.5236,1.5291,1.5306,1.5377,1.5387,1.5392,1.0383,1.0161,0.9905,0.9502,0.0,0.0,0.0,0.0,0.0,0.0,0.0,0.0,0.0,0.0,0.0,0.0,0.0,0.4569,0.0,0.0,0.0,0.0,0.6935,0.7586,0.8104,0.9086,1.0088,1.1056,1.2225,0.0,0.0,0.0,0.0,0.0,1.7033,0.0,1.6173,0.0,1.5501,0.0,0.0,0.0,0.0,1.5416,1.6894,1.8751,1.9142,1.9605,1.9933,0.0,1.9857,0.0,0.0,0.0,0.0,0.0,0.0,0.0,0.0,0.0,0.0,0.0,0.0,0.0,0.6901,0.0,0.4626,0.0,0.0,0.0,0.0,0.0,0.0,0.0,0.0,0.0,0.0,0.0,0.0,0.0,0.0,0.0,0.0,0.0,0.0,0.0,-0.4011,-0.3268,-0.2569,-0.1336,-0.0229,0.0641,0.1284,0.1862,0.2415,0.2745,0.3147,0.3619,0.4094,0.4646,0.5272,0.592,0.682,0.7928,0.8914,1.0463,1.2331,1.3344,1.4273,1.5062,1.5231,1.5295,1.531,1.5382,1.5401,1.541,1.0335,0.0,0.0,0.0,0.0,0.0,0.0,0.0,0.0,0.0,0.0,0.0,0.3509,0.3403,0.0,0.0,0.4051,0.4388,0.0,0.0,0.6044,0.0,0.0,0.0,0.0,0.9282,1.0206,1.1183,0.0,0.0,0.0,0.0,0.0,0.0,0.0,1.5846,1.5064,0.0,0.0,1.4397,1.3406,1.2851,1.281,1.413,1.5999,1.8061,1.8536,1.8998,1.933,1.9649,1.9452,0.0,1.9518,0.0,0.0,0.0,0.0,0.0,1.4189,0.0,0.0,0.0,0.0,0.0,0.0,0.0,0.0,0.0,0.0,0.0,0.0,0.0,0.0,0.0,0.0,0.0,0.0,0.0,0.0,0.0,0.0,0.0,0.0,0.0,0.0,0.0,0.0,-0.441,-0.3611,-0.2415,-0.1182,0.0066,0.0819,0.1488,0.2088,0.2481,0.2928,0.3458,0.3909,0.4426,0.5,0.5745,0.6469,0.7188,0.808,0.973,1.1854,1.287,1.4036,1.516,1.5256,1.531,1.5336,1.5382,1.5403,1.5394,1.0148,0.9906,0.0,0.0,0.0,0.0,0.0,0.0,0.0,0.0,0.0,0.0,0.0,0.0,0.0,0.0,0.0,0.3912,0.4414,0.0,0.5462,0.0,0.0,0.7313,0.0,0.0,1.0416,1.0838,0.0,0.0,0.0,0.0,0.0,0.0,0.0,1.4439,1.3422,1.3714,1.2244,0.9859,1.1306,1.1489,1.127,0.0,1.5609,1.6241,1.7378,0.0,0.0,1.8854,1.8607,0.0,0.0,0.0,0.0,0.0,0.0,0.0,0.0,0.0,0.0,1.1958,0.0,0.0,0.0,0.0,0.5019,0.0,0.0,0.0,0.0,0.0,0.0,0.0,0.0,0.0,0.0,0.0,0.0,0.0,0.0,0.0,0.0,0.0,0.0,0.0,0.0,0.0,-0.4297,-0.2929,-0.1617,-0.0424,0.0468,0.1203,0.1803,0.2346,0.2842,0.3317,0.3786,0.4321,0.4923,0.5873,0.6558,0.7098,0.8877,1.043,1.1818,1.3194,1.4384,1.5284,1.5307,1.5336,1.5407,1.5404,1.5392,1.5392,1.0173,0.0,0.0,0.0,0.0,0.0,0.0,0.5092,0.0,0.0,0.0,0.0,0.0,0.1479,0.1859,0.0,0.0,0.3187,0.3436,0.4532,0.0,0.0,0.0,0.7455,0.0,0.0,0.0,0.0,0.0,0.0,0.0,0.0,0.0,0.0,0.0,1.3293,0.0,0.0,0.0,0.0,0.0,1.241,1.1188,0.0,0.0,1.5601,1.648,1.7304,0.0,1.8202,1.8539,1.8808,1.8347,1.8218,1.7991,1.6365,1.5074,0.0,0.0,0.0,1.2166,1.1896,0.0,0.0,0.0,0.0,0.0,0.0,0.0,0.0,0.0,0.0,0.0,0.0,0.0,0.0,0.0,0.0,0.0,0.0,0.0,0.0,0.0,0.0,0.0,0.0,0.0,0.0,0.0,-0.3058,-0.167,-0.0621,0.0111,0.0868,0.1667,0.2198,0.2676,0.3105,0.3654,0.4199,0.4724,0.544,0.6171,0.6962,0.8585,1.0153,1.1667,1.3032,1.4181,1.5116,1.5259,1.5345,1.5393,1.5407,1.5339,1.5259,0.9983,0.0,0.0,0.0,0.0,0.0,0.0,0.0,0.0,0.0,0.0045,0.0,-0.0462,0.0,0.0266,0.0,0.1488,0.2191,0.293,0.3756,0.0,0.4995,0.5854,0.0,0.0,0.0,0.0,0.0,0.0,1.2473,0.0,0.0,0.0,0.0,0.0,1.1574,1.0243,0.0,0.9238,0.0,0.0,1.1819,0.0,0.0,1.4073,1.4919,0.0,1.6272,1.6908,1.7382,1.793,1.8259,1.8076,1.7793,1.7251,1.5696,1.4523,1.3743,1.3502,1.272,0.0,1.1648,1.0508,0.0,0.8234,0.0,0.0,0.0,0.0,0.0,0.0,0.0,0.0,0.0,0.0,0.0,0.0,0.0,0.0,0.0,0.0,0.0,0.0,0.0,0.0,0.0,0.0,0.0,0.0,0.0,-0.1504,-0.051,0.0067,0.0756,0.1601,0.2088,0.2589,0.3078,0.3633,0.4171,0.4695,0.5337,0.6077,0.6913,0.847,1.0048,1.1595,1.2919,1.4096,1.5044,1.5236,1.5303,1.5329,1.5373,1.5326,1.5212,0.9621,0.9328,0.0,0.0,0.7483,0.0,0.0,0.0,-0.1737,0.0,-0.2105,-0.2544,-0.2077,-0.18,-0.1389,-0.0665,-0.0056,0.0948,0.2615,0.2377,0.0,0.0,0.4744,0.508,0.5826,0.0,0.0,0.0,0.0,0.0,0.0,0.0,0.0,0.0,1.0732,0.0,0.7992,0.7511,0.6976,0.6598,0.8524,0.9969,1.1093,1.1945,1.2959,1.4049,1.4705,1.5133,1.5568,1.6482,1.6769,1.6908,1.7588,1.6845,1.5578,1.4559,1.3726,1.3139,1.3224,1.249,1.1677,1.1337,0.0,0.0,0.0,0.0,0.6647,0.0,0.0,0.0,0.0,0.0,0.0,0.0,0.0,0.0,0.0,0.0,0.0,0.0,0.0,0.0,0.0,0.0,0.0,0.0,0.0,0.0,0.0,0.0,-0.1118,-0.0111,0.0311,0.0868,0.1601,0.2019,0.2536,0.3178,0.3675,0.4224,0.4826,0.5563,0.6271,0.6996,0.8576,1.0105,1.1586,1.2899,1.4093,1.5094,1.5231,1.526,1.5217,1.5336,1.5334,1.5265,0.9672,0.9166,0.8195,0.0,0.5524,0.411,0.0,0.0,0.0,0.0,-0.4765,-0.4751,-0.5127,-0.4499,-0.3758,-0.314,-0.2052,0.0,0.0,0.0,0.0,0.2537,0.3426,0.4358,0.5285,0.6393,0.0,0.882,0.0,0.0,1.1595,0.0,0.0,0.0,0.0,0.0,0.7293,0.6505,0.6527,0.7167,0.8365,0.951,0.0,0.0,1.2144,1.2586,1.3535,1.4266,1.4927,1.5346,1.5346,1.5204,1.5417,1.5213,1.4669,1.332,1.2459,1.2041,1.2086,1.1665,1.1247,1.1178,1.0288,0.9325,0.0,0.0,0.0,0.0,0.0,0.0,0.0,0.0,0.0,0.0,0.0,0.0,0.0,0.0,0.0,-0.0989,0.0,0.0,0.0,0.0,0.0,0.0,0.0,0.0,0.0,0.0,0.0,0.0334,0.069,0.1159,0.1736,0.2202,0.2572,0.2918,0.3723,0.4389,0.4914,0.5698,0.6392,0.7091,0.9188,1.0476,1.1291,1.3313,1.4398,1.483,1.5057,1.5143,1.5124,1.5168,1.5174,1.5146,0.8942,0.0,0.0,0.429,0.0,0.0,0.0839,-0.192,0.0,-0.646,-0.6691,0.0,-0.6937,-0.6734,-0.6288,-0.5569,-0.4341,0.0,-0.1877,0.0,0.0,0.103,0.1911,0.2857,0.3923,0.5016,0.0,0.7604,0.0,0.0,1.0329,0.0,0.0,0.0,0.0,0.7133,0.0,0.5848,0.6055,0.6964,0.8035,0.0,0.0,1.0846,1.1409,1.1774,1.2579,1.3324,1.3992,1.4274,1.4497,1.4569,1.4209,1.3912,1.3476,1.2827,1.2147,1.1682,1.1609,1.129,1.0933,1.0807,1.004,0.9354,0.9131,0.8584,0.7947,0.0,0.0,0.0,0.0,0.0,0.0,0.0,0.0,0.0,0.0,0.0,0.0,0.0,0.0231,0.0,0.0,0.0,0.0,0.0,0.0,0.0,0.0,0.0,0.0,0.1068,0.1203,0.1491,0.1978,0.2437,0.2848,0.3205,0.4025,0.4708,0.5289,0.6199,0.6982,0.7734,0.9901,1.1136,1.1751,1.36,1.4518,1.4757,1.4977,1.5068,1.5049,1.5054,1.508,1.5094,0.756,0.0,0.0,0.0,0.0,0.0,0.0,-0.3899,0.0,-0.7349,0.0,-0.898,-0.8581,-0.8935,-0.8863,-0.7988,0.0,-0.5354,-0.3553,-0.287,-0.1835,-0.028,0.023,0.104,0.2312,0.3554,0.4797,0.0,0.0,0.0,0.0,0.0,0.0,0.0,0.0,0.0,0.0,0.529,0.5567,0.6358,0.7389,0.8363,0.9144,0.9969,1.0663,1.126,1.1781,1.2452,1.3119,1.3346,1.3848,1.4281,1.371,1.2973,1.2365,1.2684,1.2277,1.1668,1.1525,1.1159,1.0735,1.036,0.9906,0.956,0.9466,0.9145,0.8835,0.877,0.8276,0.7741,0.0,0.0,0.0,0.0,0.0,0.0,0.0,0.0,0.0,0.0,0.0,0.0,0.0,0.0,0.0,0.0,0.0,0.0,0.0,0.0,0.0,0.1953,0.1883,0.2005,0.2359,0.0,0.3368,0.3901,0.4582,0.5224,0.584,0.6958,0.783,0.8576,1.0558,1.1778,1.2459,1.3736,1.4445,1.4757,1.4902,1.4952,1.4942,1.4971,1.5011,1.5069,0.0,0.0,0.0,0.0,0.0,-0.6705,-1.1609,-1.0278,-0.8838,-0.9285,-1.1108,-1.2434,-1.2571,-1.2173,-1.1575,-1.0673,-0.9176,0.0,0.0,0.0,0.0,-0.2431,-0.1398,-0.0177,0.1326,0.2493,0.3797,0.0,0.0,0.0,0.0,0.0,0.0,0.0,0.0,0.0,0.3897,0.4046,0.0,0.5421,0.6204,0.7078,0.7977,0.892,0.9609,1.0293,1.1186,1.1929,1.2526,1.2673,1.3039,1.3404,1.3492,1.2973,1.2238,1.1989,1.1565,1.1229,1.1174,1.1069,1.085,1.0331,0.9994,0.9676,0.9192,0.9017,0.8894,0.8576,0.8608,0.8451,0.7876,0.0,0.0,0.0,0.0,0.0,0.0,0.0,0.0,0.0,0.0,0.0,0.0,0.0,0.0,0.0,0.0,0.0,0.0,0.0,0.0,0.0,0.3027,0.0,0.0,0.0,0.4391,0.4857,0.5601,0.6082,0.6412,0.7763,0.8501,0.884,1.0745,1.1827,1.2336,1.3553,1.4227,1.4478,1.4624,1.4666,1.4678,1.4794,1.483,1.4865,0.0,0.0,0.0,0.0,0.0,0.0,0.0,-1.4384,-1.3637,-1.3408,-1.3624,-1.3852,-1.4058,-1.4048,-1.3718,-1.3071,-1.1616,-1.0224,-0.8882,-0.7336,-0.586,-0.4528,-0.329,-0.1865,-0.0175,0.1127,0.2358,0.3529,0.0,0.0,0.0,0.0,0.0,0.0,0.0,0.3234,0.0,0.0,0.0,0.4521,0.5335,0.6146,0.6968,0.8042,0.8757,0.9299,1.0243,1.0812,1.1186,1.2003,1.2305,1.2305,1.2606,1.2311,1.1822,1.1642,1.1423,1.1289,1.103,1.0879,1.056,1.0093,0.9866,0.9634,0.9303,0.9204,0.9145,0.9017,0.8952,0.8756,0.8386,0.774,0.0,0.0,0.0,0.0,0.0,0.0,0.0,0.0,0.0,0.0,0.0,0.0,0.0,0.0,0.0,0.0,0.0,0.0,0.0,0.0,0.0,0.0,0.0,0.0,0.0,0.5641,0.6295,0.6864,0.7374,0.864,0.9463,0.998,1.1438,1.2352,1.2884,1.3712,1.4157,1.4302,1.4467,1.4592,1.4664,1.4718,1.4776,1.4813,0.0,-0.4309,0.0,0.0,-0.6795,0.0,-1.5679,-1.7522,-1.8134,-1.7488,-1.6076,-1.5197,-1.5338,-1.5707,-1.5728,-1.5201,-1.3995,-1.2693,-1.1251,-0.9751,-0.8228,-0.6625,-0.5306,-0.3803,-0.1997,-0.0525,0.0694,0.0,0.0,0.0,0.0,0.0,0.0,0.0,0.0,0.0,0.0,0.0,0.2544,0.3496,0.4275,0.5152,0.5949,0.7021,0.7728,0.8198,0.9155,0.9466,0.9691,1.0873,1.131,1.1384,1.1556,1.142,1.1211,1.1378,1.1427,1.1237,1.1013,1.0735,1.044,1.004,0.9776,0.9616,0.9484,0.9396,0.935,0.9532,0.9356,0.9151,0.9027,0.8647,0.0,0.0,0.0,0.0,0.0,0.0,0.0,0.0,0.0,0.0,0.0,0.0,0.0,0.0,0.0,0.0,0.0,0.0,0.0,0.0,0.0,0.5549,0.5446,0.0,0.5865,0.6432,0.7034,0.7655,0.8302,0.9488,1.0371,1.0974,1.2062,1.2838,1.3395,1.3766,1.3957,1.409,1.429,1.4451,1.4578,1.4624,1.4658,1.4699,0.0,0.0,0.0,0.0,0.0,0.0,-1.8906,-2.0061,-2.0088,-1.9738,-1.8617,-1.7913,-1.8204,-1.8163,-1.7798,-1.7029,-1.6083,-1.4921,-1.3506,-1.2081,-1.0524,-0.8792,-0.7406,-0.5918,-0.4175,-0.2771,-0.1388,0.0,0.0,0.1783,0.0,0.0,0.0,0.0,0.0,0.0,0.0,0.0268,0.1138,0.2151,0.2835,0.3774,0.4833,0.5613,0.6244,0.6837,0.7741,0.819,0.842,0.8846,0.9896,1.1022,1.0743,1.0425,1.0386,1.1068,1.0999,1.076,1.0907,1.0951,1.0793,1.039,1.0122,0.9935,0.9444,0.9338,0.9344,0.9657,0.9771,0.9886,1.013,0.9475,0.9266,0.0,0.0,0.0,0.0,0.0,0.0,0.0,0.0,0.0,0.0,0.8852,0.0,0.0,0.0,0.0,0.0,0.0,0.0,0.7845,0.0,0.7102,0.6901,0.6858,0.7057,0.7463,0.8067,0.8529,0.8872,1.0184,1.0864,1.1067,1.2119,1.2838,1.321,1.3261,1.3443,1.3676,1.3888,1.4042,1.4175,1.4356,1.438,1.4356,0.0,0.0,0.0,0.0,0.0,0.0,0.0,-2.0958,-2.0893,-2.0644,-1.9871,-1.951,-1.9878,-1.9824,-1.9542,-1.9004,-1.8208,-1.7093,-1.5536,-1.426,-1.2899,-1.1363,-1.0,-0.8557,-0.6938,-0.5566,-0.4312,0.0,0.0,0.0,0.0,0.0,0.0,0.0,0.0,-0.2649,-0.204,-0.1514,-0.0572,0.0637,0.1315,0.2196,0.3272,0.4045,0.4745,0.5252,0.6108,0.6607,0.6889,0.7132,0.8529,1.0058,0.9724,0.9695,0.9825,1.0055,1.0131,1.0113,1.0047,1.0287,1.0563,1.0294,1.0212,1.0099,0.9796,0.9832,1.0001,1.0074,1.0466,1.0886,1.0842,1.0659,1.0581,0.0,0.0,0.0,0.0,0.0,0.0,0.0,0.0,0.0,0.0,0.0,0.0,0.0,0.0,0.0,0.0,0.0,0.0,0.996,0.0,0.8497,0.7892,0.7367,0.7364,0.7859,0.8417,0.9,0.9591,1.0583,1.1292,1.1788,1.1976,1.2373,1.2824,1.2588,1.2807,1.3311,1.357,1.3739,1.3888,1.4028,1.4083,1.4083,-1.5542,0.0,-1.4998,0.0,-1.5668,-1.6388,-2.0763,-2.1402,-2.1454,-2.1601,-2.1144,-2.0876,-2.1054,-2.1027,-2.0842,-2.048,-1.9744,-1.8789,-1.7515,-1.6607,-1.5466,-1.4147,-1.2897,0.0,-0.9922,-0.8643,-0.754,-0.6508,-0.5507,0.0,0.0,0.0,0.0,0.0,-0.5257,-0.4725,-0.4019,-0.3215,-0.2205,-0.1104,-0.0251,0.0634,0.1592,0.2389,0.3098,0.3717,0.4407,0.4959,0.5377,0.5523,0.6885,0.8532,0.8523,0.8819,0.9097,0.9146,0.9372,0.9576,0.9463,0.9839,1.0284,1.0239,1.0399,1.0416,1.0301,1.048,1.0692,1.0821,1.1356,1.1744,1.1724,1.1847,1.1899,1.1999,0.0,0.0,0.0,0.0,0.0,0.0,1.2327,1.2384,1.248,1.2436,0.0,0.0,0.0,0.0,0.0,0.0,0.0,0.0,0.0,0.0,0.0,0.7772,0.7569,0.7945,0.8557,0.9212,0.9906,1.0763,1.1505,1.2133,1.1927,1.2069,1.2463,1.2241,1.2501,1.3037,1.3261,1.3476,1.3669,1.3774,1.3815,1.383,-1.7223,-1.7622,-1.8151,-1.9415,-2.0787,-2.1702,-2.1781,-2.1694,-2.1948,-2.2946,-2.2719,-2.228,-2.1736,-2.1701,-2.1561,-2.1234,-2.0339,-1.9716,-1.9475,-1.9099,-1.8294,0.0,0.0,-1.4842,-1.2869,-1.2054,-1.1028,-0.986,0.0,0.0,-0.8437,0.0,-0.8203,-0.8226,-0.7477,-0.6827,-0.6203,-0.4884,-0.3912,-0.3058,-0.1901,-0.0921,-0.0061,0.0677,0.1354,0.2046,0.2694,0.3418,0.4036,0.4148,0.4971,0.6136,0.7,0.7626,0.8149,0.8651,0.897,0.9254,0.9558,0.9974,1.0333,1.0402,1.0679,1.088,1.088,1.1018,1.1368,1.2119,1.236,1.2557,1.2803,1.2863,1.3302,1.4516,0.0,0.0,0.0,0.0,0.0,0.0,1.4221,1.442,1.5029,0.0,0.0,0.0,0.0,0.0,0.0,0.0,0.0,1.2429,1.1413,0.0,0.8905,0.8153,0.7792,0.7821,0.8601,0.92,0.9647,1.0702,1.1429,1.1826,1.1997,1.2138,1.2226,1.2403,1.2623,1.2818,1.2964,1.321,1.3511,1.3591,1.3605,1.3589,-2.0196,-2.0553,-2.0801,-2.1194,-2.1759,-2.2106,-2.1957,-2.2525,-2.2979,-2.3034,-2.3801,-2.4282,-2.4097,-2.3434,-2.29,0.0,-2.2149,-2.1522,0.0,-2.0681,-2.0323,-1.9414,-1.868,-1.7823,-1.6735,-1.5533,-1.4455,-1.357,0.0,0.0,0.0,-1.1094,-1.0729,-1.064,-0.9777,-0.8944,-0.8112,-0.6744,-0.5686,-0.4794,-0.3751,-0.2901,-0.2077,-0.1335,-0.0551,0.0184,0.0816,0.158,0.228,0.2619,0.3268,0.4008,0.4623,0.5899,0.7131,0.7122,0.7711,0.8461,0.867,0.9289,1.0026,1.0485,1.0812,1.1018,1.1307,1.1871,1.2431,1.2998,1.3479,1.3803,1.3838,1.4159,1.4559,1.4706,1.4933,0.0,0.0,0.0,0.0,0.0,1.6229,1.6418,0.0,1.6371,0.0,0.0,0.0,0.0,0.0,0.0,0.0,0.0,1.2397,0.0,0.9465,0.8309,0.7792,0.7945,0.8462,0.8949,0.941,1.0031,1.0556,1.0964,1.0614,1.1102,1.2107,1.171,1.1944,1.2526,1.2623,1.2776,1.2962,1.3034,1.307,1.3122,-2.1731,-2.2007,-2.2308,-2.2929,-2.3209,-2.3238,-2.2984,-2.3523,-2.386,-2.36,-2.4572,-2.5412,-2.5799,-2.4697,0.0,-2.3395,-2.2962,-2.2441,-2.1771,-2.1881,-2.1789,-2.1403,-2.0711,-2.0018,-1.9377,-1.8179,0.0,-1.6548,-1.5572,-1.4879,-1.4369,-1.3457,-1.2876,-1.2561,-1.1621,-1.0764,-0.9944,-0.8639,-0.7635,-0.6796,-0.5737,-0.4896,-0.4062,-0.3101,-0.2304,-0.1541,-0.0841,-0.006,0.0726,0.1162,0.1805,0.2468,0.2973,0.4172,0.5596,0.5899,0.6755,0.7664,0.7943,0.8754,0.9644,1.0348,1.0791,1.1325,1.2004,1.2613,1.325,1.381,1.4455,1.4977,1.4969,1.5655,1.6125,1.5887,1.6558,1.721,1.7253,0.0,0.0,0.0,0.0,0.0,0.0,1.7737,1.7787,0.0,0.0,0.0,0.0,0.0,0.0,1.4909,1.2678,0.0,0.9448,0.8285,0.7773,0.7917,0.8512,0.901,0.9437,0.983,1.0199,1.0505,1.0298,1.0816,1.1811,1.1424,1.1642,1.2221,1.2323,1.2407,1.2491,1.2604,1.2662,1.2681,-2.1949,-2.2252,-2.296,0.0,-2.4952,0.0,-2.4584,-2.4571,-2.4588,-2.4523,-2.5122,-2.5883,-2.6805,-2.5569,-2.4406,-2.3801,0.0,0.0,0.0,-2.2802,-2.2831,-2.3142,-2.2339,-2.1609,-2.1035,-2.0112,-1.9293,-1.8615,-1.7268,-1.6403,-1.599,-1.5332,-1.4698,-1.4029,-1.3158,-1.2415,-1.1711,-1.0588,-0.9717,-0.8996,-0.7852,-0.6908,-0.6058,-0.4867,-0.3941,-0.3239,-0.2479,-0.1516,-0.0644,-0.0242,0.049,0.135,0.1842,0.2629,0.3606,0.4904,0.6013,0.692,0.7373,0.8238,0.9242,1.0027,1.0809,1.1677,1.291,1.3419,1.379,1.4529,1.5284,1.5961,1.6215,1.7164,1.7954,1.7937,1.885,1.9625,1.99,0.0,0.0,0.0,0.0,0.0,0.0,1.8626,1.8277,0.0,0.0,0.0,0.0,0.0,1.6521,1.4429,1.2381,1.0587,0.9077,0.8189,0.7754,0.7831,0.8656,0.9209,0.9482,0.9869,1.012,1.0294,1.0695,1.1066,1.1376,1.1505,1.1681,1.1891,1.2003,1.2066,1.2107,1.2302,1.2327,1.2296,0.0,0.0,-2.433,-2.4718,-2.5244,-2.5407,-2.4821,-2.5167,-2.5317,-2.4791,-2.5956,-2.6911,-2.7038,-2.6601,-2.5996,-2.5129,-2.3668,-2.2932,-2.3296,-2.377,-2.4159,-2.4437,-2.4113,-2.3738,-2.3341,-2.1913,-2.0396,-1.8829,-1.8202,-1.768,-1.7271,-1.6642,-1.6114,-1.5684,-1.4926,-1.431,-1.3814,-1.2561,-1.1724,-1.1055,-0.9834,-0.8971,-0.8233,-0.7127,-0.6171,-0.5366,-0.4415,-0.337,-0.2368,-0.1765,-0.0988,-0.0178,0.0594,0.1395,0.2376,0.3985,0.5276,0.6283,0.6933,0.7758,0.8759,0.9879,1.124,1.2437,1.3032,1.3702,1.4423,1.5332,1.6041,1.6706,1.753,1.8239,1.8927,1.9308,2.0124,2.0885,2.1315,2.1229,0.0,0.0,2.043,2.0029,1.9932,1.9812,2.0037,0.0,0.0,0.0,0.0,1.8355,1.6573,1.5176,1.2629,1.0799,0.9791,0.8659,0.8077,0.8101,0.8471,0.8513,0.8319,0.8498,0.8763,0.9046,0.9499,1.0124,1.0828,1.1196,1.1474,1.1601,1.1623,1.1768,1.1955,1.1955,1.1997,1.2081,-2.3106,-2.43,-2.5369,-2.585,-2.5941,-2.5967,-2.6023,-2.6312,-2.635,-2.6,-2.675,-2.725,-2.7218,-2.7072,-2.6635,-2.5758,-2.4723,-2.4148,-2.4263,-2.4605,-2.4915,-2.5259,-2.4796,-2.4547,-2.4558,-2.2971,-2.1228,-1.9295,-1.8907,-1.8525,-1.8187,-1.772,-1.7286,-1.6941,-1.6421,-1.5922,-1.546,-1.4529,-1.3736,-1.2972,-1.1929,-1.1048,-1.0191,-0.9068,-0.8128,-0.7281,-0.6166,-0.5144,-0.4158,-0.3277,-0.2424,-0.1492,-0.0631,0.0235,0.1152,0.2496,0.4024,0.547,0.6291,0.7219,0.8343,1.0022,1.1509,1.2599,1.32,1.4114,1.5,1.5928,1.6824,1.7737,1.8704,1.9568,2.0286,2.0814,2.1704,2.2506,2.2763,2.257,0.0,2.2143,2.13,2.0724,2.0746,2.0822,2.1062,2.1645,2.139,0.0,2.05,1.7935,1.6034,1.5106,1.2354,1.0551,0.9794,0.8756,0.8273,0.8308,0.8413,0.8321,0.8091,0.8357,0.857,0.8753,0.9231,0.9752,1.0259,1.0653,1.0893,1.1094,1.1187,1.1324,1.1497,1.1564,1.163,1.1755,-2.4455,-2.5278,-2.6199,-2.7144,-2.673,-2.6567,-2.7348,-2.7421,-2.7376,-2.7376,-2.7376,-2.7345,-2.7313,-2.7233,-2.6879,-2.6133,-2.5875,-2.5629,-2.5263,-2.5196,-2.534,-2.5779,-2.515,-2.492,-2.5269,-2.3639,-2.1873,-1.9965,-1.9558,-1.9244,-1.8997,-1.8703,-1.8366,-1.8052,-1.7706,-1.7328,-1.6902,-1.6384,-1.5624,-1.4767,-1.3943,-1.305,-1.2143,-1.0898,-0.998,-0.9151,-0.7876,-0.6822,-0.5905,-0.4871,-0.3886,-0.2843,-0.1898,-0.0911,0.0,0.0852,0.2565,0.4394,0.5396,0.6672,0.8236,1.0266,1.1544,1.2613,1.3404,1.4502,1.5552,1.6416,1.7619,1.8887,1.9774,2.0877,2.1814,2.2312,2.3285,2.4028,2.4108,0.0,2.3388,2.3388,2.2079,2.133,2.168,2.1736,2.1732,2.1874,2.1538,2.0928,1.9968,1.7212,1.5287,1.4442,1.1844,1.0103,0.9429,0.8781,0.8444,0.8393,0.8387,0.8343,0.8251,0.8623,0.8805,0.886,0.9292,0.9569,0.975,1.0021,1.0298,1.0583,1.0753,1.0897,1.1015,1.1192,1.1307,1.1399,-2.4777,-2.5908,-2.698,-2.7264,-2.7224,-2.7251,-2.7327,-2.7496,-2.7659,-2.7659,-2.7659,-2.76,-2.7465,-2.7434,-2.7307,-2.6933,-2.6931,-2.6529,-2.5529,-2.5446,-2.5698,-2.628,-2.6162,-2.6127,-2.6101,-2.4251,-2.2467,-2.073,-2.033,-2.0074,-2.0,-1.9702,-1.9485,-1.931,-1.891,-1.8646,-1.8468,-1.7693,-1.7137,-1.6641,-1.5469,-1.4711,-1.4163,-1.2811,-1.184,-1.1089,-0.9775,-0.86,-0.7564,-0.6436,-0.5416,-0.433,-0.3171,-0.2124,-0.1137,-0.0181,0.1234,0.2824,0.4375,0.6788,0.9088,1.0212,1.1611,1.3036,1.397,1.4961,1.6055,1.7294,1.8452,1.9678,2.1027,2.184,2.2724,2.4018,2.4445,2.4767,2.5286,0.0,2.4273,2.4136,2.315,2.2396,2.2348,2.2576,2.2541,2.2234,2.1896,2.1068,1.9499,1.6934,1.4817,1.3215,1.1485,1.0103,0.9078,0.9104,0.8866,0.8318,0.8365,0.8259,0.7956,0.8158,0.8319,0.8484,0.886,0.9143,0.9408,0.9724,1.0046,1.0373,1.0436,1.0681,1.0991,1.1038,1.1108,1.1262,-2.5841,-2.6529,-2.7105,-2.7122,-2.7233,-2.7345,-2.7282,-2.739,-2.7557,-2.7672,-2.7701,-2.7642,-2.7509,-2.7569,-2.7509,-2.7279,-2.7373,-2.7168,-2.6559,-2.6429,-2.6485,-2.6708,-2.6725,-2.6488,-2.6,-2.503,-2.3687,-2.1971,-2.173,-2.1293,-2.0682,-2.055,-2.0449,-2.0348,-2.0058,-1.9834,-1.9692,-1.9082,-1.8565,-1.8034,-1.7113,-1.6405,-1.5763,-1.425,-1.3205,-1.242,-1.1129,-0.9974,-0.8924,-0.8038,-0.6919,-0.5742,-0.4652,-0.3442,-0.2193,-0.124,0.0867,0.3236,0.4841,0.6916,0.8822,1.0065,1.1532,1.2998,1.4216,1.5375,1.6648,1.7888,1.8948,2.0217,2.1944,2.2759,2.3688,2.5245,2.5557,0.0,0.0,2.5257,2.449,2.3943,2.3227,2.2739,2.2555,2.317,2.324,2.2458,2.2187,2.1062,1.8832,1.661,1.4572,1.27,1.0915,0.9808,0.938,0.9319,0.9043,0.8569,0.8457,0.8228,0.7898,0.8043,0.8332,0.8746,0.8959,0.9307,0.9713,0.9991,1.0161,1.0266,1.0413,1.0521,1.0632,1.0656,1.0801,1.0991,-2.6657,-2.6842,-2.704,-2.704,-2.7186,-2.7313,-2.739,-2.739,-2.7465,-2.7672,-2.7701,-2.7672,-2.7539,-2.7689,-2.7719,-2.7557,-2.7647,-2.7677,-2.7569,-2.74,-2.7261,-2.7137,-2.7105,-2.6727,-2.5846,-2.5734,-2.4932,-2.3354,-2.3217,-2.2632,-2.1658,-2.1775,-2.1615,-2.1229,-2.1199,-2.1005,-2.0618,-2.0265,-1.9798,-1.9236,-1.8627,-1.8009,-1.7276,-1.562,-1.4552,-1.3728,-1.2323,-1.1131,-1.0138,-0.9437,-0.83,-0.6956,-0.5995,-0.4707,-0.3304,-0.2376,0.0247,0.3281,0.5081,0.6693,0.821,0.9754,1.1287,1.2742,1.4267,1.5662,1.7013,1.8317,1.949,2.083,2.2668,2.3632,2.4657,2.6312,0.0,0.0,0.0,2.5453,2.4566,2.3887,2.3401,2.3031,2.2996,2.345,2.3389,2.2426,2.1759,2.0401,1.8024,1.6016,1.4004,1.1982,1.0359,0.9563,0.9643,0.9477,0.9216,0.8863,0.8699,0.844,0.8149,0.8289,0.8664,0.9182,0.9286,0.9604,1.0037,1.0253,1.0344,1.0391,1.0554,1.0618,1.0612,1.0547,1.0659,1.0832,-2.6505,-2.6624,-2.6842,-2.7218,-2.7299,-2.739,-2.7612,-2.7672,-2.7672,-2.7701,-2.7701,-2.7701,-2.7701,-2.7864,-2.7968,-2.7957,-2.7968,-2.8025,-2.8119,-2.7943,-2.7742,-2.7465,-2.7465,-2.7087,-2.6264,-2.6264,-2.5742,-2.4751,-2.4556,-2.4058,-2.3316,-2.3846,-2.3304,-2.1957,-2.2446,-2.2177,-2.1385,-2.0975,-2.0698,-2.0434,-1.9748,-1.9317,-1.8838,-1.7104,-1.6061,-1.5306,-1.3455,-1.2097,-1.1062,-1.0342,-0.9256,-0.8018,-0.7167,-0.5901,-0.4581,-0.3593,-0.1259,0.1551,0.3959,0.5881,0.7537,0.9061,1.0719,1.2384,1.4186,1.5721,1.7063,1.8443,2.0167,2.1919,2.3546,2.4602,2.573,2.6983,0.0,0.0,2.6408,2.5505,2.4838,2.4909,2.4154,2.3784,2.4075,2.3336,2.2647,2.2005,2.0168,1.8524,1.7059,1.473,1.2578,1.0611,0.9975,0.9643,0.9524,0.9616,0.9465,0.9078,0.9197,0.9114,0.8906,0.9054,0.934,0.9755,0.9755,0.9863,1.0091,1.0091,1.0455,1.0941,1.0972,1.1222,1.1534,1.1043,1.092,1.0924,-2.6607,-2.6657,-2.6775,-2.7089,-2.7341,-2.7569,-2.7672,-2.7701,-2.776,-2.7979,-2.8025,-2.7979,-2.7904,-2.8025,-2.8099,-2.8071,-2.8136,-2.8201,-2.8273,-2.8201,-2.8063,-2.7824,-2.7719,-2.7566,-2.7321,-2.7239,-2.6796,-2.5895,-2.5685,-2.5188,-2.4437,-2.4611,-2.4096,-2.3051,-2.3265,-2.2919,-2.2158,-2.1807,-2.1552,-2.1352,-2.0782,-2.0302,-1.9778,-1.8373,-1.7132,-1.5968,-1.4751,-1.3288,-1.1902,-1.1695,-1.0664,-0.9286,-0.8417,-0.7132,-0.5542,-0.3447,-0.1453,0.0481,0.229,0.4486,0.6758,0.8567,1.0096,1.1713,1.3755,1.5245,1.663,1.8253,1.9793,2.1312,2.2888,2.4051,2.5153,2.6198,0.0,2.5739,2.5739,2.4801,2.4015,2.3745,2.3223,2.2852,2.2763,2.2443,2.1691,2.044,1.9077,1.7511,1.5592,1.3449,1.1888,1.1003,1.0377,0.9962,0.9674,0.9753,0.9579,0.9245,0.9309,0.9236,0.9004,0.9154,0.9508,1.0071,1.0175,1.0484,1.0905,1.1047,1.1103,1.1143,1.1275,1.13,1.1253,1.1092,1.1077,1.1044,-2.6775,-2.6842,-2.6925,-2.6975,-2.7386,-2.7701,-2.7701,-2.7701,-2.7789,-2.8025,-2.8126,-2.8209,-2.8201,-2.8219,-2.8264,-2.8237,-2.8309,-2.8344,-2.8362,-2.838,-2.8273,-2.8042,-2.7922,-2.7911,-2.7946,-2.794,-2.7628,-2.7003,-2.6854,-2.6365,-2.5586,-2.5733,-2.5259,-2.4306,-2.4486,-2.4026,-2.3074,-2.2777,-2.2446,-2.2056,-2.1582,-2.1118,-2.062,-1.9392,-1.8078,-1.6701,-1.5689,-1.4124,-1.2564,-1.2541,-1.1487,-1.0089,-0.947,-0.7967,-0.5923,-0.3602,-0.1885,-0.0409,0.0922,0.3005,0.5339,0.7587,0.9189,1.0752,1.2806,1.4311,1.579,1.7526,1.907,2.0599,2.2185,2.3403,2.4415,2.5137,2.5006,2.4751,2.4751,2.3886,2.3171,2.2811,2.2578,2.2197,2.1698,2.1319,2.0602,1.9134,1.7855,1.6182,1.3998,1.2359,1.1407,1.1203,1.0458,0.9965,0.9776,0.9769,0.9644,0.9441,0.9507,0.9467,0.9333,0.9491,0.9874,1.0443,1.0599,1.0961,1.1421,1.1544,1.1545,1.1421,1.1561,1.1512,1.137,1.1236,1.1208,1.1161,-2.6975,-2.7154,-2.7218,-2.7057,-2.7386,-2.7701,-2.7701,-2.7701,-2.7701,-2.7701,-2.7979,-2.8291,-2.8562,-2.8484,-2.8424,-2.8502,-2.851,-2.8492,-2.8492,-2.8562,-2.8458,-2.8126,-2.8099,-2.8071,-2.7996,-2.8126,-2.8154,-2.8099,-2.8099,-2.7672,-2.6934,-2.7448,-2.6951,-2.5623,-2.6244,-2.5662,-2.42,-2.3987,-2.3347,-2.2463,-2.2141,-2.1823,-2.1364,-2.0192,-1.8936,-1.7614,-1.6145,-1.4533,-1.3057,-1.2733,-1.1699,-1.0461,-1.0114,-0.8165,-0.574,-0.4216,-0.2746,-0.1315,0.0,0.1446,0.3261,0.5911,0.7831,0.9536,1.1281,1.3018,1.4664,1.6083,1.8203,2.0129,2.142,2.2715,2.3652,2.4097,2.3541,2.3174,2.3459,2.2831,2.2434,2.254,2.2383,2.1958,2.1047,2.0144,1.9226,1.8336,1.6353,1.4328,1.2419,1.1556,1.1063,1.0911,0.9992,0.9546,0.9718,0.9713,0.9683,0.9683,0.9744,0.9892,1.0127,1.0302,1.0572,1.0926,1.1033,1.1195,1.1394,1.1394,1.1586,1.1909,1.1909,1.2018,1.214,1.1606,1.1353,1.1262,-2.7055,-2.7201,-2.7299,-2.7218,-2.7478,-2.7701,-2.7701,-2.7701,-2.7701,-2.7701,-2.7979,-2.8264,-2.8388,-2.8484,-2.8528,-2.8502,-2.851,-2.8543,-2.8619,-2.8712,-2.8687,-2.8518,-2.8414,-2.8327,-2.8219,-2.8353,-2.838,-2.8318,-2.8246,-2.8121,-2.7888,-2.7946,-2.7447,-2.6526,-2.6703,-2.5915,-2.4463,-2.4329,-2.3719,-2.2825,-2.2642,-2.2337,-2.1919,-2.1381,-2.0331,-1.903,-1.7693,-1.6351,-1.5021,-1.384,-1.2749,-1.1591,-0.9898,-0.8293,-0.6745,-0.5266,-0.386,-0.2477,-0.1012,0.0487,0.226,0.4971,0.6692,0.8137,0.9867,1.152,1.3071,1.4475,1.6162,1.7683,1.862,1.9626,2.0327,2.0581,2.0693,2.0759,2.079,2.0555,2.0357,2.0432,1.9899,1.936,1.888,1.8078,1.7153,1.5915,1.4093,1.2757,1.2184,1.1571,1.1141,1.0928,1.0552,1.0083,0.9546,0.9573,0.9536,0.9563,0.9704,0.9902,1.0019,1.0118,1.038,1.0764,1.0888,1.1061,1.1271,1.1346,1.1459,1.1549,1.1601,1.1664,1.1678,1.164,1.1606,1.1528,-2.7152,-2.7233,-2.733,-2.7376,-2.7539,-2.7701,-2.7701,-2.7701,-2.776,-2.7893,-2.8053,-2.8264,-2.8414,-2.8536,-2.8587,-2.8554,-2.8543,-2.8619,-2.8737,-2.881,-2.881,-2.8743,-2.8687,-2.8569,-2.8432,-2.8518,-2.8543,-2.851,-2.8484,-2.844,-2.8458,-2.8353,-2.8005,-2.7521,-2.7565,-2.6867,-2.56,-2.5198,-2.4488,-2.359,-2.3074,-2.2651,-2.2281,-2.1899,-2.0991,-1.975,-1.8683,-1.7485,-1.6214,-1.493,-1.3574,-1.2142,-1.0208,-0.8853,-0.7688,-0.6176,-0.4758,-0.3413,-0.1858,-0.0476,0.1107,0.3177,0.5058,0.6773,0.8338,0.9882,1.1338,1.2551,1.4073,1.5446,1.6096,1.6872,1.7523,1.7861,1.7989,1.8128,1.8524,1.8475,1.8397,1.834,1.8118,1.7615,1.6772,1.6318,1.5486,1.4072,1.2824,1.2007,1.1704,1.1192,1.0814,1.0656,1.0311,0.9969,0.9583,0.9511,0.9473,0.9395,0.9576,0.9744,0.9911,1.0088,1.0312,1.0611,1.0725,1.085,1.1012,1.1061,1.1147,1.1212,1.1266,1.1292,1.1404,1.1463,1.1485,1.149,-2.725,-2.7299,-2.7345,-2.7465,-2.76,-2.7701,-2.7701,-2.7701,-2.7818,-2.8126,-2.8182,-2.8291,-2.8536,-2.8587,-2.8587,-2.8587,-2.8694,-2.8749,-2.881,-2.8881,-2.8881,-2.881,-2.8881,-2.8852,-2.8746,-2.8724,-2.8718,-2.8737,-2.8737,-2.8737,-2.8737,-2.8662,-2.8587,-2.8518,-2.8587,-2.8084,-2.7155,-2.6435,-2.5584,-2.4622,-2.3573,-2.2955,-2.2593,-2.1961,-2.107,-2.0031,-1.9256,-1.8178,-1.6957,-1.5848,-1.4146,-1.223,-1.091,-0.9749,-0.8521,-0.6977,-0.5579,-0.4245,-0.2774,-0.1403,-0.0178,0.0943,0.3045,0.5235,0.6571,0.8108,0.9403,1.0343,1.1905,1.3262,1.365,1.4385,1.5152,1.5662,1.5454,1.548,1.6321,1.6445,1.6404,1.6236,1.6573,1.6315,1.48,1.4594,1.4003,1.2622,1.222,1.1705,1.1001,1.042,1.0154,1.0213,0.9653,0.943,0.9637,0.9518,0.9371,0.9189,0.9421,0.9572,0.9674,1.0098,1.0312,1.038,1.0495,1.0611,1.0639,1.0611,1.0697,1.085,1.085,1.0954,1.1105,1.1142,1.1115,1.1147,-2.7282,-2.7299,-2.733,-2.7345,-2.7539,-2.7701,-2.7701,-2.7701,-2.773,-2.7789,-2.8025,-2.8209,-2.8291,-2.8458,-2.8587,-2.8587,-2.881,-2.8905,-2.8876,-2.8947,-2.8952,-2.897,-2.9021,-2.9315,-2.982,-2.9192,-2.8881,-2.8929,-2.8929,-2.8929,-2.8929,-2.8881,-2.881,-2.8737,-2.8712,-2.8191,-2.7339,-2.7103,-2.6476,-2.5526,-2.4541,-2.4015,-2.363,-2.253,-2.1782,-2.1185,-2.0035,-1.9272,-1.8433,-1.6166,-1.4367,-1.29,-1.1668,-1.0557,-0.9429,-0.7994,-0.6714,-0.5483,-0.4036,-0.2583,-0.1293,-0.0358,0.0985,0.2636,0.4869,0.6371,0.7577,0.8226,0.9406,1.0468,1.1027,1.1391,1.1905,1.2863,1.2936,1.3044,1.3666,1.3886,1.3974,1.3947,1.3737,1.3421,1.2873,1.2125,1.1519,1.1099,1.07,1.0316,0.9933,0.9814,0.9673,0.9621,0.9555,0.9452,0.921,0.9283,0.9283,0.9198,0.963,0.9712,0.9567,0.9872,1.0059,1.0157,1.0196,1.0273,1.04,1.0361,1.04,1.0428,1.0428,1.0477,1.0505,1.0534,1.0572,1.0582,-2.7351,-2.7299,-2.7299,-2.7299,-2.7526,-2.7701,-2.7701,-2.7701,-2.776,-2.7922,-2.8081,-2.8182,-2.8182,-2.8432,-2.8637,-2.8785,-3.0206,-3.0494,-2.9057,-2.897,-2.8994,-2.8994,-2.9389,-2.9816,-3.0239,-2.9764,-2.9544,-2.9632,-2.9637,-2.9476,-2.9089,-2.9067,-2.8998,-2.8929,-2.8905,-2.8602,-2.8088,-2.7634,-2.7115,-2.65,-2.5098,-2.4413,-2.4069,-2.2702,-2.1982,-2.1505,-2.0512,-1.9526,-1.8464,-1.666,-1.5054,-1.3565,-1.2458,-1.1316,-1.0019,-0.8582,-0.7536,-0.6514,-0.4995,-0.3719,-0.2581,-0.1635,-0.0594,0.0858,0.3296,0.473,0.5702,0.6348,0.7355,0.8226,0.8546,0.8953,0.9501,1.0313,1.0436,1.0567,1.1087,1.1355,1.1446,1.1339,1.1219,1.1029,1.0664,1.0322,1.0044,0.9869,0.9582,0.9361,0.9207,0.9123,0.9047,0.9093,0.9204,0.9186,0.9133,0.9278,0.9279,0.9152,0.9485,0.952,0.9405,0.9662,0.9798,0.9804,0.9892,0.9932,0.9922,0.998,1.0019,1.0019,1.0059,1.0127,1.0196,1.0235,1.0312,1.0351,-2.7402,-2.7299,-2.7299,-2.7299,-2.7526,-2.7701,-2.7701,-2.7701,-2.7818,-2.8154,-2.8182,-2.8227,-2.8264,-2.8458,-2.8712,-2.897,-3.1737,-3.2438,-2.9936,-2.947,-2.9305,-2.9397,-3.0063,-3.0491,-3.0686,-3.0662,-3.0538,-3.0332,-3.0249,-2.9865,-2.9218,-2.9218,-2.9156,-2.9089,-2.9085,-2.9021,-2.885,-2.8104,-2.7694,-2.7423,-2.5672,-2.4827,-2.4471,-2.2942,-2.2166,-2.1702,-2.0844,-1.9513,-1.8052,-1.712,-1.5782,-1.431,-1.3316,-1.208,-1.0666,-0.9182,-0.8249,-0.7433,-0.5982,-0.4886,-0.386,-0.2998,-0.1976,-0.0649,0.1495,0.284,0.3857,0.4447,0.5448,0.6242,0.6298,0.6802,0.7423,0.7966,0.8019,0.8135,0.8595,0.8914,0.8998,0.8751,0.8967,0.8991,0.8597,0.8786,0.8883,0.8755,0.8608,0.8546,0.8546,0.8334,0.8368,0.862,0.8692,0.8778,0.9023,0.9179,0.9133,0.8974,0.9133,0.9231,0.9245,0.9598,0.9626,0.9457,0.974,0.9758,0.9596,0.9726,0.9798,0.9784,0.9845,0.9918,1.001,0.9961,1.004,1.0079,-2.7316,-2.7299,-2.7299,-2.7299,-2.7526,-2.7701,-2.7701,-2.7701,-2.7818,-2.8154,-2.8182,-2.8291,-2.851,-2.8587,-2.8712,-2.897,-3.1902,-3.3515,-3.3013,-3.1345,-3.0552,-3.0979,-3.1207,-3.1611,-3.2206,-3.236,-3.18,-3.0465,-2.9739,-2.9351,-2.9302,-2.924,-2.9156,-2.9108,-2.904,-2.8975,-2.8887,-2.8658,-2.8431,-2.8172,-2.6916,-2.6272,-2.5825,-2.3908,-2.2939,-2.247,-2.1214,-1.9793,-1.838,-1.734,-1.6194,-1.5093,-1.415,-1.3002,-1.1733,-1.0487,-0.9504,-0.8501,-0.7235,-0.6091,-0.5105,-0.4411,-0.3471,-0.2492,-0.1351,0.0425,0.2004,0.2518,0.3191,0.384,0.4166,0.4583,0.5145,0.5761,0.5769,0.5868,0.6362,0.6463,0.6573,0.6648,0.691,0.7099,0.7239,0.7345,0.7394,0.7394,0.7469,0.7507,0.7524,0.7591,0.7735,0.8002,0.8168,0.8254,0.8252,0.8511,0.856,0.8405,0.8652,0.8875,0.9063,0.9658,0.9703,0.9292,1.0073,1.0179,0.9869,1.0118,1.0153,1.0062,1.0062,0.9853,0.9554,0.9448,0.9439,0.9399,-2.7093,-2.7137,-2.7345,-2.7496,-2.763,-2.7701,-2.7701,-2.7701,-2.7818,-2.8154,-2.8182,-2.8318,-2.8562,-2.8737,-2.8858,-2.8994,-3.1816,-3.3194,-3.2329,-3.1492,-3.0919,-3.0643,-3.1114,-3.1737,-3.2464,-3.2588,-3.2341,-3.1721,-3.1376,-3.1011,-3.0572,-3.0105,-2.9839,-2.9798,-2.9287,-2.8998,-2.8905,-2.8743,-2.8569,-2.8326,-2.7237,-2.6672,-2.6295,-2.4675,-2.3563,-2.2633,-2.0832,-1.95,-1.8447,-1.7476,-1.6397,-1.5215,-1.425,-1.3186,-1.2016,-1.0859,-1.0062,-0.934,-0.8249,-0.7224,-0.6362,-0.5601,-0.4776,-0.391,-0.3227,-0.2182,-0.0884,0.062,0.144,0.1955,0.207,0.2572,0.3007,0.3301,0.3592,0.3836,0.4025,0.4186,0.4377,0.4772,0.5088,0.5326,0.5561,0.5828,0.6081,0.6263,0.6371,0.6569,0.6761,0.6977,0.7187,0.7568,0.7735,0.7947,0.8138,0.8339,0.8486,0.8561,0.8588,0.8677,0.8854,0.9131,0.9291,0.9341,0.9822,0.9874,0.9753,1.0206,1.0189,0.9906,1.0205,1.0187,0.9924,0.9569,0.9399,0.929]},{"header":{"parameterUnit":"m.s-1","parameterCategory":1,"la1":30.6,"la2":28.766,"lo1":-90.7593,"lo2":-88.6598,"dy":0.0162,"dx":0.0183,"nx":116,"ny":114,"refTime":"2024-03-12T12:00:00:Z","depth":0,"parameterNumber":3,"parameterNumberName":"V-component_of_WINDS"},"data":[0.0,0.0,0.0,0.0,0.0,0.0,0.0,0.0,0.0,0.0,0.0,0.0,0.0,0.0,0.0,0.0,0.0,0.0,0.0,0.0,0.0,0.0,0.0,0.0,0.0,0.0,0.0,0.0,0.0,0.0,0.0,0.0,0.0,0.0,0.0,0.0,0.0,0.0,0.0,0.0,0.0,0.0,0.0,0.0,0.0,0.0,0.0,0.0,0.0,0.0,0.0,0.0,0.0,0.0,0.0,0.0,0.0,0.0,0.0,0.0,0.0,0.0,0.0,0.0,0.0,0.0,0.0,0.0,0.0,0.0,0.0,0.0,0.0,0.0,0.0,0.0,0.0,0.0,0.0,0.0,0.0,0.0,0.0,0.0,0.0,0.0,0.0,0.0,0.0,0.0,0.0,0.0,0.0,0.0,0.0,0.0,0.0,0.0,0.0,0.0,0.0,0.0,0.0,0.0,0.0,0.0,0.0,0.0,0.0,0.0,0.0,0.0,0.0,0.0,0.0,0.0,0.0,0.0,0.0,0.0,0.0,0.0,0.0,0.0,0.0,0.0,0.0,0.0,0.0,0.0,0.0,0.0,0.0,0.0,0.0,0.0,0.0,0.0,0.0,0.0,0.0,0.0,0.0,0.0,0.0,0.0,0.0,0.0,0.0,0.0,0.0,0.0,0.0,0.0,0.0,0.0,0.0,0.0,0.0,0.0,0.0,0.0,0.0,0.0,0.0,0.0,0.0,0.0,0.0,0.0,0.0,0.0,0.0,0.0,0.0,0.0,0.0,0.0,0.0,0.0,0.0,0.0,0.0,0.0,0.0,0.0,0.0,0.0,0.0,0.0,0.0,0.0,0.0,0.0,0.0,0.0,0.0,0.0,0.0,0.0,0.0,0.0,0.0,0.0,0.0,0.0,0.0,0.0,0.0,0.0,0.0,0.0,0.0,0.0,0.0,0.0,0.0,0.0,0.0,0.0,0.0,0.0,0.0,0.0,0.0,0.0,0.0,0.0,0.0,0.0,0.0,0.0,0.0,0.0,0.0,0.0,0.0,0.0,0.0,0.0,0.0,0.0,0.0,0.0,0.0,0.0,0.0,0.0,0.0,0.0,0.0,0.0,0.0,0.0,0.0,0.0,0.0,0.0,0.0,0.0,0.0,0.0,0.0,0.0,0.0,0.0,0.0,0.0,0.0,0.0,0.0,0.0,0.0,0.0,0.0,0.0,0.0,0.0,0.0,0.0,0.0,0.0,0.0,0.0,0.0,0.0,0.0,0.0,0.0,0.0,0.0,0.0,0.0,0.0,0.0,0.0,0.0,0.0,0.0,0.0,0.0,0.0,0.0,0.0,0.0,0.0,0.0,0.0,0.0,0.0,0.0,0.0,0.0,0.0,0.0,0.0,0.0,0.0,0.0,0.0,0.0,0.0,0.0,0.0,0.0,0.0,0.0,0.0,0.0,0.0,0.0,0.0,0.0,0.0,0.0,0.0,0.0,0.0,0.0,0.0,0.0,0.0,0.0,0.0,0.0,0.0,0.0,0.0,0.0,0.0,0.0,0.0,0.0,0.0,0.0,0.0,0.0,0.0,0.0,0.0,0.0,0.0,0.0,0.0,0.0,0.0,0.0,0.0,0.0,0.0,0.0,0.0,0.0,0.0,0.0,0.0,0.0,0.0,0.0,0.0,0.0,0.0,0.0,0.0,0.0,0.0,0.0,0.0,0.0,0.0,0.0,0.0,0.0,0.0,0.0,0.0,0.0,0.0,0.0,0.0,0.0,0.0,0.0,0.0,0.0,0.0,0.0,0.0,0.0,0.0,0.0,0.0,0.0,0.0,0.0,0.0,0.0,0.0,0.0,0.0,0.0,0.0,0.0,0.0,0.0,0.0,0.0,0.0,0.0,0.0,0.0,0.0,0.0,0.0,0.0,0.0,0.0,0.0,0.0,0.0,0.0,0.0,0.0,0.0,0.0,0.0,0.0,0.0,0.0,0.0,0.0,0.0,0.0,0.0,0.0,0.0,0.0,0.0,0.0,0.0,0.0,0.0,0.0,0.0,0.0,0.0,0.0,0.0,0.0,0.0,0.0,0.0,0.0,0.0,0.0,0.0,0.0,0.0,0.0,0.0,0.0,0.0,0.0,0.0,0.0,0.0,0.0,0.0,0.0,0.0,0.0,0.0,0.0,0.0,0.0,0.0,0.0,0.0,0.0,0.0,0.0,0.0,0.0,0.0,0.0,0.0,0.0,0.0,0.0,0.0,0.0,0.0,0.0,0.0,0.0,0.0,0.0,0.0,0.0,0.0,0.0,0.0,0.0,0.0,0.0,0.0,0.0,0.0,0.0,0.0,0.0,0.0,0.0,0.0,0.0,0.0,0.0,0.0,0.0,0.0,0.0,0.0,0.0,0.0,0.0,0.0,0.0,0.0,0.0,0.0,0.0,0.0,0.0,0.0,0.0,0.0,0.0,0.0,0.0,0.0,0.0,0.0,0.0,0.0,0.0,0.0,0.0,0.0,0.0,0.0,0.0,0.0,0.0,0.0,0.0,0.0,0.0,0.0,0.0,0.0,0.0,0.0,0.0,0.0,0.0,0.0,0.0,0.0,0.0,0.0,0.0,0.0,0.0,0.0,0.0,0.0,0.0,0.0,0.0,0.0,0.0,0.0,0.0,0.0,0.0,0.0,0.0,0.0,0.0,0.0,0.0,0.0,0.0,0.0,0.0,0.0,0.0,0.0,0.0,0.0,0.0,0.0,0.0,0.0,0.0,0.0,0.0,0.0,0.0,0.0,0.0,0.0,0.0,0.0,0.0,0.0,0.0,0.0,0.0,0.0,0.0,0.0,0.0,0.0,0.0,0.0,0.0,0.0,0.0,0.0,0.0,0.0,0.0,0.0,0.0,0.0,0.0,0.0,0.0,0.0,0.0,0.0,0.0,0.0,0.0,0.0,0.0,0.0,0.0,0.0,0.0,0.0,0.0,0.0,0.0,0.0,0.0,0.0,0.0,0.0,0.0,0.0,0.0,0.0,0.0,0.0,0.0,0.0,0.0,0.0,0.0,0.0,0.0,0.0,0.0,0.0,0.0,0.0,0.0,0.0,0.0,0.0,0.0,0.0,0.0,0.0,0.0,0.0,0.0,0.0,0.0,0.0,0.0,0.0,0.0,0.0,0.0,0.0,0.0,0.0,0.0,0.0,0.0,0.0,0.0,0.0,0.0,0.0,0.0,0.0,0.0,0.0,0.0,0.0,0.0,0.0,0.0,0.0,0.0,0.0,0.0,0.0,0.0,0.0,0.0,0.0,0.0,0.0,0.0,0.0,0.0,0.0,0.0,0.0,0.0,0.0,0.0,0.0,0.0,0.0,0.0,0.0,0.0,0.0,0.0,0.0,0.0,0.0,0.0,0.0,0.0,0.0,0.0,0.0,0.0,0.0,0.0,0.0,0.0,0.0,0.0,0.0,0.0,0.0,0.0,0.0,0.0,0.0,0.0,0.0,0.0,0.0,0.0,0.0,0.0,0.0,0.0,0.0,0.0,0.0,0.0,0.0,0.0,0.0,0.0,0.0,0.0,0.0,0.0,0.0,0.0,0.0,0.0,0.0,0.0,0.0,0.0,0.0,0.0,0.0,0.0,0.0,0.0,0.0,0.0,0.0,0.0,0.0,0.0,0.0,0.0,0.0,0.0,0.0,0.0,0.0,0.0,0.0,0.0,0.0,0.0,0.0,0.0,0.0,0.0,0.0,0.0,0.0,0.0,0.0,0.0,0.0,0.0,0.0,0.0,0.0,0.0,0.0,0.0,0.0,0.0,0.0,0.0,0.0,0.0,0.0,0.0,0.0,0.0,0.0,0.0,0.0,0.0,0.0,0.0,0.0,0.0,0.0,0.0,0.0,0.0,0.0,0.0,0.0,0.0,0.0,0.0,0.0,0.0,0.0,0.0,0.0,0.0,0.0,0.0,0.0,0.0,0.0,0.0,0.0,0.0,0.0,0.0,0.0,0.0,0.0,0.0,0.0,0.0,0.0,0.0,0.0,0.0,0.0,0.0,0.0,0.0,0.0,0.0,0.0,0.0,0.0,0.0,0.0,0.0,0.0,0.0,0.0,0.0,0.0,0.0,0.0,0.0,0.0,0.0,0.0,0.0,0.0,0.0,0.0,0.0,0.0,0.0,0.0,0.0,0.0,0.0,0.0,0.0,0.0,0.0,0.0,0.0,0.0,0.0,0.0,0.0,0.0,0.0,0.0,0.0,0.0,0.0,0.0,0.0,0.0,0.0,0.0,0.0,0.0,0.0,0.0,0.0,0.0,0.0,0.0,0.0,0.0,0.0,0.0,0.0,0.0,0.0,0.0,0.0,0.0,0.0,0.0,0.0,0.0,0.0,0.0,0.0,0.0,0.0,0.0,0.0,0.0,0.0,0.0,0.0,0.0,0.0,0.0,0.0,0.0,0.0,0.0,0.0,0.0,0.0,0.0,0.0,0.0,0.0,0.0,0.0,0.0,0.0,0.0,0.0,0.0,0.0,0.0,0.0,0.0,0.0,0.0,0.0,0.0,0.0,0.0,0.0,0.0,0.0,0.0,0.0,0.0,0.0,0.0,0.0,0.0,0.0,0.0,0.0,0.0,0.0,0.0,0.0,0.0,0.0,0.0,0.0,0.0,0.0,0.0,0.0,0.0,0.0,0.0,0.0,0.0,0.0,0.0,0.0,0.0,0.0,0.0,0.0,0.0,0.0,0.0,0.0,0.0,0.0,0.0,0.0,0.0,0.0,0.0,0.0,0.0,0.0,0.0,0.0,0.0,0.0,0.0,0.0,0.0,0.0,0.0,0.0,0.0,0.0,0.0,0.0,0.0,0.0,0.0,0.0,0.0,0.0,0.0,0.0,0.0,0.0,0.0,0.0,0.0,0.0,0.0,0.0,0.0,0.0,0.0,0.0,0.0,0.0,0.0,0.0,0.0,0.0,0.0,0.0,0.0,0.0,0.0,0.0,0.0,0.0,0.0,0.0,0.0,0.0,0.0,0.0,0.0,0.0,0.0,0.0,0.0,0.0,0.0,0.0,0.0,0.0,0.0,0.0,0.0,0.0,0.0,0.0,0.0,0.0,0.0,0.0,0.0,0.0,0.0,0.0,0.0,0.0,0.0,0.0,0.0,0.0,0.0,0.0,0.0,0.0,0.0,0.0,0.0,0.0,0.0,0.0,0.0,0.0,0.0,0.0,0.0,0.0,0.0,0.0,0.0,0.0,0.0,0.0,0.0,0.0,0.0,0.0,0.0,0.0,0.0,0.0,0.0,0.0,0.0,0.0,0.0,0.0,0.0,0.0,0.0,0.0,0.0,0.0,0.0,0.0,0.0,0.0,0.0,0.0,0.0,0.0,0.0,0.0,0.0,0.0,0.0,0.0,0.0,0.0,0.0,0.0,0.0,0.0,0.0,0.0,0.0,0.0,0.0,0.0,0.0,0.0,0.0,0.0,0.0,0.0,0.0,0.0,0.0,0.0,0.0,0.0,0.0,0.0,0.0,0.0,0.0,0.0,0.0,0.0,0.0,0.0,0.0,0.0,0.0,0.0,0.0,0.0,0.0,0.0,0.0,0.0,0.0,0.0,0.0,0.0,0.0,0.0,0.0,0.0,0.0,0.0,0.0,0.0,0.0,0.0,0.0,0.0,0.0,0.0,0.0,0.0,0.0,0.0,0.0,0.0,0.0,0.0,0.0,0.0,0.0,0.0,0.0,0.0,0.0,0.0,0.0,0.0,0.0,0.0,0.0,0.0,0.0,0.0,0.0,0.0,0.0,0.0,0.0,0.0,0.0,0.0,0.0,0.0,0.0,0.0,0.0,0.0,0.0,0.0,0.0,0.0,0.0,0.0,0.0,0.0,0.0,0.0,0.0,0.0,0.0,0.0,0.0,0.0,0.0,0.0,0.0,0.0,0.0,0.0,0.0,0.0,0.0,0.0,0.0,0.0,0.0,0.0,0.0,0.0,0.0,0.0,0.0,0.0,0.0,0.0,0.0,0.0,0.0,0.0,0.0,0.0,0.0,0.0,0.0,0.0,0.0,0.0,0.0,0.0,0.0,0.0,0.0,0.0,0.0,0.994,0.0,0.0,0.0,0.0,0.0,0.0,0.0,0.0,0.0,0.0,0.0,0.0,0.0,0.0,0.0,0.0,0.0,0.0,0.0,0.0,0.0,0.0,0.0,0.0,0.0,0.0,0.0,-0.3378,-0.2893,-0.2491,-0.1214,-0.0101,0.0695,0.1574,0.2411,0.323,0.3988,0.4966,0.6131,0.7348,0.8601,0.9926,1.0769,1.1406,1.1979,0.0,0.0,0.0,0.0,0.0,0.0,0.0,0.0,0.0,0.0,0.0,0.0,0.0,0.0,0.0,0.0,0.0,0.0,0.0,0.0,0.0,0.0,0.0,0.0,0.0,0.0,0.0,0.0,0.0,0.0,0.0,0.0,0.0,0.0,0.0,0.0,0.0,0.0,0.0,0.0,0.0,0.0,0.0,0.0,0.0,0.0,0.0,0.0,0.0,0.0,0.0,0.0,0.0,0.0,0.0,0.0,0.0,0.0,0.0,0.0,0.0,0.0,0.0,0.0,0.0,0.0,0.0,0.0,0.0,0.0,0.0,0.9886,0.0,0.0,0.0,0.0,0.0,0.0,0.0,0.0,0.0,0.0,0.0,0.0,0.0,0.0,0.0,0.0,0.0,0.0,0.0,0.0,0.0,0.0,0.0,-0.3983,-0.3985,-0.3491,-0.2886,-0.233,-0.1861,-0.0651,0.0393,0.12,0.2063,0.2795,0.3363,0.4174,0.5094,0.6124,0.7684,0.927,1.083,1.1467,1.2147,0.0,0.0,0.0,0.0,0.0,0.0,0.0,0.0,0.0,0.0,0.0,0.0,0.0,0.0,0.0,0.0,0.0,0.0,0.0,0.0,0.0,0.0,0.0,0.0,0.0,0.0,0.0,0.0,0.0,0.0,0.0,0.0,0.0,0.0,0.0,0.0,0.0,0.0,0.0,0.0,0.0,0.0,0.0,0.0,0.0,0.0,0.0,0.0,0.0,0.0,0.0,0.0,0.0,0.0,0.0,0.0,0.0,0.0,0.0,0.0,0.0,0.0,0.0,0.0,0.0,0.5844,0.5841,0.611,0.9402,1.1025,1.1236,1.0975,1.0894,1.0854,0.0,0.0,0.0,0.0,0.0,0.0,0.0,0.0,0.0,0.0,0.0,0.0,0.0,0.0,0.0,0.0,0.0,0.0,0.0,0.0,0.0,0.0,-0.3156,-0.3205,-0.2845,-0.2218,-0.1628,-0.1162,-0.0045,0.0959,0.1768,0.2359,0.2874,0.3313,0.4171,0.5,0.5851,0.7974,0.9628,1.0886,1.1507,1.2298,1.3162,0.0,0.0,0.0,0.0,0.0,0.0,0.0,0.0,0.0,0.0,0.0,0.0,0.0,0.0,0.0,0.0,0.0,0.0,0.0,0.0,0.0,0.0,0.0,0.0,0.0,0.0,0.0,0.0,0.0,0.0,0.0,0.0,0.0,0.0,0.0,0.0,0.0,0.0,0.0,0.0,0.0,0.0,0.0,0.0,0.1328,0.1202,0.0,0.0,0.0,0.0,0.0,0.0,0.0,0.0,0.0,0.0,0.0,0.0,0.0,0.3363,0.502,0.6081,0.6127,0.5179,0.7348,0.8843,0.9704,1.2101,1.299,1.2681,1.299,0.0,1.3166,1.3119,0.0,0.0,0.0,0.0,0.0,0.0,0.0,0.0,0.0,0.0,0.0,0.0,0.0,0.0,0.0,0.0,0.0,0.0,0.0,0.0,0.0,-0.2339,-0.2374,-0.1846,-0.1429,-0.1153,-0.1055,0.0185,0.1311,0.2197,0.2651,0.3015,0.3348,0.414,0.5104,0.6194,0.7915,0.9248,1.0187,1.1376,1.2217,1.2715,1.3293,1.3575,1.3588,1.3544,0.0,0.0,0.0,0.0,0.0,0.0,0.0,0.0,0.0,0.0,0.0,0.0,0.0,0.0,0.0,0.0,0.0,0.0,0.0,0.0,0.0,0.0,0.0,0.0,0.0,0.0,0.0,0.0,0.0,0.0,0.0,0.0,0.0,0.0,0.0,0.0,0.0,0.0,0.0,0.1853,0.1822,0.1554,0.1262,0.1106,0.0,0.0,0.0,0.0,0.0,0.0,0.0,0.0,0.0,0.1857,0.289,0.4037,0.5248,0.591,0.6431,0.6801,0.804,0.8961,0.9631,1.1786,1.2813,1.2881,1.2803,1.3449,1.454,1.3611,1.2375,1.1031,0.0,0.0,0.0,0.0,0.9403,0.9462,0.0,0.0,0.0,0.0,0.0,0.0,0.0,0.0,0.0,0.0,0.0,0.0,-0.0857,-0.1289,-0.1332,-0.0882,-0.064,-0.0542,-0.0584,0.0509,0.148,0.2245,0.2587,0.2865,0.305,0.3918,0.5086,0.6567,0.7817,0.8819,0.9662,1.1172,1.1996,1.2187,1.32,1.3685,1.383,1.3933,1.3629,0.0,0.0,0.0,0.0,0.0,0.0,0.0,0.0,0.0,0.0,0.0,0.0,0.0,0.0,0.0,0.0,0.0,0.0,0.0,0.0,0.0,0.0,0.0,0.0,0.0,0.0,0.0,0.0,0.0,0.0,0.0,0.0,0.0,0.0,0.0,0.0,0.0,0.0,0.1998,0.2111,0.1822,0.1605,0.154,0.0,0.0,0.0,0.0,0.0,0.0,0.1086,0.1201,0.167,0.2714,0.3677,0.4614,0.563,0.5832,0.6648,0.8042,0.8315,0.8731,0.9234,1.1041,1.2126,1.248,1.2076,1.3037,1.4838,1.3733,1.2767,1.1832,1.1435,1.1329,1.1377,1.15,1.1324,1.1137,0.0,0.0,0.0,0.0,0.0,0.0,0.0,0.0,0.0,0.0,0.0,0.1617,0.0438,0.0177,0.0021,-0.0138,0.0097,0.0408,0.0768,0.1112,0.1391,0.1642,0.1959,0.213,0.2063,0.3343,0.4891,0.6677,0.7708,0.8711,0.9724,1.0774,1.1457,1.1874,1.2724,1.3389,1.3803,1.4009,1.3723,1.3065,0.0,0.0,0.0,0.0,0.0,0.0,0.0,0.0,0.0,0.0,0.0,0.0,0.0,0.0,0.0,0.0,0.0,0.0,0.0,0.0,0.0,0.0,0.0,0.0,0.0,0.0,0.0,0.0,0.0,0.0,0.0,0.0,0.0,0.0,0.0,0.0,0.0,0.0,0.0,0.18,0.1851,0.0,0.0,0.0,0.0,0.1737,0.1303,0.1293,0.1886,0.2707,0.3237,0.3467,0.4197,0.5092,0.624,0.6522,0.7,0.7627,0.8346,0.8996,0.9621,1.0821,1.1368,1.1377,1.1368,1.2178,1.3623,1.4168,1.3193,1.1368,1.185,1.2039,1.2144,1.3061,1.3491,1.3547,0.0,0.0,0.0,0.0,0.0,0.0,0.0,0.0,0.3604,0.3061,0.2599,0.2115,0.156,0.1061,0.0764,0.0741,0.0704,0.0687,0.0708,0.0995,0.1135,0.102,0.1549,0.2065,0.25,0.3876,0.4959,0.5735,0.7173,0.8109,0.8584,1.0059,1.0818,1.0967,1.2036,1.2825,1.3324,1.3615,1.3418,1.291,1.2786,1.2323,0.0,0.0,0.0,0.0,0.0,0.0,0.0,0.0,0.0,0.0,0.0,0.0,0.0,0.0,0.0,0.0,0.0,0.0,0.0,0.0,0.0,0.0,0.0,0.0,0.0,0.0,0.0,0.0,0.0,0.0,0.0,0.0,0.0,0.0,0.0,0.0,0.0,0.2454,0.2175,0.0,0.2466,0.1973,0.1861,0.2395,0.2064,0.2077,0.2674,0.2987,0.3371,0.3819,0.4339,0.501,0.5844,0.6341,0.7005,0.7803,0.8197,0.8693,0.9361,0.9925,1.0395,1.0826,1.175,1.2445,1.2981,1.358,1.3379,1.2771,1.3411,1.3644,1.3663,1.3702,1.4111,1.4677,0.0,0.0,0.0,0.0,0.0,0.0,0.0,0.0,0.352,0.3206,0.2936,0.263,0.2268,0.1794,0.1392,0.112,0.0954,0.0799,0.0646,0.0758,0.0816,0.08,0.1234,0.1796,0.2479,0.3621,0.4546,0.5214,0.6415,0.7315,0.7935,0.9183,0.99,1.0142,1.1053,1.167,1.2019,1.2559,1.278,1.2732,1.2686,1.2223,1.1491,0.0,0.0,0.0,0.0,0.0,0.0,0.0,0.0,0.0,0.0,0.0,0.0,0.0,0.0,0.0,0.0,0.0,0.0,0.0,0.0,0.0,0.0,0.0,0.0,0.0,0.0,0.0,0.0,0.0,0.0,0.0,0.0,0.0,0.0,0.0,0.2022,0.2649,0.246,0.2455,0.2903,0.2551,0.2522,0.299,0.2768,0.2805,0.3234,0.3299,0.3539,0.4053,0.453,0.5042,0.5666,0.6275,0.6911,0.7675,0.8129,0.8505,0.8738,0.8942,0.9596,1.0609,1.1736,1.2375,1.2621,1.3033,1.3329,1.3571,1.4258,1.4625,1.4787,1.4449,1.4753,1.5235,0.0,0.0,0.0,0.0,0.0,0.0,0.0,0.3442,0.3454,0.3314,0.3424,0.3256,0.2589,0.2404,0.1951,0.1022,0.0865,0.0774,0.068,0.0443,0.051,0.0969,0.0988,0.1275,0.1895,0.2578,0.3674,0.518,0.5521,0.6422,0.7847,0.8201,0.8735,0.9434,0.9882,1.0044,1.0033,1.0808,1.1661,1.2574,1.2692,1.2001,1.0817,0.0,0.0,0.0,0.0,0.0,0.0,0.0,0.0,0.0,0.0,0.0,0.0,0.0,0.0,0.0,0.0,0.0,0.0,0.0,0.0,0.0,0.0,0.0,0.0,0.0,0.0,0.0,0.0,0.0,0.0,0.0,0.0,0.0,0.1766,0.1579,0.1678,0.2344,0.2652,0.2872,0.3013,0.3207,0.3314,0.3389,0.3421,0.3482,0.3624,0.3747,0.3916,0.42,0.4787,0.5331,0.5744,0.6384,0.6835,0.7186,0.8212,0.8435,0.7949,0.7949,0.8909,1.0624,1.1247,1.1934,1.256,1.256,1.2944,1.3579,1.4216,1.4852,1.5352,1.5352,1.543,1.5391,0.0,0.0,0.0,0.0,0.0,0.0,0.0,0.3167,0.346,0.3381,0.3533,0.3471,0.2983,0.2908,0.2603,0.1901,0.147,0.0922,0.0165,0.0373,0.0598,0.0774,0.0729,0.0,0.1956,0.316,0.4119,0.4829,0.5464,0.5983,0.639,0.6968,0.7315,0.7512,0.8703,0.9413,0.9699,0.9533,1.0172,1.1322,1.1667,1.1454,1.0911,0.0,0.0,0.0,0.0,0.0,0.0,0.0,0.0,0.0,0.0,0.0,0.0,0.0,0.0,0.0,0.0,0.0,0.0,0.0,0.0,0.0,0.0,0.0,0.0,0.0,0.0,0.0,0.0,0.0,0.0,0.0,0.0,0.1557,0.1766,0.204,0.2396,0.2924,0.305,0.3298,0.3897,0.36,0.3524,0.3788,0.3674,0.3585,0.3729,0.3886,0.3938,0.3995,0.4476,0.4847,0.5083,0.5605,0.6175,0.6762,0.7636,0.8294,0.8667,0.8432,0.889,0.9868,1.0561,1.1247,1.1934,1.2375,1.3284,1.4231,1.3885,1.4181,1.4743,1.4743,1.5409,1.6318,0.0,0.0,0.0,0.0,0.0,0.0,0.0,0.2841,0.3336,0.3468,0.3661,0.3715,0.3546,0.3335,0.2898,0.2108,0.1231,0.0518,0.0022,0.0105,0.0,0.0,0.0,0.0889,0.1856,0.3197,0.4108,0.4578,0.5055,0.5445,0.5764,0.6103,0.6396,0.67,0.7526,0.8065,0.8343,0.8247,0.87,0.9468,0.9684,0.9971,1.022,0.9636,0.8667,0.7576,0.7066,0.6171,0.5125,0.4686,0.0,0.0,0.0,0.0,0.0,0.0,0.0,0.0,0.0,0.0,0.0,0.0,0.0,0.0,0.0,0.0,0.0,0.0,0.0,0.0,0.0,0.0,0.0,0.0,0.1631,0.1886,0.2001,0.2196,0.2582,0.3248,0.3508,0.3803,0.409,0.3852,0.3739,0.3988,0.3823,0.3685,0.3619,0.3691,0.364,0.3401,0.3856,0.419,0.425,0.4696,0.5216,0.5804,0.6677,0.7386,0.7912,0.8052,0.8571,0.0,0.9926,1.0561,1.129,1.2473,1.3439,0.0,0.0,0.0,0.0,0.0,1.6398,1.7187,0.0,0.0,0.0,0.0,0.0,0.0,0.0,0.2375,0.3012,0.3313,0.3548,0.3806,0.4093,0.3744,0.3085,0.2099,0.0712,-0.0124,-0.0148,0.0,0.0,-0.1305,-0.0379,0.0663,0.1774,0.299,0.3858,0.436,0.4534,0.494,0.5581,0.5473,0.5766,0.6386,0.6423,0.6461,0.6547,0.7037,0.7345,0.751,0.7372,0.8038,0.9051,0.8371,0.7841,0.7289,0.596,0.5454,0.5258,0.4406,0.0,0.0,0.0,0.0,0.0,0.0,0.0,0.0,0.0,0.0,0.0,0.0,0.0,0.0,0.0,0.0,0.0,0.0,0.0,0.0,0.0,0.0,0.0,0.0,0.189,0.2286,0.2365,0.2253,0.2513,0.3418,0.393,0.4129,0.3877,0.3906,0.3954,0.3949,0.378,0.3603,0.3421,0.0,0.0,0.0,0.0,0.3412,0.3356,0.3694,0.4008,0.4356,0.5348,0.6013,0.6288,0.7068,0.8112,0.9285,0.9285,0.9802,1.077,1.2593,1.3492,1.3663,1.3712,1.4145,1.4894,1.6854,1.7735,1.79,0.0,0.0,0.0,0.0,0.0,0.0,0.0,0.145,0.2161,0.1866,0.2187,0.2917,0.4129,0.4127,0.3854,0.3367,0.1563,-0.0158,-0.1577,0.0,-0.1976,-0.028,-0.0207,0.0596,0.2312,0.3276,0.3862,0.4073,0.4475,0.4759,0.4901,0.4919,0.4974,0.5086,0.5733,0.6031,0.6037,0.6196,0.6557,0.6974,0.6366,0.6875,0.7936,0.7266,0.6561,0.5886,0.5597,0.4879,0.4031,0.3793,0.3495,0.3222,0.3284,0.0,0.0,0.0,0.0,0.0,0.0,0.0,0.0,0.0,0.0,0.0,0.0,0.0,0.0,0.0,0.0,0.0,0.0,0.0,0.0,0.1878,0.2001,0.2215,0.2723,0.2666,0.2837,0.3557,0.3746,0.3771,0.3679,0.3628,0.363,0.3664,0.3308,0.3197,0.354,0.3186,0.0,0.1835,0.2498,0.2669,0.2394,0.275,0.2954,0.2945,0.0,0.0,0.5624,0.6613,0.7335,0.7912,0.7912,0.9062,1.1112,1.2138,1.3258,1.4474,1.5124,1.5429,1.5738,1.7347,1.794,1.7988,0.0,0.0,0.0,0.0,0.0,0.0,0.0,0.1258,0.2437,0.2536,0.2351,0.2485,0.3223,0.3742,0.3889,0.3475,0.1302,-0.0993,0.0,-0.2972,-0.2157,-0.0806,-0.0492,0.0357,0.1866,0.2886,0.3457,0.3604,0.4067,0.4335,0.4409,0.4471,0.4493,0.4517,0.5029,0.5241,0.5252,0.5351,0.578,0.6366,0.5954,0.6172,0.6707,0.6294,0.5861,0.5385,0.4924,0.4226,0.3514,0.3279,0.2959,0.2665,0.2761,0.2989,0.3293,0.0,0.0,0.0,0.0,0.0,0.0,0.0,0.0,0.0,0.0,0.0,0.0,0.0,0.0,0.2551,0.1535,0.0,0.1404,0.1885,0.2058,0.2267,0.2567,0.2543,0.2733,0.3428,0.3576,0.3424,0.3055,0.3027,0.307,0.3077,0.2888,0.2647,0.2402,0.1877,0.122,0.044,0.1007,0.1157,0.067,0.1305,0.1697,0.1811,0.2746,0.3685,0.4694,0.5659,0.6392,0.7025,0.8176,0.9614,1.1186,1.2003,1.2966,1.4137,1.4713,1.5292,1.5938,1.7047,1.7461,1.7529,0.0,0.0,0.0,0.0,0.0,0.0,0.0,0.0897,0.231,0.2897,0.2578,0.2283,0.2283,0.3245,0.3585,0.282,0.0585,0.0,0.0,-0.3177,-0.2123,-0.1483,-0.0762,0.0162,0.1272,0.2335,0.289,0.297,0.3411,0.3696,0.384,0.3948,0.4014,0.4083,0.4328,0.4443,0.4475,0.4641,0.5165,0.5881,0.5834,0.5891,0.6007,0.5843,0.5523,0.5043,0.4336,0.3718,0.3183,0.283,0.2432,0.2119,0.2256,0.2517,0.2897,0.3571,0.3903,0.0,0.0,0.0,0.0,0.0,0.0,0.0,0.0,0.0,0.3743,0.3271,0.3208,0.2946,0.1898,0.1601,0.1584,0.1864,0.2094,0.2275,0.2317,0.2314,0.2509,0.306,0.3293,0.3149,0.2534,0.2176,0.2003,0.214,0.2086,0.1711,0.103,0.0343,-0.0357,-0.1045,-0.0857,-0.0751,-0.0791,0.0065,0.0648,0.1067,0.1942,0.2818,0.3763,0.4732,0.5676,0.6523,0.8783,1.0293,1.1186,1.1855,1.2673,1.3419,1.392,1.4713,1.5655,1.6421,1.6769,1.6968,0.0,0.0,0.0,0.0,0.0,0.0,0.0,0.0,0.006,0.0376,0.1464,0.2206,0.2206,0.3223,0.3156,0.1325,0.0,0.0,-0.377,-0.3438,-0.2512,-0.1039,-0.0492,0.0258,0.1283,0.2014,0.2297,0.2137,0.2491,0.2754,0.295,0.314,0.3227,0.3261,0.3631,0.3864,0.3991,0.4314,0.4973,0.5813,0.5875,0.6239,0.6758,0.6565,0.5558,0.4257,0.4336,0.3639,0.2655,0.2434,0.1893,0.1394,0.1819,0.2103,0.2462,0.3365,0.0,0.3951,0.4529,0.425,0.3832,0.3909,0.5584,0.7185,0.0,0.0,0.5813,0.5287,0.4257,0.3185,0.2295,0.1983,0.1926,0.2202,0.2124,0.2111,0.2344,0.2347,0.2347,0.2481,0.2835,0.3014,0.2853,0.0911,-0.0091,0.053,0.0204,0.0054,0.0116,-0.076,-0.155,-0.2032,-0.2765,-0.2591,-0.1247,-0.0373,0.0315,0.0844,0.1793,0.2484,0.3027,0.4389,0.5479,0.6391,0.8443,0.9992,1.1111,1.1558,1.2224,1.3046,1.3768,1.4353,1.4856,1.5655,1.636,1.6908,0.0,0.0,0.0,0.0,0.0,0.0,0.0,0.0,0.0,-0.0015,0.0544,0.1571,0.3288,0.383,0.3558,0.2237,0.0,0.0,-0.2098,-0.2219,-0.1674,-0.0373,0.0023,0.0476,0.1053,0.1423,0.1539,0.1423,0.1711,0.1978,0.2219,0.23,0.2427,0.259,0.2876,0.322,0.3621,0.3928,0.4908,0.6282,0.6427,0.6954,0.7683,0.7874,0.7003,0.5609,0.51,0.4197,0.0,0.0,0.2045,0.1437,0.1785,0.2031,0.239,0.3375,0.3723,0.0,0.5908,0.652,0.666,0.0,0.745,0.8106,0.7635,0.7061,0.6488,0.5918,0.4697,0.3443,0.2496,0.2176,0.2088,0.0,0.1952,0.191,0.2137,0.178,0.1597,0.1894,0.1528,0.1148,0.0848,-0.0603,-0.1396,-0.1104,-0.1064,-0.1323,-0.1929,-0.236,-0.2618,-0.2694,-0.2969,-0.2817,-0.2279,-0.109,-0.0308,0.0129,0.1239,0.1984,0.2559,0.3736,0.4919,0.6242,0.8259,0.9435,0.9856,1.0712,1.1537,1.2188,1.2913,1.3682,1.4513,1.5443,1.6008,1.6289,0.0,0.0,0.0,0.0,0.0,0.0,0.0,0.0,0.0,0.0,0.0,0.0816,0.2948,0.3463,0.3492,0.0,0.0,0.0,0.0,-0.0968,-0.0764,0.001,0.0357,0.0,0.0759,0.09,0.0926,0.0861,0.0985,0.117,0.1414,0.1428,0.1533,0.1713,0.2114,0.2576,0.3114,0.3796,0.5068,0.667,0.7127,0.7845,0.8646,0.8966,0.845,0.7392,0.6234,0.5024,0.0,0.0,0.2613,0.1871,0.2105,0.2302,0.2658,0.3743,0.4254,0.4932,0.7082,0.8283,0.8925,0.8925,0.8919,0.8731,0.8065,0.7454,0.6832,0.6141,0.4875,0.3634,0.2717,0.2389,0.2211,0.2074,0.1802,0.166,0.1823,0.128,0.0991,0.1278,0.0437,-0.0422,-0.1136,-0.2213,-0.2804,-0.2622,-0.2403,-0.2601,-0.3362,-0.3465,-0.3345,-0.2969,-0.2798,-0.2671,-0.2639,-0.1601,-0.0848,-0.0383,0.0835,0.1635,0.2022,0.3244,0.4491,0.5795,0.7607,0.8382,0.8436,0.9691,1.0598,1.1166,1.1961,1.2933,1.4014,1.5002,1.557,1.5876,0.0,0.0,0.0,0.0,0.0,0.0,0.0,0.0,0.0,0.0,0.0,0.0,0.0,0.0,0.0,0.0,0.0,0.0,0.0,-0.0096,-0.0127,-0.0098,0.0354,0.0544,0.0416,0.0544,0.0579,0.0513,0.0267,0.0245,0.0444,0.0505,0.0514,0.049,0.1347,0.1918,0.2347,0.4055,0.5513,0.6797,0.7916,0.8876,0.9638,0.9592,0.9506,0.9213,0.7691,0.0,0.0,0.0,0.3598,0.2686,0.2821,0.2958,0.0,0.4587,0.551,0.6364,0.7484,0.0,0.9472,0.9473,0.9421,0.9253,0.8771,0.7994,0.7125,0.6183,0.4875,0.3703,0.3101,0.2665,0.2348,0.2211,0.1708,0.1323,0.1411,0.1113,0.082,0.0568,-0.0067,-0.1,0.0,-0.3947,-0.4626,-0.3997,-0.3876,-0.3748,-0.3503,-0.378,-0.3547,-0.256,-0.2613,-0.2333,-0.1633,-0.151,-0.1139,-0.0371,0.089,0.1439,0.1413,0.3182,0.4274,0.4908,0.6037,0.6788,0.7245,0.8548,0.948,1.0251,1.1374,1.2262,1.296,1.3932,1.4924,1.5797,0.0,0.0,0.0,0.0,0.0,0.0,0.0,0.0,0.0,0.0,0.0,0.0,0.0,0.0,0.0,0.0,0.0,0.0,0.0,0.0527,0.0749,0.0701,0.106,0.1162,0.0936,0.0794,0.0632,0.0435,0.0078,-0.0089,-0.0067,-0.0132,-0.0011,0.0273,0.0431,0.1259,0.2613,0.3827,0.5329,0.7045,0.8812,1.0011,1.0814,1.1379,1.1575,1.1407,0.0,0.0,0.0,0.0,0.5781,0.5116,0.5295,0.5296,0.5316,0.5733,0.6562,0.7383,0.7666,0.8458,0.9284,0.9447,0.9275,0.8979,0.864,0.8472,0.7756,0.5471,0.6195,0.6674,0.4907,0.3898,0.3249,0.2977,0.1594,0.0695,0.109,0.045,0.0189,0.0835,0.0067,0.0,0.0,0.0,0.0,-0.4124,-0.3528,-0.3196,-0.3236,-0.293,-0.2576,-0.2227,-0.234,-0.2165,-0.174,-0.1476,-0.1218,-0.0898,0.0378,0.1257,0.166,0.2648,0.3356,0.3918,0.5086,0.5846,0.6466,0.7482,0.8338,0.9162,0.9988,1.086,1.1776,1.2387,1.3218,1.4142,0.0,0.0,0.0,0.0,0.0,0.0,0.0,0.0,0.0,0.0,0.0,0.0,0.0,0.0,0.0,0.0,0.0,0.0,0.0,0.0,0.1436,0.1484,0.1653,0.1685,0.1557,0.1252,0.0893,0.0506,-0.011,-0.0476,-0.0584,-0.0723,-0.0663,-0.0431,-0.0248,0.0712,0.231,0.3948,0.5582,0.7311,0.9626,1.0864,1.1429,1.2297,1.2629,0.0,0.0,0.0,0.0,0.8084,0.7204,0.6597,0.668,0.6758,0.6834,0.6867,0.7515,0.8214,0.8207,0.8664,0.9206,0.9358,0.9228,0.9085,0.907,0.9245,0.8614,0.5846,0.7037,0.7933,0.5851,0.4761,0.3866,0.2824,0.1649,0.087,0.0828,0.0435,0.0399,0.11,0.047,-0.0201,0.0,0.0,0.0,-0.3936,-0.3256,-0.285,-0.2976,-0.2408,-0.202,-0.1769,-0.1983,-0.1871,-0.1572,-0.1347,-0.1084,-0.0708,0.0062,0.0907,0.1679,0.2168,0.2651,0.3061,0.4003,0.4677,0.5272,0.6075,0.6833,0.7618,0.856,0.9503,1.0316,1.1169,1.1861,1.2617,0.0,0.0,0.0,0.0,0.0,0.0,0.0,0.0,0.0,0.0,0.0,0.0,0.0,0.0,0.0,0.0,0.0,0.0,0.0,0.0,0.0,0.2171,0.2092,0.2085,0.2187,0.1799,0.1298,0.0692,-0.0317,-0.0911,-0.1097,-0.1234,-0.1405,-0.1553,-0.0758,0.025,0.1544,0.4373,0.6271,0.7616,1.0351,1.1493,1.1621,1.2494,0.0,0.0,0.0,0.0,0.0,0.0,0.7968,0.723,0.7139,0.75,0.7937,0.7978,0.8396,0.8891,0.9039,0.9199,0.9287,0.9243,0.9332,0.9556,0.9986,1.0199,0.9629,0.7263,0.7478,0.7608,0.0,0.0,0.4268,0.2024,0.1901,0.1717,0.0653,0.0977,0.1321,0.0,0.0,0.0,0.0,0.0,0.0,-0.332,0.0,-0.2747,-0.262,-0.2224,-0.1713,-0.1204,-0.1563,-0.1567,-0.1119,-0.1121,-0.0685,0.0059,-0.0061,0.0432,0.1361,0.1842,0.2123,0.2381,0.2829,0.3272,0.371,0.4405,0.5076,0.5691,0.7286,0.8175,0.8719,1.0128,1.0863,1.1338,0.0,0.0,0.0,0.0,0.0,0.0,0.0,0.0,0.0,0.0,0.0,0.0,0.0,0.0,0.0,0.0,0.0,0.0,0.0,0.0,0.0,0.0,0.0,0.0,0.0,0.0,0.0,0.0,0.0,-0.1049,-0.1103,-0.1239,-0.1357,0.0,-0.1696,-0.0307,0.2313,0.4252,0.6339,0.8573,0.0,1.2764,1.3434,0.0,0.0,0.0,0.0,0.0,0.0,0.0,0.0,0.0,0.9936,0.9938,0.9606,0.9321,0.9429,0.9525,0.9083,0.9126,0.9337,0.9474,0.9747,0.9998,1.0017,1.0131,0.9788,0.8209,0.8619,0.8935,0.0,0.0,0.0,0.4219,0.2819,0.0,0.0837,0.1022,0.0,0.1967,0.0,0.125,0.0849,0.0188,0.0,0.0,-0.1722,-0.1617,-0.132,-0.0768,-0.0533,-0.0675,-0.1094,-0.129,-0.1241,-0.1053,-0.0742,-0.0294,-0.0297,0.0121,0.105,0.1182,0.131,0.137,0.1681,0.2302,0.3047,0.3635,0.4232,0.4968,0.5921,0.6727,0.7536,0.8386,0.9137,0.9819,0.0,0.0,0.0,0.0,0.0,0.0,0.0,0.0,0.0,0.0,0.0,0.0,0.0,0.0,0.0,0.0,0.0,0.0,0.0,0.0,0.0,0.0,0.0,0.0,0.0,0.0,0.0,0.0,0.0,0.0,0.0,-0.1085,-0.1008,-0.0791,-0.0924,0.0281,0.2588,0.0,0.0,0.0,0.0,0.0,0.0,0.0,0.0,0.0,0.0,0.0,0.0,0.0,0.0,1.0667,1.1228,1.1082,1.0694,1.0444,0.0,1.0331,0.9721,0.9997,1.0439,1.0434,1.0641,1.0902,1.1096,1.1431,1.1218,0.9485,0.9833,0.0,0.8682,0.8023,0.0,0.0,0.0,0.0,0.196,0.2355,0.2729,0.0,0.2353,0.0,0.1709,0.1124,0.0553,0.0,-0.0254,-0.0518,-0.0949,-0.013,0.0089,-0.0428,-0.0779,-0.1011,-0.1118,-0.0992,-0.0736,-0.0404,-0.0288,0.0058,0.0533,0.0661,0.0725,0.0785,0.0,0.1691,0.241,0.2791,0.3304,0.4016,0.4897,0.5584,0.6182,0.701,0.7735,0.8381,0.0,0.0,0.0,0.0,0.0,0.0,0.0,0.0,0.0,0.0,0.0,0.0,0.0,0.0,0.0,0.0,0.0,0.0,0.0,0.0,0.0,0.0,0.0,0.0,0.0,0.0,0.0,0.0,0.0,0.0,0.0,0.0,0.0,0.0,0.0,0.0,0.0,0.0,0.0,0.0,0.0,0.0,0.0,0.0,0.0,0.0,0.0,0.0,0.0,0.0,1.2973,1.1724,1.1651,1.1511,1.133,1.1126,1.1096,1.1032,1.0599,1.1117,1.1757,1.157,1.1616,1.1901,1.2565,1.3187,1.3035,1.0973,0.0,1.0909,0.9189,0.8853,0.8113,0.5963,0.0,0.4356,0.3525,0.4152,0.4337,0.3317,0.3101,0.2878,0.2533,0.2174,0.1754,0.1301,0.1151,0.0535,-0.0805,0.0,0.0229,-0.0429,-0.0669,-0.0842,-0.0905,-0.0879,-0.0782,-0.0449,-0.0056,0.0112,0.0112,0.0289,0.041,0.0468,0.0,0.0,0.1807,0.204,0.2462,0.314,0.408,0.4565,0.4934,0.6006,0.6611,0.6992,0.0,0.0,0.0,0.0,0.0,0.0,0.0,0.0,0.0,0.0,0.2614,0.3666,0.0,0.0,0.0,0.0,0.0,0.0,0.0,0.0,0.0,0.0,0.0,0.0,0.0,0.0,0.0,0.0,0.0,0.0,0.0,0.0,0.0,0.0,0.0,0.0,0.0,0.0,0.0,0.0,0.0,0.0,0.0,0.0,0.0,0.0,0.0,0.0,0.0,0.0,1.2656,1.1927,1.2295,1.2042,1.1486,1.0691,1.0578,1.0711,1.0793,1.1067,1.1356,1.1541,1.1739,1.2119,1.3121,1.3511,0.0,0.0,1.1883,1.1354,1.0966,1.0095,0.896,0.7444,0.0,0.0,0.0,0.0,0.4521,0.0,0.0,0.0,0.0,0.0,0.0,0.0,0.0,0.1338,0.0983,0.0045,-0.0503,-0.0666,-0.1,-0.1088,-0.0905,-0.0911,-0.0872,-0.0785,0.0224,0.0729,0.0729,0.0282,0.034,0.0792,0.034,0.0,0.1074,0.1462,0.2018,0.2689,0.3319,0.3925,0.4421,0.5346,0.5773,0.603,0.0,0.0,0.0,0.0,0.0,0.0,0.0,-0.0816,0.0119,0.0448,0.2364,0.3549,0.3124,0.3352,0.3325,0.0,0.0,0.0,0.0,0.0,0.0,0.0,0.0,0.0,0.0,0.0,0.0,0.0,0.0,0.0,0.0,0.0,0.0,0.0,0.0,0.0,0.0,0.0,0.0,0.0,0.0,0.0,0.0,0.0,0.0,0.0,0.0,0.0,0.0,0.0,1.316,1.2528,1.2274,1.2065,1.19,1.1824,1.1893,1.1996,1.1999,1.2558,1.2967,1.2295,1.2891,1.379,1.4236,0.0,0.0,0.0,1.3374,1.2637,1.2123,1.1177,0.0,0.9439,0.8248,0.0,0.0,0.0,0.0,0.0,0.0,0.0,0.0,0.0,0.0,0.0,0.0,0.1839,0.1253,0.009,-0.0726,-0.1063,-0.0897,-0.0826,-0.0857,-0.0575,-0.0376,-0.0219,0.0556,0.0954,0.1122,0.0673,0.0449,0.0393,0.0112,0.0,0.0449,0.0954,0.1569,0.2184,0.28,0.3355,0.3858,0.4485,0.4962,0.5281,0.0,0.0,0.0,0.0,0.0,0.0,0.0,-0.1036,-0.016,0.042,0.1662,0.2763,0.3466,0.3625,0.3766,0.0,0.0,0.0,0.0,0.0,0.0,0.0,0.0,0.0,0.0,0.0,0.0,0.0,0.0,0.0,0.0,0.0,0.0,0.0,0.0,0.0,0.0,0.0,0.0,0.0,0.0,0.0,0.0,0.0,0.0,0.0,0.0,0.0,0.0,0.0,1.3091,1.2562,1.1691,1.168,1.2122,1.2749,1.3047,1.3188,1.3131,1.3756,1.4244,1.3394,1.4251,1.5289,1.5196,1.5254,0.0,1.5244,1.4565,1.3769,1.2964,0.0,1.1331,0.0,0.9337,0.7911,0.0,0.0,0.0,0.0,0.0,0.0,0.0,0.0,0.0,0.0,0.0,0.0,0.1074,0.0045,-0.0719,-0.1215,-0.0835,-0.0615,-0.0621,-0.0304,0.0052,0.0533,0.0706,0.0995,0.129,0.1058,0.0668,0.0112,-0.0,0.0,0.0,0.0561,0.1064,0.1677,0.2166,0.2713,0.3319,0.3618,0.4021,0.4422,0.0,0.0,0.0,0.0,0.0,0.0,0.0,-0.1618,-0.0904,0.0888,0.1718,0.2445,0.3248,0.3922,0.4205,0.0,0.0,0.0,0.0,0.0,0.0,0.0,0.0,0.0,0.0,0.0,0.0,0.0,0.0,0.0,0.0,0.0,0.0,0.0,0.0,0.0,0.0,0.0,0.0,0.0,0.0,0.0,0.0,0.0,0.0,0.0,0.0,0.0,0.0,0.0,0.0,1.1002,1.037,1.0847,1.1691,1.1951,0.0,0.0,1.3347,1.3232,1.3317,1.4708,1.5177,1.5307,1.5363,0.0,1.5368,1.529,1.4604,1.3891,1.357,1.2762,1.1686,0.0,0.0,0.8836,0.0,0.0,0.0,0.0,0.0,0.0,0.0,0.0,0.0,0.0,0.0,0.0,0.0805,-0.0045,-0.0583,-0.0764,-0.1125,-0.0918,-0.0096,-0.0433,-0.015,0.0852,0.062,0.0791,0.1233,0.1195,0.0926,0.0505,-0.0112,0.0,0.0,0.028,0.0449,0.1006,0.1189,0.1922,0.2932,0.2931,0.296,0.3052,0.0,0.0,0.0,0.0,0.0,0.0,-0.2387,-0.2305,-0.1699,-0.0039,0.0702,0.1533,0.2754,0.3566,0.4164,0.4471,0.0,0.0,0.0,0.0,0.0,0.0,0.0,0.0,0.0,0.0,0.0,0.0,0.0,0.0,0.0,0.0,0.0,0.0,0.0,0.0,0.0,0.0,0.0,0.0,0.0,0.0,0.0,0.0,0.0,0.0,0.0,0.0,0.0,0.0,0.0,0.0,1.1046,1.0746,0.0,0.0,1.2322,1.3063,1.4312,1.4471,1.4983,1.7781,1.8485,1.8492,1.8467,0.0,1.5763,1.7026,1.5951,1.4859,1.506,1.4005,1.2828,0.0,0.0,0.0,0.8293,0.0,0.0,0.0,0.0,0.0,0.0,0.0,0.0,0.0,0.0,0.0,0.1693,0.076,0.0179,0.0134,-0.0583,-0.0725,-0.023,0.0,0.0194,0.0349,0.0553,0.0922,0.1318,0.1222,0.1127,0.0926,0.0556,0.0,0.0,-0.0224,0.0,0.0489,0.0963,0.1544,0.2181,0.2511,0.2607,0.2632,0.0,0.0,0.0,0.0,0.0,-0.3259,-0.2845,-0.2664,-0.205,-0.0577,0.0366,0.1347,0.2504,0.3443,0.4173,0.4687,0.483,0.0,0.0,0.0,0.0,0.0,0.0,0.0,0.0,0.0,0.0,0.0,0.0,0.0,0.0,0.0,0.0,0.0,0.0,0.0,0.0,0.0,0.0,0.0,0.0,0.0,0.0,0.0,0.0,0.0,0.0,0.0,0.0,0.0,0.0,0.0,0.0,0.0,0.0,0.0,1.2752,1.3781,1.5036,1.6093,1.7446,1.9952,2.0583,2.0586,0.0,0.0,1.7217,1.8358,1.7014,1.5715,1.5998,1.4859,1.3542,0.0,0.0,0.9196,0.8456,0.0,0.0,0.0,0.0,0.0,0.0,0.0,0.0,0.0,0.0,0.0,0.0,0.1597,0.0984,0.076,-0.0045,-0.045,-0.0405,0.0278,0.0472,0.0191,0.0581,0.0987,0.1363,0.1281,0.1194,0.1208,0.0,0.0,0.0,-0.067,-0.0495,-0.0213,0.0373,0.0794,0.1101,0.1622,0.1874,0.2043,0.0,0.0,0.0,0.0,0.0,0.0,-0.3104,-0.2605,-0.178,-0.0295,0.1168,0.2239,0.2649,0.3716,0.4364,0.4303,0.4676,0.0,0.0,0.0,0.0,0.0,0.0,0.0,0.0,0.0,0.0,0.0,0.0,0.0,0.0,0.0,0.0,0.0,0.0,0.0,0.0,0.0,0.0,0.0,0.0,0.0,0.0,0.0,0.0,0.0,0.0,0.0,0.0,0.0,0.0,0.0,0.0,0.0,0.0,0.0,1.3769,1.5185,1.5288,1.7829,2.0441,2.048,2.054,2.0583,0.0,2.0413,2.0028,1.8834,1.742,1.6281,1.5966,1.5021,1.3557,1.1284,0.0,0.0,0.7109,0.0,0.0,0.0,0.0,0.0,0.0,0.0,0.0,0.0,0.0,0.0,0.0,0.2271,0.1743,0.094,0.0314,-0.0135,-0.0405,0.0135,0.0505,0.0716,0.0686,0.0889,0.1209,0.1262,0.1267,0.0,0.0,0.0,0.0,-0.094,-0.1265,-0.1172,-0.0799,-0.0521,-0.0252,0.0,0.0413,0.0853,0.0,0.0,0.0,0.0,0.0,0.0,0.0,-0.2055,-0.137,0.0845,0.1617,0.2333,0.3277,0.3988,0.4411,0.4442,0.4757,0.0,0.0,0.0,0.0,0.0,0.0,0.0,0.0,0.0,0.0,0.3348,0.2366,0.0,0.0,0.0,0.0,0.0,0.0,0.0,0.0,0.0,0.0,0.0,0.0,0.0,0.0,0.0,0.0,0.0,0.0,0.0,0.0,0.0,0.0,0.0,0.0,0.0,0.0,1.1021,1.2831,1.578,1.7814,1.9424,2.0504,2.0494,2.2304,2.3764,2.2555,2.1344,2.0327,1.9851,1.8412,1.7123,1.6838,1.5989,1.4689,1.2726,1.1679,0.0,0.0,0.0,0.0,0.0,0.0,0.0,0.0,0.0,0.0,0.0,0.0,0.0,0.0,0.2754,0.2148,0.1389,0.0941,0.0538,0.0225,0.0629,0.077,0.0688,0.0814,0.0911,0.0981,0.0994,0.0,0.0,0.0,0.0,0.0,-0.0647,-0.0955,-0.1078,-0.1078,-0.1054,-0.0921,-0.063,-0.0397,-0.0257,0.0,0.0,0.0,0.0,0.0,0.0,0.0,-0.1587,-0.0822,0.1375,0.2328,0.301,0.3536,0.4213,0.4576,0.4443,0.4809,0.0,0.0,0.0,0.0,0.0,0.0,0.0,0.0,0.3176,0.3343,0.3543,0.2773,0.2121,0.1588,0.1305,0.0,0.0,0.0,0.0,0.0,0.0,0.0,0.0,0.0,0.0,0.4697,0.0,0.0,0.0,0.0,0.0,0.0,0.0,0.0,0.0,0.0,0.0,0.0,0.0,1.538,1.8008,0.0,2.1294,2.0854,2.2132,2.4099,2.5294,2.3741,0.0,2.1003,2.081,1.9296,1.7928,1.7708,1.6608,1.521,1.3652,1.2471,0.0,0.0,0.0,0.0,0.0,0.0,0.0,0.0,0.0,0.0,0.0,0.0,0.0,0.0,0.3082,0.2621,0.1923,0.1421,0.0986,0.0673,0.0899,0.0945,0.0719,0.0853,0.0943,0.1034,0.1059,0.0,0.0,0.0,0.0,0.0,-0.0623,-0.0979,-0.1162,-0.1383,-0.1411,-0.1365,-0.1138,-0.1001,-0.086,0.0,0.0,0.0,0.0,0.0,0.0,0.0,-0.1211,-0.0187,0.1582,0.3251,0.4083,0.3577,0.4407,0.4818,0.4386,0.0,0.0,0.0,0.0,0.0,0.0,0.0,0.0,0.0,0.2986,0.3157,0.3658,0.3069,0.2589,0.2199,0.2004,0.1661,0.1236,0.0,0.0,0.0,0.0,0.0,0.0,0.1665,0.2716,0.0,0.0,0.0,0.0,0.0,0.0,0.0,0.0,0.0,0.0,0.0,0.0,0.0,0.0,0.0,0.0,0.0,2.3247,2.1718,2.4894,2.5697,2.5387,2.4167,0.0,0.0,2.1571,2.0059,1.8718,1.8447,1.6922,1.5316,1.4129,0.0,0.0,0.0,0.0,0.0,0.0,0.0,0.0,0.0,0.0,0.0,0.0,0.0,0.0,0.0,0.3403,0.3083,0.2501,0.1825,0.1335,0.103,0.1071,0.0982,0.0716,0.0937,0.1069,0.1204,0.1252,0.0,0.0,0.0,0.0,0.0,-0.0842,-0.1257,-0.1417,-0.1621,-0.1658,-0.1616,-0.1564,-0.1341,-0.1051,0.0,0.0,0.0,0.0,0.0,0.0,0.0,0.0,0.0,0.0,0.3993,0.4208,0.4578,0.4856,0.4961,0.0,0.0,0.0,0.0,0.0,0.0,0.0,0.0,0.0,0.0,0.38,0.4154,0.4134,0.3784,0.3497,0.325,0.3039,0.2698,0.2237,0.1888,0.13,0.0536,0.0,0.0,0.0,-0.1396,0.0316,0.0,0.0,0.0,0.0,0.6568,0.7413,0.0,0.0,0.0,0.0,0.0,0.0,0.0,0.0,2.0254,2.0792,2.2483,0.0,2.4687,2.5446,2.5626,2.5303,0.0,0.0,0.0,0.0,0.0,1.936,1.8541,1.7403,1.6059,1.4467,0.0,0.0,0.0,0.0,0.0,0.0,0.0,0.0,0.0,0.0,0.0,0.0,0.0,0.0,0.0,0.4225,0.3789,0.3406,0.2731,0.2092,0.1478,0.1135,0.0951,0.0942,0.107,0.1112,0.107,0.1104,0.0,0.0,0.0,0.0,-0.0048,-0.0481,-0.0884,-0.1309,-0.1679,-0.1852,-0.1832,-0.1747,-0.1675,-0.1576,0.0,0.0,0.0,0.0,0.0,0.0,0.0,0.0,0.0,0.0,0.0,0.3886,0.481,0.4968,0.0,0.0,0.0,0.0,0.0,0.0,0.0,0.0,0.0,0.0,0.2918,0.3803,0.4286,0.4308,0.4037,0.3847,0.3739,0.3622,0.3328,0.2827,0.1661,0.0447,-0.0705,-0.0207,-0.1348,-0.3403,-0.2588,0.0,0.0,0.0,0.0,0.0,0.5866,0.6998,0.0,0.8989,1.0355,1.1949,0.0,0.0,0.0,0.0,2.0169,2.0436,2.1049,2.2797,2.451,2.4918,2.5269,2.524,2.4219,0.0,0.0,0.0,0.0,0.0,1.9026,1.781,0.0,0.0,0.0,0.0,0.0,0.0,0.0,0.0,0.0,0.0,0.0,0.0,0.0,0.0,0.0,0.0,0.0,0.4711,0.4233,0.3836,0.3201,0.2542,0.1853,0.1406,0.1114,0.1021,0.1267,0.1308,0.1185,0.1129,0.107,0.0,0.0,0.0,-0.0046,-0.0417,-0.0863,-0.1409,-0.1875,-0.2102,-0.2145,-0.215,-0.2083,-0.1887,0.0,0.0,0.0,0.0,0.0,0.0,0.0,0.0,0.0,0.0,0.0,0.0,0.0,0.0,0.0,0.0,0.0,0.0,0.0,0.0,0.0,0.0,0.0,0.2558,0.2712,0.3494,0.3982,0.4141,0.4004,0.3944,0.4,0.4008,0.3725,0.3114,0.1507,-0.009,-0.1538,-0.0598,-0.1186,-0.2746,-0.2844,0.0,0.0,0.0,0.0,0.0,0.0,0.0,0.0,0.874,1.0062,1.1611,1.3437,0.0,0.0,0.0,0.0,0.0,2.0211,2.1423,2.2926,2.3949,2.4721,2.5016,2.4348,0.0,0.0,0.0,0.0,0.0,0.0,0.0,0.0,0.0,0.0,0.0,0.0,0.0,0.0,0.0,0.0,0.0,0.0,0.0,0.0,0.0,0.0,0.0,0.0,0.5194,0.4676,0.4197,0.359,0.2946,0.2325,0.1797,0.1385,0.1127,0.1439,0.1563,0.1455,0.1228,0.11,0.0,0.0,0.0,-0.009,-0.0538,-0.1031,-0.15,-0.2034,-0.2286,-0.2395,-0.2531,-0.242,-0.2148,0.0,0.0,0.0,0.0,0.0,0.0,0.0,0.0,0.0,0.0,0.0,0.0,0.0,0.0,0.0,0.0,0.0,0.0,0.0,0.0,0.0,0.0,0.3639,0.3205,0.2801,0.3525,0.3717,0.3373,0.3845,0.4189,0.4418,0.4532,0.4052,0.3084,0.2121,0.0471,-0.1582,-0.1244,-0.2328,-0.4186,-0.3202,0.0,0.0,0.0,0.0,0.0,0.0,0.0,0.0,0.8061,0.883,0.9861,1.2391,0.0,0.0,0.0,0.0,0.0,2.0182,2.0941,2.2053,2.3446,2.4053,2.427,0.0,0.0,0.0,0.0,0.0,0.0,0.0,0.0,0.0,0.0,0.0,0.0,0.0,0.0,0.0,0.0,0.0,0.0,0.0,0.0,0.0,0.0,0.0,0.0,0.0,0.6199,0.5603,0.4939,0.4285,0.3747,0.3386,0.2228,0.1688,0.1693,0.1619,0.1619,0.1648,0.1388,0.115,0.0,0.0,0.0358,-0.0225,-0.0809,-0.1154,-0.1389,-0.1854,-0.2145,-0.2245,-0.2447,-0.2488,-0.2426,0.0,0.0,0.0,0.0,0.0,0.0,0.0,0.0,0.0,0.0,0.0,0.0,0.0,0.0,0.0,0.0,0.0,0.0,0.0,0.0,0.0,0.4151,0.3312,0.2913,0.3072,0.3323,0.3271,0.2878,0.351,0.3909,0.4067,0.4275,0.4089,0.3516,0.1841,-0.0217,-0.2416,-0.2506,-0.3239,-0.425,0.0,0.0,0.0,0.0,0.0,0.0,0.0,0.0,0.0,0.0,0.8833,1.0834,1.2399,0.0,0.0,0.0,0.0,0.0,2.0108,2.0766,2.1608,2.246,2.3004,0.0,0.0,0.0,0.0,0.0,0.0,0.0,0.0,0.0,0.0,0.0,0.0,0.0,0.0,0.0,0.0,0.0,0.0,0.0,0.0,0.0,0.0,0.0,0.0,0.0,0.0,0.0,0.5798,0.522,0.4797,0.4371,0.3918,0.3134,0.2505,0.2085,0.2014,0.1931,0.1809,0.1617,0.1417,0.1211,0.0,0.0572,-0.0045,-0.0538,-0.0964,-0.1331,-0.1912,-0.2246,-0.2459,-0.2678,-0.2637,-0.2511,0.0,0.0,0.0,0.0,0.0,0.0,0.0,0.0,0.0,0.0,0.0,0.0,0.0,0.0,0.0,0.0,0.0,0.0,0.0,0.0,0.3218,0.3727,0.2878,0.2568,0.297,0.2899,0.2758,0.2528,0.3235,0.3677,0.3896,0.3986,0.3919,0.3609,0.132,-0.0954,-0.3093,-0.3365,-0.3749,-0.4113,0.0,0.0,0.0,0.0,0.0,0.0,0.0,0.0,0.0,0.0,0.0,0.0,0.0,0.0,0.0,1.7625,1.8648,1.9583,1.996,2.0486,2.101,2.1289,0.0,0.0,0.0,0.0,0.0,0.0,0.0,0.0,0.0,0.0,0.0,0.0,0.0,0.0,0.0,0.0,0.0,0.0,0.0,0.0,0.0,0.0,0.0,0.0,0.0,0.0,0.0,0.0,0.5896,0.5487,0.5217,0.4853,0.4398,0.4016,0.3364,0.2507,0.2405,0.2239,0.2035,0.1839,0.1669,0.1512,0.1276,0.0823,0.0222,-0.0402,-0.0907,-0.139,-0.196,-0.2437,-0.2802,-0.3072,-0.299,-0.2771,0.0,0.0,0.0,0.0,0.0,0.0,0.0,0.0,0.0,0.0,0.0,0.0,0.0,0.0,0.0,0.0,0.0,0.0,0.0,0.0,0.3265,0.3859,0.3287,0.2646,0.2022,0.2114,0.2217,0.2322,0.3127,0.3834,0.4429,0.4024,0.3479,0.2804,0.089,-0.1103,-0.3016,-0.3096,-0.3614,-0.4303,-0.3439,0.0,0.0,0.0,0.0,0.0,0.0,0.0,0.0,0.0,0.0,0.0,0.0,0.0,1.5807,1.6867,1.7849,1.8793,1.9677,1.9908,1.9926,2.0021,0.0,0.0,0.0,0.0,0.0,0.0,0.0,0.0,0.0,0.0,0.0,0.0,0.0,0.0,0.0,0.0,0.0,0.0,0.0,0.0,0.0,0.0,0.0,0.0,0.0,0.0,0.0,0.0,0.0,0.596,0.5518,0.5208,0.503,0.4622,0.4011,0.3142,0.2709,0.2481,0.2435,0.2137,0.1845,0.16,0.1447,0.105,0.0382,-0.0619,-0.1187,-0.1446,-0.1901,-0.2603,-0.3366,-0.3483,-0.3565,-0.3476,0.0,0.0,0.0,0.0,0.0,0.0,0.0,0.0,0.0,0.0,0.0,0.0,0.0,0.0,0.0,0.0,0.0,0.0,0.0,0.0,0.3025,0.3508,0.3387,0.3052,0.2473,0.2436,0.2317,0.2111,0.2919,0.3573,0.4055,0.3885,0.33,0.2372,0.0897,-0.0245,-0.1158,-0.2436,-0.2877,-0.2705,-0.2495,-0.1868,0.0,0.0,0.0,0.0,0.0,0.0,0.0,0.0,0.8818,1.0879,1.1316,1.3258,1.5573,1.6566,1.7517,1.8456,1.9359,1.9577,1.9559,1.9585,0.0,0.0,0.0,0.0,0.0,0.0,0.0,0.0,0.0,0.0,0.0,0.0,0.0,0.0,0.0,0.0,0.0,0.0,0.0,0.0,0.0,0.0,0.0,0.0,0.0,0.0,0.0,0.0,0.0,0.5898,0.5916,0.5727,0.5303,0.5095,0.4648,0.4011,0.3327,0.2853,0.2615,0.2302,0.2001,0.165,0.1479,0.1,0.0295,-0.0558,-0.1173,-0.1621,-0.2352,-0.2901,-0.3306,-0.3527,-0.3619,-0.3575,0.0,0.0,0.0,0.0,0.0,0.0,0.0,0.0,0.0,0.0,0.0,0.0,0.0,0.0,0.0,0.0,0.0,0.0,0.0,0.2493,0.2984,0.344,0.3686,0.3644,0.3278,0.3244,0.2933,0.2312,0.3125,0.369,0.4021,0.4044,0.3611,0.2738,0.1471,0.0766,0.0428,-0.1353,-0.1828,-0.1397,-0.1585,-0.1077,0.0,0.0,0.0,0.0,0.0,0.0,0.0,0.0,0.908,1.1121,1.1206,1.2811,1.4909,1.6138,1.6989,1.7778,1.8883,1.9157,1.9157,0.0,0.0,0.0,0.0,0.0,0.0,0.0,0.0,0.0,0.0,0.0,0.0,0.0,0.0,0.0,0.0,0.0,0.0,0.0,0.0,0.0,0.0,0.0,0.0,0.0,0.0,0.0,0.0,0.0,0.0,0.0,0.6078,0.5978,0.5664,0.5487,0.5195,0.4782,0.4038,0.3395,0.2835,0.2525,0.2152,0.1763,0.1559,0.1031,0.0323,-0.0458,-0.1209,-0.1969,-0.2768,-0.33,-0.3656,-0.3796,-0.384,-0.3928,0.0,0.0,0.0,0.0,0.0,0.0,0.0,0.0,0.0,0.0,0.0,0.0,0.0,0.0,0.0,0.0,0.0,0.0,0.0,0.2531,0.3247,0.378,0.4261,0.4446,0.4296,0.4498,0.4081,0.3007,0.3809,0.4291,0.4495,0.4568,0.4426,0.4042,0.2632,0.1832,0.1439,0.0163,-0.0489,-0.0684,-0.0819,-0.0275,0.0888,0.0,0.0,0.0,0.0,0.0,0.0,0.0,0.8837,1.0748,1.1018,1.2114,1.3667,1.554,1.6182,1.6652,1.8253,1.8645,1.8626,0.0,0.0,0.0,0.0,0.0,0.0,0.0,0.0,0.0,0.0,0.0,0.0,0.0,0.0,0.0,0.0,0.0,0.0,0.0,0.0,0.0,0.0,0.0,0.0,0.0,0.0,0.0,0.0,0.0,0.0,0.0,0.5969,0.5932,0.6194,0.5792,0.5539,0.5376,0.4776,0.4043,0.3183,0.2724,0.2321,0.197,0.1723,0.118,0.0441,-0.0365,-0.1423,-0.2549,-0.3037,-0.3785,-0.4574,-0.436,-0.4403,-0.4574,0.0,0.0,0.0,0.0,0.0,0.0,0.0,0.0,0.0,0.0,0.0,0.0,0.0,0.0,0.0,0.0,0.0,0.0,0.2867,0.336,0.39,0.4481,0.514,0.5244,0.4723,0.4509,0.4051,0.3358,0.397,0.4181,0.4017,0.4328,0.4347,0.4119,0.0,0.2784,0.2819,0.1494,0.1201,0.158,0.1114,0.1507,0.2464,0.0,0.0,0.0,0.0,0.0,0.0,0.0,0.0,0.0,1.14,1.2428,1.385,1.5204,1.5967,1.6644,1.7861,1.8197,0.0,0.0,0.0,0.0,0.0,0.0,0.0,0.0,0.0,0.0,0.0,0.0,0.0,0.0,0.0,0.0,0.0,0.0,0.0,0.0,0.0,0.0,0.0,0.0,0.0,0.0,0.0,0.0,0.0,0.0,0.0,0.0,0.6408,0.6243,0.5978,0.6022,0.5684,0.4982,0.4704,0.4225,0.3528,0.2981,0.2469,0.1997,0.1717,0.1107,0.0184,-0.1052,-0.2023,-0.2857,-0.3435,-0.3877,-0.4096,-0.4148,-0.4148,-0.4096,0.0,0.0,0.0,0.0,0.0,0.0,0.0,0.0,0.0,0.0,-0.0345,0.0447,0.0,0.0,0.0,0.251,0.2568,0.0,0.3517,0.4023,0.4579,0.5201,0.5881,0.5921,0.5232,0.4876,0.437,0.3694,0.4082,0.4193,0.4047,0.4312,0.4471,0.4517,0.0,0.428,0.4329,0.3652,0.3557,0.3827,0.3359,0.3472,0.3996,0.0,0.0,0.0,0.0,0.0,0.0,0.0,0.0,0.0,1.1393,0.0,0.0,1.4707,1.5578,1.6398,1.7321,0.0,0.0,0.0,0.0,0.0,0.0,0.0,0.0,0.0,0.0,0.0,0.0,0.0,0.0,0.0,0.0,0.0,0.0,0.0,0.0,0.0,0.0,0.0,0.0,0.0,0.0,0.0,0.0,0.0,0.0,0.0,0.0,0.0,0.6558,0.6366,0.6139,0.607,0.5736,0.5109,0.4855,0.4472,0.4003,0.3217,0.2615,0.2147,0.1412,0.059,-0.0256,-0.1244,-0.2065,-0.2829,-0.3394,-0.3821,-0.4148,-0.4108,-0.4104,-0.4148,0.0,0.0,-0.3537,-0.3808,0.0,0.0,0.0,0.0,0.0,-0.1417,-0.0276,0.069,0.0,0.0,0.0,0.2653,0.2911,0.3305,0.3929,0.4596,0.5292,0.6025,0.6587,0.6571,0.5916,0.5641,0.5073,0.4205,0.4226,0.4292,0.4403,0.0,0.4809,0.5132,0.0,0.6066,0.5839,0.6201,0.6217,0.5956,0.5774,0.5591,0.5538,0.6119,0.0,0.0,0.0,0.0,0.0,0.0,0.0,0.0,1.127,1.22,1.3358,1.4202,1.5122,1.6016,1.6699,0.0,0.0,0.0,0.0,0.0,0.0,0.0,0.0,0.0,0.0,0.0,0.0,0.0,0.0,0.0,0.0,0.0,0.0,0.0,0.0,0.0,0.0,0.0,0.0,0.0,0.0,0.0,0.0,0.0,0.0,0.0,0.0,0.6841,0.6505,0.6376,0.647,0.6054,0.5744,0.553,0.5115,0.4757,0.4443,0.3466,0.2784,0.2308,0.0871,-0.0173,-0.0875,-0.1131,-0.1773,-0.2625,-0.2965,-0.3598,-0.4347,-0.4144,-0.4196,-0.4416,0.0,0.0,-0.3353,-0.4138,0.0,0.0,0.0,0.0,-0.2684,-0.1524,-0.002,0.1174,0.1783,0.2422,0.0,0.3279,0.3407,0.3969,0.5134,0.5415,0.6019,0.7111,0.7372,0.7504,0.7508,0.7199,0.6599,0.5731,0.4907,0.4468,0.0,0.0,0.0,0.5889,0.0,0.6917,0.6754,0.7312,0.7433,0.7338,0.7753,0.7732,0.7525,0.7975,0.8003,0.0,0.0,0.0,0.0,0.0,0.0,0.0,1.2231,1.2841,1.3498,1.4474,1.5274,1.5948,0.0,1.6696,0.0,0.0,0.0,0.0,0.0,0.0,0.0,0.0,0.0,0.0,0.0,0.0,0.0,0.0,0.0,0.0,0.0,0.0,0.0,0.0,0.0,0.0,0.0,0.0,0.0,0.0,0.0,0.0,0.7971,0.7665,0.7363,0.7042,0.6706,0.6426,0.6183,0.6126,0.5728,0.0,0.4967,0.4736,0.4246,0.3598,0.2617,0.1336,0.0235,-0.0624,-0.1204,-0.1492,-0.1884,-0.2389,-0.2803,-0.3111,-0.3405,-0.3655,-0.3748,-0.3843,0.0,0.0,0.0,0.0,0.0,0.0,0.0,0.0,-0.1615,-0.1291,0.0176,0.1541,0.2431,0.3011,0.0,0.0,0.4259,0.498,0.5966,0.6448,0.7163,0.817,0.8214,0.8177,0.8054,0.7874,0.7432,0.6684,0.6207,0.0,0.0,0.0,0.0,0.6749,0.0,0.7972,0.82,0.8829,0.922,0.9446,0.9656,0.9569,0.9305,0.9388,0.9259,0.9155,1.0348,0.0,0.0,0.0,0.0,0.0,0.0,0.0,1.3768,1.4335,1.5076,1.5767,0.0,0.0,0.0,0.0,0.0,0.0,0.0,0.0,0.0,0.0,0.0,0.0,0.0,0.0,0.0,0.0,0.0,0.0,0.0,0.0,0.0,0.0,0.0,0.0,0.0,0.0,0.0,0.0,0.0,0.8886,0.8135,0.7839,0.7546,0.7203,0.6874,0.6569,0.6295,0.6181,0.5722,0.4991,0.4901,0.4518,0.3891,0.3481,0.2527,0.1138,0.0134,-0.0581,-0.1021,-0.1298,-0.1649,-0.2043,-0.2138,-0.25,-0.3028,-0.3228,-0.3439,-0.3622,0.0,0.0,0.0,0.0,0.0,0.0,0.0,0.0,0.0,-0.0029,0.0874,0.2003,0.3277,0.3683,0.3953,0.0,0.0,0.0,0.6582,0.7533,0.838,0.907,0.8977,0.8753,0.8399,0.8403,0.8088,0.7466,0.0,0.0,0.0,0.0,0.0,0.7856,0.0,0.9234,0.9841,1.0496,1.1056,1.15,1.1439,1.1182,1.0801,1.0755,1.0522,1.0328,1.1366,1.1731,1.1866,1.2825,0.0,0.0,0.0,0.0,1.4182,1.4325,1.4949,1.564,0.0,0.0,0.0,0.0,0.0,0.0,0.0,0.0,0.0,0.0,0.0,0.0,0.0,0.0,0.0,0.0,0.0,0.0,0.0,0.0,0.0,0.0,0.0,0.0,0.0,0.0,0.0,0.0,0.0,0.8751,0.8277,0.8008,0.7695,0.7329,0.6993,0.6723,0.6525,0.6188,0.5763,0.5271,0.4849,0.4328,0.3677,0.3348,0.255,0.1371,0.0235,-0.0403,-0.0675,-0.0919,-0.1217,-0.1499,-0.1381,-0.1864,-0.2623,-0.2796,-0.3081,-0.349,0.0,0.0,0.0,0.0,0.0,0.0,0.0,0.0,0.0,0.0,0.3203,0.2997,0.4501,0.456,0.4551,0.47,0.5515,0.6335,0.705,0.0,0.0,0.9519,0.9382,0.9395,0.9568,0.9629,0.9269,0.0,0.0,0.0,0.0,0.0,0.0,0.9513,0.0,0.0,1.1439,1.2055,1.2325,1.2373,1.2884,1.2489,1.1726,0.0,0.0,0.0,0.0,0.0,0.0,1.319,1.3289,0.0,0.0,0.0,1.4873,1.5286,1.5576,1.5809,0.0,0.0,0.0,0.0,0.0,0.0,0.0,0.0,0.0,0.0,0.0,0.0,0.0,0.0,0.0,0.0,0.0,0.0,0.0,0.0,0.0,0.0,0.0,0.0,0.0,0.0,0.0,0.0,0.9285,0.8949,0.8485,0.8261,0.791,0.7407,0.7123,0.6858,0.6582,0.6248,0.5904,0.5528,0.4846,0.4393,0.4098,0.3467,0.2712,0.1811,0.0235,-0.0437,-0.0471,-0.0678,-0.0786,-0.0833,-0.0918,-0.1192,-0.157,-0.2043,-0.246,-0.2865,0.0,0.0,0.0,0.0,0.0,0.0,0.0,0.0,0.0,0.0,0.0,0.4127,0.4881,0.4837,0.4798,0.4899,0.6154,0.7469,0.875,0.9401,0.9756,0.9819,0.9767,0.9787,0.9919,0.998,0.9841,0.0,0.0,0.0,0.0,1.0144,1.0224,0.0,0.0,0.0,0.0,0.0,1.2923,1.3633,1.3695,1.362,0.0,0.0,0.0,0.0,0.0,0.0,0.0,0.0,1.4789,1.541,1.5201,0.0,0.0,0.0,0.0,0.0,1.5805,0.0,0.0,0.0,0.0,0.0,0.0,0.0,0.0,0.0,0.0,0.0,0.0,0.0,0.0,0.0,0.0,0.0,0.0,0.0,0.0,0.0,0.0,0.0,0.0,0.0,0.0,0.0,0.9421,0.9112,0.863,0.8393,0.8036,0.7576,0.7346,0.7075,0.6774,0.6478,0.602,0.5425,0.5019,0.4603,0.411,0.3455,0.2843,0.2211,0.0871,0.0101,-0.0169,-0.0278,-0.0282,-0.0284,-0.0535,-0.0797,-0.1104,-0.1404,-0.1839,-0.2415,0.0,0.0,0.0,0.0,0.0,0.0,0.0,0.0,0.0,0.0,0.0,0.4833,0.4954,0.0,0.0,0.0,0.6877,0.8508,1.0,1.0251,1.0269,1.0036,1.0429,1.0449,1.0018,1.0229,0.0,0.0,0.0,0.0,1.1315,1.1597,1.1794,0.0,1.2282,0.0,0.0,0.0,0.0,0.0,0.0,1.4599,0.0,0.0,0.0,0.0,0.0,0.0,0.0,0.0,0.0,0.0,0.0,0.0,0.0,0.0,0.0,0.0,0.0,0.0,0.0,0.0,0.0,0.0,0.0,0.0,0.0,0.0,0.0,0.0,0.0,0.0,0.0,0.0,0.0,0.0,0.0,0.0,0.0,0.0,0.0,0.0,0.0,0.0,0.0,0.0,0.9571,0.9268,0.8857,0.8579,0.8267,0.7896,0.765,0.7393,0.7109,0.6744,0.6224,0.5528,0.5298,0.4915,0.4379,0.3596,0.3112,0.2841,0.1563,0.0738,0.0337,0.0246,0.0214,0.018,-0.0113,-0.0436,-0.0743,-0.0878,-0.1337,-0.1967,0.0,0.0,0.0,0.0,0.0,0.0,0.0,0.0,0.0,0.0,0.0,0.4765,0.4884,0.5583,0.6071,0.6141,0.7668,0.905,1.0033,1.087,1.0964,1.0125,1.1559,0.0,1.0037,1.0699,0.0,0.0,0.0,0.0,1.1323,1.2783,1.3766,1.4316,1.4204,1.4436,1.4908,0.0,0.0,0.0,1.5515,1.5469,0.0,0.0,0.0,0.0,0.0,0.0,0.0,0.0,0.0,0.0,0.0,0.0,0.0,0.0,0.0,0.0,0.0,0.0,0.0,0.0,0.0,0.0,0.0,0.0,0.0,0.0,0.0,0.0,0.0,0.0,0.0,0.0,0.0,0.0,0.0,0.0,0.0,0.0,0.0,0.0,0.0,0.0,0.0,0.0,0.9703,0.9476,0.9195,0.8923,0.8648,0.8374,0.8048,0.7795,0.7665,0.7082,0.657,0.6136,0.5686,0.5402,0.5191,0.4146,0.3791,0.3914,0.2082,0.1274,0.1212,0.0877,0.0642,0.0475,0.0322,0.0038,-0.0357,-0.0622,-0.1038,-0.1478,0.0,0.0,0.0,0.0,0.0,0.0,0.0,0.0,0.0,0.0,0.0,0.0,0.0,0.6615,0.6823,0.6836,0.7976,0.91,1.0048,1.0398,1.062,1.0735,1.1243,1.1451,1.1285,0.0,0.0,0.0,0.0,1.1235,1.1914,1.3458,1.4512,1.5067,1.4936,1.538,1.621,1.6129,0.0,0.0,1.6987,1.7393,0.0,0.0,0.0,0.0,0.0,0.0,0.0,0.0,0.0,0.0,0.0,0.0,0.0,0.0,0.0,0.0,0.0,0.0,0.0,0.0,0.0,0.0,0.0,0.0,0.0,0.0,0.0,0.0,0.0,0.0,0.0,0.0,0.0,0.0,0.0,0.0,0.0,0.0,0.0,0.0,0.0,0.0,0.0,0.0,0.0,0.9536,0.9278,0.9016,0.8767,0.8526,0.8287,0.7977,0.7577,0.7317,0.6917,0.6394,0.6136,0.5759,0.5281,0.4813,0.4398,0.3982,0.3175,0.2501,0.1883,0.1345,0.0976,0.0741,0.0515,0.0251,-0.0113,-0.0554,-0.0788,-0.0994,0.0,0.0,0.0,0.0,0.0,0.0,0.0,0.0,0.0,0.0,0.0,0.0,0.0,0.0,0.7608,0.7963,0.8644,0.9435,1.0345,1.0679,1.1011,1.1423,1.1884,1.2077,1.1895,0.0,0.0,0.0,0.0,0.0,0.0,1.4066,1.5145,1.5742,1.5762,1.6343,0.0,0.0,0.0,1.8491,0.0,1.8997,1.992,0.0,0.0,0.0,0.0,0.0,0.0,0.0,0.0,0.0,0.0,0.0,0.0,0.0,0.0,0.0,0.0,0.0,0.0,0.0,0.0,0.0,0.0,0.0,0.0,0.0,0.0,0.0,0.0,0.0,0.0,0.0,0.0,0.0,0.0,0.0,0.0,0.0,0.0,0.0,0.0,0.0,0.0,0.0,0.0,0.0,0.9482,0.9233,0.8991,0.8749,0.8567,0.8274,0.7838,0.7709,0.7394,0.6901,0.6587,0.6159,0.5619,0.5298,0.4854,0.4336,0.3925,0.3203,0.2284,0.1747,0.1278,0.0875,0.0672,0.0422,0.0113,-0.0311,-0.0532,-0.0649,0.0,0.0,0.0,0.0,0.0,0.0,0.0,0.0,0.0,0.0,0.0,0.0,0.0,0.0,0.0,0.9578,0.9735,1.0131,1.0975,1.1834,1.2257,1.2142,1.3589,1.3581,1.183,0.0,0.0,0.0,0.0,0.0,0.0,0.0,1.5821,1.6472,1.6828,1.7429,1.8237,0.0,1.9617,1.9406,0.0,2.0129,2.0581,0.0,0.0,0.0,2.2362,2.2346,0.0,2.201,0.0,0.0,0.0,0.0,0.0,0.0,0.0,0.0,0.0,0.0,0.0,0.0,0.0,0.0,0.0,0.0,0.0,0.0,0.0,0.0,0.0,0.0,0.0,0.0,0.0,0.0,0.0,0.0,0.0,0.0,0.0,0.0,0.0,0.0,0.0,0.0,1.1299,1.0763,0.9856,0.9617,0.935,0.9012,0.8863,0.8708,0.851,0.8251,0.7966,0.7694,0.7031,0.657,0.6289,0.5578,0.5186,0.5058,0.419,0.3304,0.2408,0.2045,0.151,0.0908,0.0841,0.061,0.0274,0.0078,-0.0208,-0.0492,0.0,0.0,0.0,0.0,0.0,0.0,0.0,0.0,0.0,0.0,0.0,0.0,0.0,0.0,0.0,1.1397,1.1505,1.1613,1.1844,1.2091,1.2437,1.2882,1.3763,1.4226,1.4164,0.0,0.0,0.0,0.0,0.0,0.0,0.0,0.0,0.0,1.8743,1.9444,1.9787,1.9228,0.0,0.0,2.0505,2.1295,0.0,0.0,0.0,0.0,0.0,2.3204,2.3165,0.0,2.2709,2.308,0.0,0.0,0.0,0.0,0.0,0.0,2.3316,0.0,0.0,0.0,0.0,0.0,2.228,2.1893,0.0,0.0,0.0,0.0,0.0,0.0,0.0,0.0,0.0,0.0,0.0,0.0,0.0,0.0,0.0,0.0,0.0,0.0,0.0,0.0,1.1186,1.0276,0.9958,0.9654,0.9385,0.9154,0.9015,0.8858,0.8644,0.8383,0.8119,0.784,0.7318,0.6921,0.6651,0.62,0.5766,0.5347,0.4667,0.3944,0.3188,0.2272,0.1579,0.1076,0.0841,0.0582,0.0354,0.0257,0.0114,-0.0078,0.0,0.0,0.0,0.0,0.0,0.0,0.0,0.0,0.0,0.0,0.0,0.0,0.0,0.0,0.0,1.2115,1.2179,1.2336,1.264,1.265,1.31,1.4113,1.4472,1.4934,1.5548,0.0,0.0,0.0,0.0,0.0,0.0,0.0,0.0,0.0,1.8891,0.0,0.0,0.0,0.0,0.0,2.1676,0.0,0.0,2.3667,2.4099,0.0,0.0,0.0,2.5115,2.4682,2.4808,0.0,0.0,0.0,0.0,0.0,0.0,0.0,0.0,0.0,0.0,0.0,0.0,0.0,2.3046,2.271,2.2479,0.0,0.0,0.0,0.0,0.0,0.0,0.0,0.0,0.0,0.0,0.0,0.0,0.0,0.0,0.0,0.0,1.4463,1.373,1.3378,1.199,1.0838,1.001,0.9722,0.9514,0.9359,0.9208,0.9036,0.8869,0.862,0.8371,0.8106,0.7577,0.7193,0.6941,0.6532,0.6101,0.5642,0.5043,0.436,0.3579,0.2666,0.1942,0.1378,0.1076,0.0853,0.0664,0.0472,0.0412,0.0424,0.0,0.0,0.6932,0.6639,0.6438,0.0,0.0,0.0,0.0,0.0,0.0,0.0,0.0,0.0,0.0,0.0,1.253,1.29,1.354,1.3598,1.4169,1.5473,1.5472,1.5686,1.6201,0.0,0.0,0.0,0.0,0.0,0.0,0.0,0.0,0.0,1.8171,1.8982,0.0,0.0,0.0,2.1834,2.2697,2.3406,0.0,0.0,2.5821,2.647,2.7176,2.74,2.74,2.74,2.7316,0.0,0.0,0.0,0.0,0.0,2.5906,0.0,0.0,0.0,0.0,0.0,0.0,0.0,2.3515,2.3357,2.3377,0.0,0.0,0.0,0.0,0.0,0.0,0.0,0.0,0.0,0.0,0.0,0.0,0.0,0.0,0.0,1.5276,1.5243,1.4924,1.4159,1.3149,1.1815,1.0158,0.985,0.9681,0.9619,0.9448,0.9274,0.9123,0.8942,0.8708,0.845,0.7867,0.7472,0.7253,0.6702,0.6275,0.5954,0.5385,0.465,0.3811,0.3159,0.2438,0.1678,0.1412,0.1214,0.1087,0.0661,0.0689,0.0842,0.785,0.7951,0.7992,0.8332,0.8669,0.0,0.0,0.0,0.0,0.0,0.0,0.0,0.0,0.0,0.0,0.0,0.0,1.5295,1.5384,1.5384,1.5469,1.5649,1.6091,1.6345,1.6365,1.6747,0.0,0.0,0.0,0.0,0.0,0.0,0.0,0.0,1.9092,1.9313,0.0,0.0,0.0,2.1479,2.1445,0.0,2.5201,2.5389,2.6345,2.7559,2.7435,2.7458,2.7557,2.7557,2.7176,2.6766,0.0,0.0,0.0,0.0,0.0,0.0,0.0,0.0,0.0,0.0,0.0,0.0,2.5118,2.499,2.5047,0.0,0.0,0.0,0.0,0.0,0.0,0.0,0.0,0.0,0.0,0.0,0.0,0.0,0.0,0.0,1.5143,1.4569,1.4148,1.4037,1.2557,1.1466,1.105,1.029,0.9838,0.9757,0.9677,0.9532,0.934,0.9189,0.9005,0.8801,0.8297,0.7936,0.7665,0.7007,0.663,0.6429,0.5609,0.5054,0.4674,0.3871,0.2831,0.1744,0.1412,0.1287,0.1232,0.0858,0.0763,0.0841,0.9305,0.9254,0.9036,0.9183,0.0,0.0,0.0,0.0,0.0,0.0,0.0,0.0,0.0,0.0,0.0,0.0,0.0,0.0,0.0,0.0,1.6651,1.6898,1.7118,1.7363,1.7593,1.7659,1.7704,0.0,0.0,0.0,0.0,0.0,0.0,0.0,0.0,0.0,0.0,0.0,2.034,2.1394,2.2425,0.0,2.5334,2.6449,2.7371,2.8125,2.854,2.8731,2.8721,2.8592,2.819,0.0,0.0,2.7295,2.6839,0.0,2.7198,2.7631,0.0,0.0,0.0,2.7332,0.0,0.0,0.0,2.6023,2.5999,2.5666,0.0,0.0,0.0,0.0,0.0,0.0,0.0,0.0,0.0,0.0,0.0,0.0,0.0,0.0,1.5045,1.4667,1.4302,1.3934,1.2753,1.1834,1.133,1.0445,0.9919,0.985,0.9747,0.9617,0.9446,0.935,0.9189,0.9001,0.8558,0.8204,0.7923,0.7257,0.6825,0.6553,0.5845,0.5292,0.4853,0.4177,0.3232,0.2211,0.1847,0.1715,0.1646,0.131,0.1108,0.0942,1.0497,1.0436,1.0165,0.9981,0.0,0.0,0.0,0.0,0.0,0.0,0.0,0.0,0.0,0.0,0.0,0.0,0.0,0.0,0.0,0.0,1.7901,1.8374,1.8252,1.8386,1.8861,1.859,1.8229,0.0,0.0,0.0,0.0,0.0,0.0,0.0,0.0,0.0,0.0,0.0,0.0,2.1745,0.0,2.4903,2.5269,2.7288,2.8351,2.8817,2.9737,2.9946,2.9786,2.9653,2.9339,2.8919,2.8488,2.8059,0.0,0.0,0.0,0.0,0.0,0.0,0.0,0.0,0.0,2.7571,0.0,0.0,0.0,0.0,0.0,0.0,0.0,0.0,0.0,0.0,0.0,0.0,0.0,0.0,0.0,0.0,0.0,0.0,0.0,1.4998,1.4684,1.4063,1.3153,1.2328,1.1562,1.0563,0.9987,0.9949,0.9824,0.9722,0.9573,0.9506,0.9385,0.9179,0.8801,0.8469,0.818,0.7546,0.7056,0.6681,0.6053,0.5451,0.4855,0.432,0.3588,0.2709,0.2281,0.2047,0.1947,0.1642,0.1343,0.1043,1.1133,1.1386,1.1446,1.1517,0.0,0.0,0.0,0.0,0.0,0.0,0.0,0.0,0.0,0.0,0.0,0.0,0.0,0.0,1.9627,0.0,0.0,1.9439,1.9236,1.9107,1.907,1.9241,1.9182,1.8829,0.0,0.0,0.0,0.0,0.0,0.0,1.9147,0.0,0.0,0.0,2.1124,0.0,2.4427,2.5274,0.0,2.6829,2.8611,3.0492,3.0267,2.9902,2.9608,0.0,2.9821,2.9621,0.0,2.8312,2.7487,0.0,0.0,0.0,0.0,0.0,0.0,0.0,2.8614,0.0,0.0,0.0,2.7556,2.6817,0.0,0.0,0.0,0.0,0.0,0.0,0.0,0.0,0.0,0.0,0.0,0.0,0.0,0.0,0.0,1.5159,1.4746,1.4764,1.3319,1.2401,1.237,1.0918,1.009,1.0089,1.0063,0.9981,0.9863,0.9784,0.9654,0.9455,0.922,0.8912,0.8538,0.8041,0.7557,0.7081,0.613,0.553,0.5189,0.4471,0.3699,0.2922,0.2311,0.1911,0.1609,0.1278,0.1143,0.1076,1.1281,1.1586,1.1805,1.2107,0.0,0.0,0.0,0.0,0.0,0.0,0.0,0.0,0.0,0.0,0.0,0.0,0.0,2.0193,0.0,0.0,0.0,0.0,1.9859,1.9892,1.9686,1.9597,1.9586,1.9641,1.9376,0.0,0.0,0.0,0.0,0.0,1.9509,0.0,2.0701,0.0,2.2241,0.0,0.0,0.0,0.0,2.81,2.9262,3.0749,3.0485,3.0189,2.9973,0.0,3.0,0.0,0.0,0.0,0.0,0.0,0.0,0.0,0.0,0.0,0.0,0.0,0.0,0.0,2.8472,0.0,2.7643,0.0,0.0,0.0,0.0,0.0,0.0,0.0,0.0,0.0,0.0,0.0,0.0,0.0,0.0,0.0,0.0,0.0,0.0,0.0,1.354,1.2752,1.2353,1.1288,1.0505,1.0116,1.0094,1.0044,0.9965,0.99,0.9759,0.9552,0.9359,0.9119,0.8818,0.83,0.7709,0.7045,0.6271,0.5534,0.4826,0.3984,0.3295,0.2758,0.2073,0.1709,0.1575,0.1211,0.0942,0.0774,1.1378,0.0,0.0,0.0,0.0,0.0,0.0,0.0,0.0,0.0,0.0,0.0,2.0423,2.0065,0.0,0.0,2.1596,2.157,0.0,0.0,2.1795,0.0,0.0,0.0,0.0,2.0367,2.0249,2.0174,0.0,0.0,0.0,0.0,0.0,0.0,0.0,2.0559,2.202,0.0,0.0,2.432,2.6597,2.8528,2.9996,2.996,3.0248,3.0662,3.0697,3.0551,3.0342,3.0113,3.0241,0.0,3.0199,0.0,0.0,0.0,0.0,0.0,2.7404,0.0,0.0,0.0,0.0,0.0,0.0,0.0,0.0,0.0,0.0,0.0,0.0,0.0,0.0,0.0,0.0,0.0,0.0,0.0,0.0,0.0,0.0,0.0,0.0,0.0,0.0,0.0,0.0,1.29,1.2191,1.1487,1.0795,1.0156,1.0123,1.0106,1.0039,0.9949,0.9807,0.9632,0.9437,0.9228,0.8974,0.8399,0.7778,0.7064,0.6313,0.5449,0.4491,0.3509,0.2919,0.2537,0.1873,0.1575,0.151,0.1211,0.0908,0.0706,1.1571,1.1753,0.0,0.0,0.0,0.0,0.0,0.0,0.0,0.0,0.0,0.0,0.0,0.0,0.0,0.0,0.0,2.3069,2.3813,0.0,2.2752,0.0,0.0,2.1856,0.0,0.0,2.1474,2.0384,0.0,0.0,0.0,0.0,0.0,0.0,0.0,2.1406,2.2899,2.3634,2.5385,2.765,2.7809,2.9355,3.1605,0.0,3.1479,3.0385,3.1031,0.0,0.0,3.0617,3.0814,0.0,0.0,0.0,0.0,0.0,0.0,0.0,0.0,0.0,0.0,2.8342,0.0,0.0,0.0,0.0,2.7753,0.0,0.0,0.0,0.0,0.0,0.0,0.0,0.0,0.0,0.0,0.0,0.0,0.0,0.0,0.0,0.0,0.0,0.0,0.0,0.0,0.0,1.205,1.1428,1.0817,1.0226,1.0204,1.0163,1.0094,0.9962,0.9832,0.9702,0.955,0.932,0.8973,0.831,0.7781,0.7318,0.6187,0.5257,0.4419,0.3351,0.2666,0.225,0.1778,0.151,0.1382,0.1179,0.1076,0.1076,1.1549,0.0,0.0,0.0,0.0,0.0,0.0,1.6273,0.0,0.0,0.0,0.0,0.0,2.3352,2.3618,0.0,0.0,2.4205,2.3342,2.387,0.0,0.0,0.0,2.2776,0.0,0.0,0.0,0.0,0.0,0.0,0.0,0.0,0.0,0.0,0.0,2.2454,0.0,0.0,0.0,0.0,0.0,3.0333,3.1593,0.0,0.0,3.181,3.1826,3.1542,0.0,3.1055,3.0855,3.0692,3.0992,3.0774,3.009,2.8778,2.7908,0.0,0.0,0.0,2.8317,2.8368,0.0,0.0,0.0,0.0,0.0,0.0,0.0,0.0,0.0,0.0,0.0,0.0,0.0,0.0,0.0,0.0,0.0,0.0,0.0,0.0,0.0,0.0,0.0,0.0,0.0,0.0,0.0,1.1414,1.0849,1.0157,1.0175,1.0178,1.0098,1.0016,0.9899,0.9773,0.9581,0.9376,0.9123,0.8622,0.8042,0.7368,0.6618,0.5774,0.4803,0.3798,0.3079,0.2563,0.2009,0.1613,0.1313,0.1145,0.1477,0.2009,1.1688,0.0,0.0,0.0,0.0,0.0,0.0,0.0,0.0,0.0,2.0547,0.0,2.3511,0.0,2.4354,0.0,2.523,2.5041,2.3864,2.44,0.0,2.3498,2.348,0.0,0.0,0.0,0.0,0.0,0.0,2.2853,0.0,0.0,0.0,0.0,0.0,2.3995,2.634,0.0,2.8645,0.0,0.0,3.1613,0.0,0.0,3.2366,3.2737,0.0,3.2108,3.18,3.1521,3.1213,3.0998,3.1151,3.0818,3.0183,2.9059,2.8198,2.7565,2.7683,2.8073,0.0,2.8471,2.887,0.0,2.8482,0.0,0.0,0.0,0.0,0.0,0.0,0.0,0.0,0.0,0.0,0.0,0.0,0.0,0.0,0.0,0.0,0.0,0.0,0.0,0.0,0.0,0.0,0.0,0.0,0.0,1.0873,1.0163,1.0176,1.0167,1.0108,1.0039,0.9922,0.9761,0.9589,0.9367,0.9116,0.871,0.8138,0.7414,0.6859,0.6068,0.5072,0.4166,0.3449,0.2856,0.2175,0.1811,0.1577,0.1075,0.1408,0.2206,1.1988,1.2266,0.0,0.0,1.3225,0.0,0.0,0.0,1.653,0.0,1.9614,2.1491,2.26,2.3525,2.4453,2.5401,2.5547,2.5549,2.5413,2.469,0.0,0.0,2.4406,2.39,2.3809,0.0,0.0,0.0,0.0,0.0,0.0,0.0,0.0,0.0,2.4831,0.0,2.8104,2.9307,3.0521,3.1723,3.2959,3.3122,3.268,3.35,3.3541,3.3099,3.2834,3.2639,3.2456,3.2001,3.1873,3.18,3.1406,3.0546,2.9609,2.9362,2.8617,2.7858,2.7882,2.8219,2.8543,2.8597,0.0,0.0,0.0,0.0,2.8793,0.0,0.0,0.0,0.0,0.0,0.0,0.0,0.0,0.0,0.0,0.0,0.0,0.0,0.0,0.0,0.0,0.0,0.0,0.0,0.0,0.0,0.0,0.0,1.0861,1.0214,1.0191,1.0178,1.0108,1.0033,0.9895,0.9708,0.9573,0.9322,0.8981,0.8567,0.8063,0.747,0.6945,0.6162,0.5189,0.4473,0.3776,0.3105,0.2344,0.2145,0.2172,0.1039,0.1072,0.1807,1.1997,1.2388,1.268,0.0,1.2335,1.265,0.0,0.0,0.0,0.0,1.9846,2.1213,2.289,2.3419,2.4064,2.5117,2.5366,0.0,0.0,0.0,0.0,2.6343,2.6025,2.6044,2.6569,2.5882,0.0,2.5614,0.0,0.0,2.6351,0.0,0.0,0.0,0.0,0.0,2.8455,2.9646,3.1379,3.336,3.4187,3.4292,0.0,0.0,3.3823,3.3662,3.3291,3.3006,3.2755,3.2539,3.2539,3.2606,3.2506,3.2256,3.182,3.0819,2.953,2.854,2.9178,2.9054,2.8737,2.8743,2.9052,2.913,0.0,0.0,0.0,0.0,0.0,0.0,0.0,0.0,0.0,0.0,0.0,0.0,0.0,0.0,0.0,2.1579,0.0,0.0,0.0,0.0,0.0,0.0,0.0,0.0,0.0,0.0,0.0,1.0209,1.0191,1.0169,1.0106,1.0035,0.9946,0.985,0.9512,0.9202,0.8911,0.8407,0.7893,0.7407,0.7179,0.6674,0.5972,0.5211,0.4609,0.4043,0.2995,0.2636,0.2633,0.2368,0.2573,0.2944,1.2478,0.0,0.0,1.2114,0.0,0.0,1.2393,1.4108,0.0,1.7394,1.8765,0.0,2.1671,2.2551,2.3469,2.4612,2.4937,0.0,2.5262,0.0,0.0,2.621,2.6494,2.6624,2.6646,2.6741,0.0,2.5879,0.0,0.0,2.639,0.0,0.0,0.0,0.0,2.7831,0.0,3.0439,3.1891,3.3483,3.4125,0.0,0.0,3.4139,3.4099,3.3954,3.3643,3.3397,3.3165,3.3024,3.2948,3.2916,3.3073,3.3178,3.3146,3.2355,3.0838,2.9468,2.9853,2.9411,2.8858,2.8905,2.916,2.9223,2.8741,2.9214,2.9657,0.0,0.0,0.0,0.0,0.0,0.0,0.0,0.0,0.0,0.0,0.0,0.0,0.0,2.1171,0.0,0.0,0.0,0.0,0.0,0.0,0.0,0.0,0.0,0.0,1.0159,1.0163,1.0125,1.0061,0.996,0.985,0.972,0.9367,0.9043,0.8716,0.8533,0.8138,0.7567,0.7598,0.7129,0.6314,0.5598,0.4928,0.4301,0.3458,0.3134,0.313,0.32,0.3171,0.3105,1.3226,0.0,0.0,0.0,0.0,0.0,0.0,1.2655,0.0,1.5321,0.0,1.8827,1.9973,2.1308,2.2644,2.3875,0.0,2.466,2.4884,2.5189,2.5442,2.5643,2.6386,2.6464,2.5775,2.6994,2.686,0.0,0.0,0.0,0.0,0.0,0.0,0.0,0.0,0.0,0.0,3.1195,3.198,3.2708,3.3331,3.3543,3.3541,3.4202,3.434,3.4148,3.3972,3.3753,3.352,3.3452,3.3226,3.3042,3.3304,3.3577,3.3743,3.3478,3.1982,3.0396,3.0221,2.9649,2.9099,2.9255,2.9391,2.9423,2.9351,2.9453,2.9588,2.9607,2.91,2.864,0.0,0.0,0.0,0.0,0.0,0.0,0.0,0.0,0.0,0.0,0.0,0.0,0.0,0.0,0.0,0.0,0.0,0.0,0.0,0.0,0.0,1.0046,1.0159,1.0195,1.0119,0.0,0.9995,0.9778,0.95,0.9095,0.8618,0.8865,0.8508,0.7756,0.7992,0.7503,0.6521,0.583,0.508,0.4301,0.3923,0.3728,0.3691,0.3733,0.3397,0.2929,0.0,0.0,0.0,0.0,0.0,1.013,1.278,1.3334,1.4007,1.5452,1.6702,1.8092,1.9827,2.0461,2.1318,2.2758,2.3444,0.0,0.0,0.0,0.0,2.6451,2.6682,2.707,2.7605,2.7132,2.702,0.0,0.0,0.0,0.0,0.0,0.0,0.0,0.0,0.0,3.0632,3.0731,0.0,3.1965,3.2678,3.3299,3.3878,3.449,3.4649,3.4473,3.4173,3.3921,3.3726,3.3671,3.353,3.3386,3.3393,3.3577,3.3623,3.2716,3.1561,3.0644,3.1121,3.0619,3.0013,3.0216,3.0309,3.0227,2.9602,2.9492,2.955,2.9664,2.9533,2.9232,2.8644,0.0,0.0,0.0,0.0,0.0,0.0,0.0,0.0,0.0,0.0,0.0,0.0,0.0,0.0,0.0,0.0,0.0,0.0,0.0,0.0,0.0,1.047,0.0,0.0,0.0,1.1515,1.1305,1.0934,1.0222,0.9244,0.9293,0.8651,0.7483,0.7807,0.7535,0.6873,0.6428,0.582,0.5163,0.4858,0.473,0.4628,0.4242,0.4043,0.3914,0.0,0.0,0.0,0.0,0.0,0.0,0.0,1.3952,1.4496,1.5698,1.6308,1.7182,1.8656,1.9247,2.0148,2.154,2.2314,2.2963,2.3599,2.4185,2.4886,2.5678,2.6319,2.6673,2.6757,2.7184,2.6948,2.5933,0.0,0.0,0.0,0.0,0.0,0.0,0.0,2.953,0.0,0.0,0.0,3.1178,3.1881,3.2371,3.2783,3.3823,3.4169,3.4107,3.4304,3.4293,3.4173,3.3895,3.3807,3.3807,3.3716,3.3825,3.3854,3.3338,3.2483,3.1661,3.1586,3.0936,3.024,2.9946,2.9919,2.9872,2.9506,2.9414,2.9453,2.9492,2.9512,2.9326,2.8539,2.7445,0.0,0.0,0.0,0.0,0.0,0.0,0.0,0.0,0.0,0.0,0.0,0.0,0.0,0.0,0.0,0.0,0.0,0.0,0.0,0.0,0.0,0.0,0.0,0.0,0.0,1.1439,1.107,1.047,0.9654,0.9723,0.9179,0.819,0.8348,0.7983,0.7252,0.6503,0.5937,0.5526,0.5194,0.4953,0.48,0.45,0.4307,0.4178,0.0,1.217,0.0,0.0,1.1366,0.0,1.3994,1.4638,1.5216,1.5954,1.6076,1.6512,1.7567,1.8229,1.908,2.0264,2.1045,2.1765,2.2566,2.3253,2.3896,2.4511,2.5509,2.5835,2.5371,2.6753,2.6495,0.0,0.0,0.0,0.0,0.0,0.0,0.0,0.0,0.0,0.0,0.0,3.0617,3.068,3.141,3.1634,3.1712,3.3032,3.3475,3.3504,3.4166,3.4425,3.4363,3.3966,3.3802,3.3778,3.3802,3.3642,3.3506,3.3759,3.3185,3.2404,3.1985,3.1399,3.0757,3.0005,2.9866,2.9816,2.9407,2.9353,2.9429,2.9556,2.9673,2.9471,2.863,2.7848,0.0,0.0,0.0,0.0,0.0,0.0,0.0,0.0,0.0,0.0,0.0,0.0,0.0,0.0,0.0,0.0,0.0,0.0,0.0,0.0,0.0,1.17,1.1813,0.0,1.1959,1.1664,1.1312,1.0781,1.0116,1.022,0.9756,0.8887,0.8884,0.8417,0.7579,0.6751,0.6251,0.5945,0.5557,0.5295,0.5055,0.4858,0.4692,0.4494,0.0,0.0,0.0,0.0,0.0,0.0,1.5106,1.5533,1.5624,1.6127,1.6184,1.6559,1.7503,1.7771,1.819,1.8912,1.9597,2.035,2.12,2.2021,2.2828,2.3674,2.4225,2.4651,2.4946,2.5298,2.5431,0.0,0.0,2.4721,0.0,0.0,0.0,0.0,0.0,0.0,0.0,3.0663,3.0682,3.0765,3.1611,3.1887,3.1862,3.2666,3.2889,3.2871,3.3532,3.3787,3.3771,3.3601,3.3144,3.2704,3.3064,3.2325,3.1496,3.2606,3.2403,3.1927,3.2599,3.2728,3.2493,3.1741,3.1622,3.1272,2.9727,2.9392,2.9636,3.0397,3.0525,3.02,2.9211,2.8526,2.7896,0.0,0.0,0.0,0.0,0.0,0.0,0.0,0.0,0.0,0.0,2.0238,0.0,0.0,0.0,0.0,0.0,0.0,0.0,0.9907,0.0,1.182,1.1893,1.2966,1.3413,1.3191,1.2785,1.1957,1.081,1.0826,1.0086,0.8803,0.8805,0.8417,0.7782,0.7734,0.7413,0.6931,0.6587,0.6252,0.5944,0.5547,0.5484,0.5547,0.0,0.0,0.0,0.0,0.0,0.0,0.0,1.488,1.4971,1.5345,1.5806,1.6371,1.7204,1.7385,1.7673,1.8193,1.8855,1.9405,1.9885,2.0748,2.1575,2.2422,2.2998,2.3511,2.3998,2.4352,2.4149,0.0,0.0,0.0,0.0,0.0,0.0,0.0,0.0,2.7509,2.8286,2.8886,2.9135,2.9212,3.0127,3.0448,3.0489,3.1794,3.2231,3.2251,3.2954,3.3216,3.3119,3.2508,3.2977,3.3687,3.2828,3.247,3.239,3.2381,3.2132,3.1831,3.1626,3.1898,3.2034,3.1218,3.1429,3.1548,3.0373,3.0485,3.0779,3.055,3.0831,3.0954,3.0617,3.0309,2.9881,0.0,0.0,0.0,0.0,0.0,0.0,0.0,0.0,0.0,0.0,0.0,0.0,0.0,0.0,0.0,0.0,0.0,0.0,1.1111,0.0,1.2597,1.2387,1.3223,1.3492,1.321,1.2838,1.2219,1.138,1.0959,1.0168,0.9086,0.8503,0.8306,0.8368,0.7866,0.7657,0.7608,0.7178,0.685,0.6587,0.6283,0.616,0.616,1.2926,0.0,1.2753,0.0,1.3741,1.4372,1.4203,1.4233,1.4403,1.4777,1.5291,1.5946,1.6672,1.68,1.7029,1.7492,1.7856,1.8303,1.8865,1.9617,2.0431,2.1272,2.1894,0.0,2.2819,2.3271,2.3036,2.2149,2.3163,0.0,0.0,0.0,0.0,0.0,2.5838,2.6456,2.6889,2.7685,2.8019,2.8103,2.8807,2.9056,2.9156,3.0355,3.0762,3.0831,3.1865,3.2218,3.2131,3.173,3.2741,3.3904,3.2373,3.2071,3.2257,3.2162,3.1894,3.1568,3.1194,3.1446,3.1652,3.1051,3.1306,3.1589,3.101,3.1321,3.1496,3.077,3.1201,3.162,3.1356,3.1269,3.0998,3.0267,0.0,0.0,0.0,0.0,0.0,0.0,2.4997,2.3917,2.3227,2.198,0.0,0.0,0.0,0.0,0.0,0.0,0.0,0.0,0.0,0.0,0.0,1.3194,1.3378,1.3158,1.2746,1.228,1.1753,1.1001,1.0223,0.9437,0.8705,0.8608,0.8931,0.8257,0.8041,0.8107,0.7734,0.7393,0.7116,0.6867,0.6738,0.6708,1.2745,1.2862,1.2828,1.2309,1.2989,1.3627,1.361,1.3821,1.4185,1.4618,1.4754,1.5099,1.5938,1.5985,1.6174,1.6664,1.647,1.6913,1.8321,1.8768,1.9447,0.0,0.0,2.1295,2.1524,2.1858,2.224,2.2676,0.0,0.0,2.318,0.0,2.4338,2.5318,2.5651,2.6397,2.7412,2.7698,2.7832,2.7919,2.8061,2.8129,2.8125,2.8214,2.819,2.8364,3.0036,3.0591,3.0653,3.1505,3.2295,3.2711,3.1577,3.0587,3.0149,3.1732,3.1542,3.0992,3.1757,3.1874,3.1801,3.1778,3.1686,3.1597,3.1597,3.1549,3.1446,3.1164,3.1783,3.2083,3.1101,3.0864,3.0592,2.9927,0.0,0.0,0.0,0.0,0.0,0.0,2.5524,2.4238,2.3819,0.0,0.0,0.0,0.0,0.0,0.0,0.0,0.0,1.124,1.1922,0.0,1.2313,1.2985,1.3295,1.3278,1.2692,1.2265,1.1967,1.1034,1.0336,0.988,0.9672,0.9526,0.9381,0.9178,0.8839,0.8484,0.8259,0.7898,0.7451,0.7264,0.7196,0.7225,1.3367,1.3284,1.3188,1.2924,1.301,1.3152,1.3324,1.3668,1.4012,1.4184,1.48,1.5321,1.5574,1.5658,1.5886,0.0,1.6464,1.6739,0.0,1.7978,1.8786,1.967,2.0208,2.0685,2.1228,2.1282,2.123,2.0996,0.0,0.0,0.0,2.201,2.2494,2.3483,2.3898,2.4409,2.4965,2.5389,2.5647,2.5868,2.6691,2.7032,2.7147,2.78,2.808,2.8183,2.8758,2.8941,2.8973,2.9199,2.9841,3.044,3.0037,3.035,3.0887,3.0849,3.0928,3.1035,3.1261,3.1613,3.2042,3.2511,3.2548,3.2458,3.2379,3.2177,3.2174,3.2581,3.2744,3.2715,3.2403,3.2179,3.1764,3.1006,3.0788,0.0,0.0,0.0,0.0,0.0,2.5971,2.4805,0.0,2.2845,0.0,0.0,0.0,0.0,0.0,0.0,0.0,0.0,1.3007,0.0,1.2968,1.3233,1.3295,1.3158,1.2785,1.2038,1.097,1.0433,0.993,0.9447,0.8985,0.907,0.9502,0.9026,0.8879,0.8976,0.8839,0.8617,0.8298,0.8184,0.8127,0.808,1.3579,1.3354,1.3272,1.3372,1.3198,1.3147,1.3471,1.3787,1.3985,1.4041,1.4546,1.5044,1.5273,1.5134,0.0,1.5855,1.6003,1.623,1.6705,1.7327,1.8122,1.9019,1.9229,1.9672,2.0331,2.019,0.0,1.9897,2.0203,2.0574,2.1005,2.1022,2.1429,2.2201,2.2685,2.3082,2.3426,2.3897,2.4215,2.4505,2.5355,2.5789,2.6013,2.6695,2.7011,2.7144,2.7526,2.7676,2.7725,2.8023,2.8497,2.8938,2.889,2.9689,3.0566,3.035,3.0471,3.0739,3.099,3.1299,3.1792,3.2821,3.2966,3.289,3.2981,3.2858,3.2795,3.3136,3.3243,3.3247,3.3229,3.3193,3.288,3.2039,3.1808,3.137,3.034,0.0,0.0,0.0,0.0,0.0,0.0,2.3538,2.2562,0.0,0.0,0.0,0.0,0.0,0.0,1.4025,1.3655,0.0,1.3556,1.3454,1.3329,1.3176,1.2799,1.2066,1.105,1.0728,1.0378,1.0012,0.9519,0.9527,0.9867,0.9417,0.9302,0.942,0.9286,0.9139,0.8992,0.8866,0.8784,0.8756,1.345,1.3173,1.3123,0.0,1.3477,0.0,1.398,1.4043,1.4053,1.4087,1.4141,1.4421,1.5012,1.454,1.452,1.5383,0.0,0.0,0.0,1.6796,1.744,1.8408,1.8252,1.8456,1.9107,1.8755,1.8794,1.9276,1.9432,1.9636,1.9924,2.0532,2.0991,2.1397,2.1898,2.2283,2.2617,2.3099,2.3458,2.3744,2.4166,2.4494,2.4758,2.5039,2.5241,2.5459,2.6348,2.6695,2.6848,2.7714,2.8062,2.8112,2.8104,2.861,2.9369,3.0111,3.0228,3.0274,3.101,3.1014,3.1199,3.2798,3.3022,3.2974,3.3413,3.3422,3.3292,3.3019,3.3344,3.3653,3.3618,3.3868,3.3766,3.2865,3.2981,3.2823,3.1692,0.0,0.0,0.0,0.0,0.0,0.0,2.4384,2.3394,0.0,0.0,0.0,0.0,0.0,1.5072,1.4683,1.4055,1.386,1.4179,1.3696,1.343,1.3295,1.2773,1.2332,1.1974,1.1657,1.1439,1.1283,1.0931,1.064,1.0424,1.0223,1.0021,0.9802,0.9633,0.9555,0.9502,0.9313,0.9247,0.9224,0.0,0.0,1.3556,1.3702,1.3635,1.358,1.3758,1.3736,1.3746,1.3812,1.4166,1.4536,1.4834,1.4897,1.4934,1.5099,1.4718,1.4892,1.5862,1.6413,1.7153,1.8165,1.8336,1.863,1.9156,1.8551,1.8124,1.7868,1.8202,1.8549,1.893,1.9485,1.9899,2.0165,2.0733,2.1116,2.1374,2.2088,2.2522,2.2792,2.3451,2.3836,2.4081,2.4451,2.475,2.4977,2.5361,2.5599,2.577,2.6054,2.6622,2.7206,2.72,2.7777,2.8593,2.9281,3.0306,3.123,3.1272,3.1118,3.1318,3.2823,3.3352,3.3488,3.3512,3.3286,3.3172,3.345,3.3442,3.3508,3.3856,3.3768,3.3454,3.2942,3.2679,3.2315,3.1751,3.0889,0.0,0.0,2.825,2.6945,2.5398,2.4795,2.3879,0.0,0.0,0.0,0.0,1.7571,1.6573,1.6346,1.5458,1.528,1.5899,1.4847,1.392,1.3155,1.292,1.2445,1.1771,1.1643,1.142,1.1121,1.0737,1.0668,1.0828,1.0532,1.0286,1.0084,1.0059,0.9919,0.9724,0.9724,0.9672,0.9567,1.361,1.3609,1.3774,1.4035,1.3866,1.3734,1.3837,1.3917,1.4011,1.4044,1.4298,1.4565,1.4625,1.4852,1.4916,1.4722,1.4636,1.487,1.5532,1.5903,1.6569,1.7523,1.7605,1.7917,1.859,1.7867,1.7267,1.6921,1.7325,1.7733,1.8108,1.8511,1.8864,1.9148,1.957,1.9928,2.0239,2.0846,2.1354,2.1804,2.2436,2.2904,2.3298,2.3779,2.4116,2.4385,2.4731,2.5004,2.5186,2.5316,2.5765,2.6266,2.6301,2.6893,2.7769,2.8524,2.9571,3.0629,3.1268,3.1267,3.1411,3.278,3.3425,3.3698,3.3509,3.3453,3.3494,3.3582,3.3929,3.4254,3.4271,3.4236,3.3929,3.3148,3.2947,3.2594,3.1913,3.1065,0.0,2.9925,2.8654,2.7377,2.6198,2.5485,2.4443,2.281,2.1862,0.0,1.9539,1.8411,1.7652,1.7225,1.6246,1.6017,1.6627,1.5242,1.4258,1.3692,1.3143,1.2691,1.2282,1.2102,1.1904,1.1721,1.1349,1.1268,1.1394,1.108,1.0845,1.0667,1.057,1.0422,1.0261,1.0186,1.011,0.9995,1.4048,1.394,1.4004,1.4433,1.4212,1.3977,1.4085,1.4198,1.4327,1.4327,1.4327,1.4387,1.4446,1.4556,1.4594,1.4412,1.4714,1.5022,1.533,1.544,1.5911,1.6821,1.6568,1.6809,1.7611,1.694,1.6408,1.6095,1.6557,1.6951,1.7256,1.7517,1.7814,1.8131,1.8416,1.8745,1.9104,1.9525,2.0088,2.0703,2.1266,2.1826,2.2365,2.2976,2.3368,2.3684,2.4241,2.4599,2.4835,2.5058,2.5249,2.5447,2.5535,2.6078,2.6894,2.7897,2.8596,2.94,3.0999,3.1389,3.156,3.256,3.329,3.3735,3.3597,3.3755,3.393,3.3846,3.4579,3.515,3.495,3.4918,3.4572,3.3551,3.3409,3.3072,3.2138,0.0,3.0896,3.0896,2.9168,2.7798,2.7377,2.6251,2.5,2.356,2.2696,2.1577,2.0055,1.9116,1.838,1.7835,1.6837,1.6487,1.6836,1.552,1.47,1.4392,1.3552,1.3096,1.3015,1.2724,1.2575,1.2537,1.222,1.203,1.1933,1.1681,1.1437,1.1201,1.1038,1.0897,1.0777,1.0621,1.0498,1.0399,1.3876,1.4214,1.4573,1.4497,1.4323,1.4186,1.4378,1.401,1.364,1.364,1.364,1.3761,1.407,1.413,1.4291,1.47,1.4622,1.4705,1.5038,1.5064,1.5365,1.6026,1.6032,1.6089,1.6389,1.6051,1.5586,1.513,1.5599,1.5896,1.6051,1.6386,1.6642,1.6786,1.7177,1.7464,1.7679,1.8401,1.8867,1.9228,2.0159,2.0719,2.1097,2.1967,2.2505,2.2863,2.3455,2.3952,2.436,2.4662,2.4946,2.5197,2.5369,2.5556,2.6049,2.7714,2.8274,2.867,3.0173,3.1264,3.1955,3.1901,3.279,3.3741,3.4147,3.4002,3.4041,3.5069,3.5071,3.5138,3.6055,3.5293,3.4496,3.4302,3.3492,3.2718,3.2219,0.0,3.135,3.1455,3.0169,2.8925,2.7969,2.6668,2.5145,2.3328,2.2379,2.1439,2.0458,1.931,1.8711,1.8786,1.7856,1.7238,1.6984,1.6681,1.5831,1.448,1.4272,1.3813,1.3175,1.3119,1.2995,1.2818,1.2537,1.2356,1.2205,1.1955,1.1659,1.137,1.1339,1.1108,1.0801,1.0753,1.0681,1.0548,1.4694,1.4705,1.4793,1.4803,1.4556,1.4387,1.4506,1.4258,1.389,1.3571,1.3511,1.3631,1.3941,1.3821,1.3941,1.4428,1.4249,1.4218,1.4571,1.4725,1.4984,1.542,1.543,1.537,1.5239,1.5263,1.5018,1.4542,1.4865,1.5049,1.5096,1.5276,1.541,1.5543,1.5884,1.6133,1.6305,1.6957,1.7464,1.7956,1.8757,1.9379,1.9905,2.0446,2.0928,2.1404,2.208,2.2668,2.3248,2.4023,2.4531,2.4873,2.51,2.5294,2.5707,2.7042,2.8385,2.955,3.0141,3.0876,3.1543,3.1682,3.2341,3.3211,3.4109,3.4331,3.4515,3.5296,3.5449,3.5552,3.5985,3.5383,3.4791,3.4747,3.3761,0.0,0.0,3.1894,3.1205,3.1062,3.0134,2.9104,2.8103,2.7009,2.5698,2.4083,2.3076,2.2098,2.1099,2.015,1.9515,1.9279,1.8437,1.7877,1.7642,1.7164,1.6314,1.5146,1.4648,1.3968,1.321,1.319,1.3334,1.3533,1.3346,1.3416,1.368,1.3502,1.3005,1.2343,1.2246,1.1788,1.1155,1.1132,1.0991,1.0801,1.5468,1.5186,1.4911,1.4911,1.4684,1.4446,1.4258,1.4258,1.407,1.3571,1.3511,1.3571,1.3881,1.358,1.3519,1.389,1.3709,1.3649,1.3821,1.4112,1.4419,1.4734,1.4793,1.4587,1.4326,1.4486,1.4394,1.4033,1.4297,1.4349,1.42,1.4413,1.4443,1.4387,1.4775,1.4983,1.5118,1.562,1.6176,1.6722,1.737,1.8009,1.8607,1.8865,1.9311,1.9881,2.0508,2.1157,2.1866,2.3066,2.3768,2.4257,2.4733,2.509,2.5529,2.6495,2.828,2.9958,2.9963,3.0505,3.1183,3.1656,3.2097,3.2766,3.4024,3.4566,3.4881,3.5186,3.5711,3.6079,3.5927,3.5535,3.5214,3.5076,0.0,0.0,0.0,3.2287,3.1443,3.113,3.0222,2.9346,2.8525,2.7335,2.609,2.4907,2.3745,2.2657,2.1768,2.0872,2.0093,1.9458,1.8688,1.8274,1.8232,1.7546,1.6798,1.5989,1.5297,1.4545,1.3765,1.3727,1.3932,1.4344,1.4231,1.4442,1.4881,1.478,1.4237,1.342,1.3268,1.2711,1.1995,1.1765,1.1531,1.1315,1.569,1.5526,1.5186,1.4625,1.4515,1.4258,1.3692,1.3571,1.3571,1.3511,1.3511,1.3511,1.3511,1.3216,1.3042,1.3111,1.3042,1.292,1.2666,1.2956,1.3381,1.407,1.407,1.3951,1.3672,1.3672,1.3615,1.3439,1.3752,1.3681,1.3326,1.4046,1.4003,1.3324,1.4094,1.4333,1.4154,1.4755,1.5107,1.5398,1.6207,1.6718,1.7111,1.7558,1.8074,1.8567,1.8951,1.9548,2.0374,2.1683,2.2486,2.3122,2.4195,2.4816,2.5331,2.6397,2.7452,2.8415,2.9087,3.0254,3.1393,3.1862,3.227,3.2903,3.4037,3.4497,3.4791,3.5054,3.5827,3.648,3.6432,3.5964,3.5577,3.5646,0.0,0.0,3.32,3.294,3.2664,3.2462,3.1195,3.017,2.9863,2.7688,2.5938,2.5202,2.3614,2.2571,2.2434,2.1135,2.0031,1.9241,1.8564,1.8232,1.8295,1.818,1.7707,1.6895,1.6764,1.6274,1.5426,1.5294,1.5167,1.5021,1.5021,1.4973,1.4891,1.4891,1.459,1.413,1.4107,1.3858,1.3445,1.276,1.2452,1.2293,1.5517,1.5468,1.5303,1.4862,1.4309,1.3821,1.3571,1.3511,1.339,1.2972,1.292,1.2972,1.3086,1.292,1.2805,1.2867,1.2674,1.2482,1.2367,1.2482,1.2789,1.3346,1.3519,1.352,1.3399,1.3433,1.336,1.3194,1.3514,1.3534,1.3199,1.3572,1.3494,1.3041,1.3297,1.3232,1.2987,1.3494,1.3862,1.4133,1.4892,1.5508,1.6016,1.6255,1.6617,1.7049,1.7657,1.8205,1.8956,2.0671,2.1744,2.2558,2.3769,2.447,2.4998,2.5747,2.662,2.7535,2.8306,2.9149,3.017,3.1695,3.202,3.2401,3.4045,3.424,3.4285,3.5065,3.5163,3.5295,3.5926,3.5489,3.5102,3.5404,0.0,3.3696,3.3696,3.2912,3.216,3.1654,3.0678,2.9782,2.9135,2.7591,2.6314,2.5468,2.3983,2.2925,2.2581,2.1628,2.0696,1.985,1.9212,1.8637,1.8194,1.8151,1.7735,1.6938,1.6881,1.6407,1.5595,1.5462,1.5591,1.5885,1.5819,1.5991,1.6321,1.6225,1.5783,1.5128,1.503,1.4594,1.3959,1.3637,1.3497,1.3398,1.5303,1.5186,1.5079,1.5029,1.4181,1.3511,1.3511,1.3511,1.3329,1.292,1.2744,1.256,1.2482,1.249,1.2436,1.2498,1.2236,1.2104,1.2112,1.212,1.2367,1.2928,1.3094,1.3164,1.318,1.3103,1.303,1.3025,1.3243,1.3217,1.2896,1.3253,1.3149,1.2653,1.2815,1.2641,1.2269,1.2691,1.2959,1.3122,1.3815,1.4446,1.4982,1.5151,1.5372,1.5711,1.6318,1.6832,1.7452,1.9219,2.0407,2.1392,2.2862,2.3985,2.4911,2.5627,2.6143,2.6794,2.8168,2.8592,2.9164,3.1301,3.1784,3.2136,3.3578,3.3921,3.4056,3.4582,3.4761,3.497,3.5331,3.5359,3.5358,3.5568,3.4895,3.4381,3.4381,3.3487,3.2485,3.1686,3.0793,2.9861,2.8794,2.7659,2.6608,2.5858,2.4351,2.3218,2.2621,2.1956,2.1342,2.0742,1.9878,1.9143,1.8581,1.8276,1.7855,1.7298,1.724,1.6905,1.633,1.6193,1.6352,1.6712,1.6637,1.6799,1.7174,1.7115,1.6642,1.6012,1.5912,1.5487,1.4885,1.4643,1.4541,1.4479,1.5029,1.4743,1.4625,1.4921,1.4181,1.3511,1.3511,1.3511,1.3511,1.3511,1.2972,1.2375,1.1685,1.1872,1.2065,1.1879,1.1809,1.1802,1.1802,1.1685,1.1934,1.2744,1.2805,1.2867,1.2981,1.2744,1.2683,1.2805,1.2805,1.2611,1.2204,1.3092,1.2999,1.2153,1.28,1.2655,1.2,1.242,1.2545,1.2452,1.2977,1.3505,1.4007,1.4204,1.4399,1.465,1.499,1.5315,1.5839,1.7208,1.8275,1.9367,2.1445,2.3381,2.5114,2.6246,2.6126,2.6178,2.8769,2.8792,2.8623,3.0765,3.1703,3.2192,3.2533,3.3476,3.4132,3.353,3.4782,3.5759,3.4955,3.5828,3.6596,3.6234,3.5736,3.5346,3.5275,3.4823,3.4056,3.295,3.1966,3.0784,2.937,2.7854,2.683,2.6431,2.4707,2.3381,2.2637,2.2081,2.1829,2.1884,2.0486,1.9682,1.9598,1.8658,1.8211,1.8211,1.8134,1.8031,1.79,1.7755,1.7595,1.7401,1.7403,1.7322,1.7215,1.7215,1.7016,1.6696,1.6696,1.6617,1.6407,1.5757,1.5555,1.5501,1.4843,1.4616,1.4515,1.4625,1.4001,1.3511,1.3511,1.3511,1.3511,1.3511,1.2972,1.2436,1.205,1.1872,1.1817,1.1879,1.1809,1.1677,1.149,1.131,1.1373,1.174,1.1988,1.2243,1.249,1.2182,1.212,1.2313,1.2428,1.2373,1.2271,1.281,1.2726,1.2158,1.2381,1.2084,1.1407,1.1735,1.1826,1.1819,1.2166,1.2638,1.3236,1.3621,1.4039,1.434,1.4585,1.5314,1.625,1.6864,1.8039,1.958,2.1718,2.3419,2.4741,2.5317,2.5451,2.5721,2.7266,2.7925,2.872,3.0951,3.1484,3.1747,3.2786,3.2988,3.3182,3.3894,3.4076,3.415,3.4294,3.4338,3.4337,3.4253,3.3934,3.3711,3.376,3.3056,3.242,3.2072,3.0789,2.9812,2.9494,2.8106,2.6796,2.5844,2.4045,2.2897,2.2676,2.271,2.2468,2.1919,2.1516,2.0789,1.9682,1.8687,1.8222,1.8274,1.8155,1.8048,1.7983,1.7883,1.771,1.7479,1.7425,1.7362,1.7273,1.7224,1.7149,1.7041,1.6959,1.6892,1.6834,1.6623,1.6575,1.6463,1.4666,1.4556,1.4455,1.4327,1.3881,1.3511,1.3511,1.3511,1.339,1.3155,1.2858,1.2436,1.1988,1.1747,1.1622,1.1755,1.1677,1.149,1.1247,1.1059,1.1059,1.1178,1.1373,1.1615,1.1996,1.174,1.1677,1.1809,1.1872,1.1926,1.1934,1.2182,1.2249,1.2038,1.1986,1.1682,1.1264,1.1351,1.1354,1.1379,1.163,1.2107,1.2735,1.342,1.3828,1.4152,1.4663,1.5401,1.6214,1.6728,1.8261,2.0207,2.1768,2.3213,2.4383,2.4769,2.506,2.5495,2.6576,2.7261,2.8181,3.0224,3.1056,3.1527,3.224,3.2577,3.2927,3.357,3.3767,3.3892,3.4129,3.384,3.3661,3.3947,3.3304,3.2872,3.3076,3.2655,3.2026,3.1291,3.0606,2.9905,2.9197,2.8264,2.7233,2.6052,2.4635,2.3694,2.3474,2.3334,2.3059,2.2594,2.2367,2.175,2.0788,1.9829,1.9,1.8339,1.8201,1.8134,1.8065,1.7922,1.7772,1.7572,1.7502,1.7448,1.737,1.7362,1.733,1.7265,1.7183,1.7142,1.7068,1.7075,1.7108,1.7034,1.4565,1.4515,1.4387,1.407,1.3761,1.3511,1.3511,1.3511,1.3268,1.2744,1.2621,1.2375,1.1747,1.1622,1.1622,1.1622,1.1303,1.1108,1.1059,1.087,1.087,1.1059,1.087,1.1003,1.1541,1.1387,1.124,1.1247,1.1247,1.1247,1.1247,1.1435,1.1622,1.174,1.1622,1.1561,1.1457,1.1153,1.1058,1.1156,1.137,1.1822,1.2459,1.3392,1.3814,1.4026,1.4977,1.5526,1.5952,1.6921,1.8858,2.0972,2.1644,2.283,2.4063,2.4535,2.491,2.537,2.6398,2.678,2.7265,2.8793,3.0238,3.1284,3.125,3.2218,3.3064,3.2803,3.3618,3.4324,3.4213,3.389,3.3832,3.4566,3.333,3.2454,3.2914,3.2983,3.237,3.0697,3.1005,3.0523,2.8583,2.8184,2.7631,2.6611,2.5764,2.51,2.4563,2.3965,2.3634,2.3629,2.3019,2.2625,2.2431,2.1631,2.0327,1.8531,1.8391,1.8291,1.8194,1.7939,1.7772,1.771,1.7641,1.7572,1.7532,1.7572,1.7542,1.7448,1.7448,1.7361,1.7264,1.724,1.7281,1.733,1.4506,1.4515,1.4455,1.4387,1.3881,1.3511,1.3511,1.3511,1.345,1.3329,1.292,1.256,1.2375,1.1934,1.1622,1.1622,1.1059,1.0807,1.094,1.0751,1.0681,1.0688,1.0491,1.0597,1.1149,1.0987,1.087,1.0744,1.0744,1.0744,1.0744,1.087,1.1059,1.1247,1.131,1.1247,1.1115,1.1226,1.1307,1.1432,1.1379,1.1713,1.2301,1.2812,1.3348,1.3889,1.4357,1.5398,1.6743,1.8033,1.9327,2.0544,2.1267,2.2511,2.3785,2.4243,2.4628,2.4991,2.5483,2.6221,2.6922,2.7341,2.8205,2.9394,3.1185,3.167,3.1865,3.239,3.2535,3.2701,3.3197,3.2619,3.2269,3.2865,3.2017,3.1297,3.1243,3.1189,3.1021,3.0604,3.0142,2.9449,2.8411,2.6606,2.5422,2.5225,2.4461,2.4011,2.3981,2.384,2.3792,2.3813,2.365,2.325,2.2652,2.2411,2.135,1.9502,1.9314,1.8857,1.8184,1.8087,1.7961,1.7861,1.7839,1.7794,1.7743,1.7766,1.7743,1.7704,1.7704,1.7698,1.7658,1.7618,1.7595,1.7612,1.4543,1.4515,1.4515,1.4515,1.395,1.3511,1.3511,1.3511,1.339,1.3094,1.2797,1.2621,1.2621,1.1996,1.1498,1.1122,1.1671,1.1629,1.0792,1.0688,1.0624,1.0624,1.0624,1.0705,1.0857,1.0907,1.0826,1.0639,1.0568,1.0438,1.0301,1.0364,1.0555,1.0744,1.0807,1.0836,1.0923,1.0955,1.1093,1.1249,1.124,1.1514,1.2,1.2584,1.3208,1.3899,1.4564,1.5954,1.7599,1.8666,1.9443,2.0111,2.0837,2.1853,2.2905,2.3419,2.4083,2.4743,2.5113,2.565,2.6201,2.6727,2.722,2.8092,3.0093,3.0732,3.1142,3.1914,3.2178,3.239,3.2751,3.2014,3.157,3.2218,3.1191,3.0259,3.0051,2.9972,2.9624,2.8785,2.8664,2.8361,2.7601,2.6372,2.5663,2.571,2.4962,2.4545,2.4624,2.4238,2.4037,2.3999,2.3978,2.3775,2.3335,2.3256,2.254,2.1173,2.0575,1.9847,1.8968,1.8861,1.8525,1.8057,1.8031,1.8009,1.7992,1.8005,1.7983,1.7983,1.7961,1.79,1.7839,1.7816,1.7772,1.7749,1.457,1.4515,1.4515,1.4515,1.395,1.3511,1.3511,1.3511,1.3268,1.2683,1.2621,1.2567,1.2436,1.1934,1.131,1.0688,1.2262,1.2615,1.1118,1.0799,1.0739,1.0772,1.0942,1.1022,1.0942,1.1009,1.0889,1.0593,1.0416,1.0211,0.9989,0.9989,1.011,1.0301,1.0371,1.0491,1.0787,1.0718,1.0909,1.1219,1.1296,1.1643,1.2068,1.2717,1.3319,1.4026,1.5006,1.6519,1.8131,1.9014,1.9489,1.9877,2.0603,2.1351,2.2113,2.2727,2.3621,2.4503,2.4917,2.5135,2.5451,2.6314,2.6587,2.7043,2.8535,2.9492,3.0322,3.1149,3.1703,3.2114,3.2401,3.166,3.1219,3.1951,3.0729,2.9585,2.9252,2.9156,2.8537,2.6934,2.7192,2.7267,2.6656,2.645,2.6356,2.6357,2.5727,2.5356,2.5356,2.4727,2.4303,2.4173,2.4209,2.4116,2.3817,2.3757,2.3335,2.2495,2.1648,2.0733,1.9825,1.9679,1.9098,1.8263,1.8512,1.8547,1.8433,1.8585,1.8525,1.84,1.8323,1.8173,1.7966,1.7971,1.7927,1.7905,1.4524,1.4515,1.4515,1.4515,1.395,1.3511,1.3511,1.3511,1.3268,1.2683,1.2621,1.2375,1.1809,1.1622,1.131,1.0688,1.1769,1.2531,1.259,1.1642,1.1196,1.1506,1.1281,1.1427,1.1961,1.1539,1.095,1.0267,1.0095,0.9963,0.9804,0.9926,1.011,1.0308,1.0498,1.0618,1.08,1.1073,1.1487,1.1958,1.2338,1.2743,1.3159,1.3389,1.3851,1.4384,1.4923,1.6244,1.7827,1.8841,1.9733,2.049,2.1176,2.1854,2.2539,2.3145,2.3671,2.4174,2.4623,2.4891,2.5091,2.5341,2.5507,2.5876,2.69,2.7809,2.866,2.9522,2.9732,3.0186,3.1641,3.1129,3.0744,3.1469,3.0753,2.9839,2.8998,2.8855,2.847,2.7428,2.6719,2.6264,2.6105,2.5405,2.4963,2.4963,2.4818,2.4746,2.4802,2.4638,2.4532,2.4446,2.4412,2.397,2.3143,2.307,2.2593,2.1753,2.1551,2.0909,1.9888,1.9693,1.9146,1.8435,1.9769,1.9978,1.9369,2.0075,1.9926,1.9225,1.9225,1.8827,1.8256,1.8246,1.8229,1.8249,1.5018,1.4734,1.4387,1.401,1.37,1.3511,1.3511,1.3511,1.3268,1.2683,1.2621,1.2313,1.1685,1.1247,1.0933,1.0624,1.2054,1.2825,1.241,1.1696,1.133,1.1457,1.1479,1.1708,1.2219,1.1942,1.1532,1.1,1.0803,1.0602,1.0378,1.0293,1.0347,1.0406,1.0443,1.0555,1.0807,1.1178,1.1615,1.2097,1.2341,1.2722,1.3182,1.3537,1.3949,1.4419,1.5485,1.6655,1.7814,1.8741,1.9284,1.9739,2.0446,2.1102,2.1789,2.2388,2.3141,2.3862,2.4302,2.4586,2.4823,2.5005,2.5156,2.5404,2.5815,2.6257,2.6997,2.8431,2.8675,2.886,2.9596,2.9399,2.9221,2.9543,2.9253,2.8651,2.7757,2.7594,2.7248,2.6388,2.5872,2.5604,2.5614,2.4753,2.439,2.4888,2.4417,2.4304,2.4798,2.4738,2.4657,2.4564,2.4532,2.4279,2.3803,2.3713,2.3474,2.3051,2.2519,2.1477,2.0003,1.9921,1.9588,1.9152,1.9808,1.9913,1.9668,2.0358,2.0214,1.9547,1.9921,1.9886,1.9582,1.9192,1.9059,1.9047]}]]